     2              OBSERVATION DATA    GPS                 RINEX VERSION / TYPE
srx v1.3 (5/19/93) STARR 93/10/11 17:11:53                  PGM / RUN BY / DATE
                                                            COMMENT
sig: 9 8 7 6 5 4 1 0                                        COMMENT
sig: 9 8 7 6 5 4 1 0                                        COMMENT
sig: 9 8 7 6 5 4 1 0                                        COMMENT
Original Marker Name: 3030                                  COMMENT
Campaign Name: Baja (Dixon) 1993                            COMMENT
4-Character Station Name: 3030                              COMMENT
6-Character Antenna Code: DMRCHT                            COMMENT
Vertical Measurement Point: BPA                             COMMENT
Vertical Offset to Rinex Ref. Point: 0.0000                 COMMENT
Radial Measurement Point: RRP                               COMMENT
Radial Offset to Rinex Ref. Point: 0.0000                   COMMENT
Antenna Height from Field Measurement: 0.0614 m             COMMENT
Additional Antenna Identification Info.:                    COMMENT
Turborogue and Ashtech Choke Ring                           COMMENT
Original XYZ: -2493309.0382 -4655182.3466 3565500.9443      COMMENT
New XYZ position is based on association with SCEC monument COMMENT
E1C1R2L8+0011. Position of that monument is believed to be  COMMENT
valid to within 1 m horizontally; vertical accuracy         COMMENT
should be no worse than 3-times this value.                 COMMENT
                                                            COMMENT
Revised Rinex header created by UCSD GPS archive for        COMMENT
GSAC on 09-Nov-2004 (2004:314) 21:55:54 GMT                 COMMENT
For assistance contact dagnew@ucsd.edu                      COMMENT
or anderson@python.ucsd.edu                                 COMMENT
                                                            COMMENT
3030S                                                       MARKER NAME
THE OBSERVER WAS?___JET PROPULSION LABORATORY               OBSERVER / AGENCY
132 TURBOROGUE SNR-8000 100.1                               REC # / TYPE / VERS
132 DORNE-MARGOL. TYPE T                                    ANT # / TYPE
 -2297512.0000 -4970654.0000  3259287.0000                  APPROX POSITION XYZ
        0.0614        0.0000        0.0000                  ANTENNA: DELTA H/E/N
     1     1     0                                          WAVELENGTH FACT L1/2
     4    L1    L2    P1    P2                              # / TYPES OF OBSERV
   120                                                      INTERVAL
  1993     4    15     0     0    0.000000                  TIME OF FIRST OBS
  1993     4    15    23    58    0.000000                  TIME OF LAST OBS
    23                                                      # OF SATELLITES
          01   855   855   855   855                        PRN / # OF OBS
          02  1043  1043  1043  1043                        PRN / # OF OBS
          03   873   873   873   873                        PRN / # OF OBS
          11  1049  1049  1049  1049                        PRN / # OF OBS
          12   911   911   911   911                        PRN / # OF OBS
          13   855   855   855   855                        PRN / # OF OBS
          14   726   726   726   726                        PRN / # OF OBS
          15   941   941   941   941                        PRN / # OF OBS
          16   909   909   909   909                        PRN / # OF OBS
          17   946   946   946   946                        PRN / # OF OBS
          18   927   927   927   927                        PRN / # OF OBS
          19  1073  1073  1073  1073                        PRN / # OF OBS
          20   796   796   796   796                        PRN / # OF OBS
          21   942   942   942   942                        PRN / # OF OBS
          22  1004  1004  1004  1004                        PRN / # OF OBS
          23   881   881   881   881                        PRN / # OF OBS
          24   831   831   831   831                        PRN / # OF OBS
          25   466   466   466   466                        PRN / # OF OBS
          26  1084  1084  1084  1084                        PRN / # OF OBS
          27  1060  1060  1060  1060                        PRN / # OF OBS
          28  1061  1061  1061  1061                        PRN / # OF OBS
          29   911   911   911   911                        PRN / # OF OBS
                                                            END OF HEADER
 93 04 15 00 00 00.0000000  0  6 02 24 12 27 26 13
 -11190611.19908  -8719942.70008  21382003.18308  21382005.45308
 -13089364.65208 -10199476.63108  21995229.33308  21995232.62708
  -8622606.96708  -6718907.40608  22964037.27508  22964040.79708
  -4278361.16608  -3333797.11207  24209197.47908  24209203.65207
   1483356.21908   1155856.67108  23433709.34408  23433713.56308
 -18832057.21809 -14674300.51608  19690339.42909  19690341.49908
 93 04 15 00 02 00.0000000  0  6 02 24 12 27 26 13
 -11012254.42808  -8580963.52308  21415943.47208  21415945.78408
 -13481266.09908 -10504854.10608  21920652.79508  21920655.97308
  -9003171.93108  -7015451.19108  22891617.91508  22891621.31808
  -3814991.39408  -2972730.99907  24297374.61308  24297381.23507
   1734562.22608   1351601.14908  23481512.73908  23481517.10508
 -18767690.99209 -14624144.99208  19702587.90009  19702589.96708
 93 04 15 00 04 00.0000000  0  6 02 24 12 27 26 13
 -10829618.59308  -8438649.98908  21450697.97508  21450700.32808
 -13869061.24208 -10807031.87908  21846857.69008  21846860.77808
  -9381342.82508  -7310129.46408  22819654.17808  22819657.42908
  -3350947.44107  -2611139.63907  24385680.20607  24385687.18407
   1987828.02908   1548950.63308  23529707.99608  23529712.40708
 -18695979.17209 -14568265.62808  19716234.19909  19716236.25208
 93 04 15 00 06 00.0000000  0  6 02 24 12 27 26 13
 -10642900.55108  -8293155.51408  21486229.35308  21486231.68808
 -14252807.61108 -11106054.75508  21773832.93408  21773835.97708
  -9756987.25608  -7602839.12208  22748171.19608  22748174.40508
  -2886552.72307  -2249275.02307  24474052.52007  24474060.03307
   2242861.78008   1747677.75808  23578239.65808  23578244.13408
 -18617086.75109 -14506790.98208  19731246.90109  19731248.94008
 93 04 15 00 08 00.0000000  0  6 02 24 12 27 26 13
 -10452045.45508  -8144437.38008  21522547.93908  21522550.28308
 -14632507.67308 -11401924.67208  21701578.24408  21701581.22308
 -10130166.31808  -7893627.76108  22677157.41108  22677160.55308
  -2422383.51207  -1887586.22207  24562382.19407  24562390.06307
   2499392.18708   1947571.10808  23627056.17808  23627060.76208
 -18531377.96809 -14440004.88808  19747556.72509  19747558.75508
 93 04 15 00 10 00.0000000  0  6 02 24 12 27 26 13
 -10257451.30408  -7992805.71808  21559578.09508  21559580.44008
 -15008156.77008 -11694637.99308  21630094.31208  21630097.26108
 -10500875.58008  -8182491.89008  22606613.62308  22606616.67808
  -1958573.75907  -1526177.54907  24650643.34007  24650651.72807
   2757103.67408   2148384.77008  23676097.37608  23676102.05608
 -18439154.70809 -14368142.59208  19765106.20409  19765108.24508
 93 04 15 00 12 00.0000000  0  5 02 24 12 26 13
 -10058536.09808  -7837806.99908  21597430.52708  21597432.88008
 -15379131.24308 -11983708.76508  21559500.04208  21559502.95108
 -10868670.82908  -8469085.36408  22536624.35408  22536627.34208
   3015721.66008   2349904.78208  23725311.21708  23725316.01108
 -18340283.83309 -14291100.34408  19783920.70109  19783922.73808
 93 04 15 00 14 00.0000000  0  5 02 24 12 26 13
  -9855336.34208  -7679469.66808  21636098.22508  21636100.61808
 -15745289.44508 -12269026.61208  21489822.25608  21489825.12808
 -11233430.51208  -8753313.48308  22467212.68308  22467215.68808
   3275300.68808   2552173.60808  23774707.85008  23774712.74308
 -18234956.31809 -14209026.94308  19803963.85909  19803965.88408
 93 04 15 00 16 00.0000000  0  5 02 24 12 26 13
  -9648263.24608  -7518114.14108  21675503.04508  21675505.52008
 -16107088.21508 -12550947.50808  21420974.08808  21420976.87508
 -11595292.24608  -9035283.48608  22398352.57008  22398355.48408
   3535395.05008   2754843.92308  23824202.59108  23824207.67108
 -18123630.50809 -14122279.54808  19825148.44809  19825150.46408
 93 04 15 00 18 00.0000000  0  5 02 24 12 26 13
  -9437342.90508  -7353760.76508  21715639.95008  21715642.42908
 -16464089.49708 -12829130.09808  21353038.82608  21353041.54908
 -11953770.82108  -9314617.25708  22330136.24408  22330139.08608
   3795903.19508   2957836.57608  23873776.05308  23873781.30808
 -18006141.30709 -14030729.52808  19847505.91009  19847507.92808
 93 04 15 00 20 00.0000000  0  5 02 24 12 26 13
  -9221889.11308  -7185874.84208  21756639.52108  21756642.06508
 -16815594.48408 -13103029.86008  21286149.53008  21286152.20208
 -12308287.34108  -9590863.71408  22262673.82108  22262676.65608
   4057322.72408   3161539.36208  23923523.11908  23923528.63908
 -17882235.71409 -13934179.72908  19871084.36509  19871086.38408
 93 04 15 00 22 00.0000000  0  5 02 24 12 26 13
  -9001601.81208  -7014222.57008  21798558.95208  21798561.53908
 -17161606.22008 -13372649.16208  21220305.47408  21220308.08508
 -12658858.12408  -9864035.57508  22195962.29108  22195965.07108
   4319061.55808   3365490.97808  23973330.83308  23973336.56508
 -17752258.33609 -13832898.67908  19895818.27109  19895820.28808
 93 04 15 00 24 00.0000000  0  5 02 24 12 26 13
  -8777284.79208  -6839430.24008  21841245.17608  21841247.78308
 -17501913.18108 -13637823.19308  21155547.03008  21155549.61508
 -13005317.93808 -10134004.08208  22130033.03608  22130035.78708
   4581001.93408   3569599.64607  24023176.87408  24023182.71007
 -17616370.31109 -13727011.91008  19921676.90809  19921678.89908
 93 04 15 00 26 00.0000000  0  5 24 02 12 26 13
 -17836548.70108 -13898577.92808  21091867.85308  21091870.39608
  -8548511.14208  -6661165.17208  21884779.41908  21884782.05208
 -13347632.98308 -10400742.91808  22064892.50108  22064895.23108
   4842558.66508   3773409.30807  24072950.01008  24072956.00707
 -17474871.28609 -13616752.92108  19948603.27409  19948605.27908
 93 04 15 00 28 00.0000000  0  5 24 02 12 26 13
 -18165814.65108 -14155148.59408  21029210.42608  21029212.94208
  -8315831.77408  -6479856.67108  21929056.92508  21929059.60008
 -13686166.12608 -10664534.86608  22000471.70108  22000474.39408
   5103424.64407   3976680.63907  24122591.77407  24122597.99907
 -17328455.84409 -13502662.95208  19976465.18709  19976467.18808
 93 04 15 00 30 00.0000000  0  5 02 12 26 13 24
  -8078778.82508  -6295140.19608  21974166.66208  21974169.35908
 -14019773.74108 -10924488.76408  21936988.23808  21936990.90108
   5364493.76607   4180110.17607  24172272.30807  24172278.76807
 -17176313.77109 -13384110.67408  20005416.85509  20005418.82708
 -18489078.65508 -14407042.43308  20967695.22608  20967697.64908
 93 04 15 00 32 00.0000000  0  5 02 12 26 13 24
  -7836605.87108  -6106434.13908  22020250.74008  22020253.47308
 -14348117.69708 -11180341.10108  21874506.38208  21874509.01708
   5625282.89107   4383321.49707  24221899.51707  24221906.23707
 -17018441.85009 -13261093.57608  20035458.88309  20035460.86608
 -18805648.93108 -14653720.38108  20907453.74208  20907456.12608
 93 04 15 00 34 00.0000000  0  5 02 12 26 13 24
  -7590663.07808  -5914790.57408  22067052.28208  22067055.01608
 -14672103.91708 -11432797.76208  21812853.77308  21812856.33408
   5884640.06907   4585416.95607  24271254.34807  24271261.36607
 -16856084.09209 -13134581.02808  20066354.52209  20066356.49408
 -19116413.73108 -14895874.58508  20848317.06208  20848319.41008
 93 04 15 00 36 00.0000000  0  5 02 12 26 13 24
  -7340733.15908  -5720040.16708  22114612.45508  22114615.28508
 -14991290.81508 -11681514.68808  21752114.39908  21752116.95508
   6142841.59807   4786611.74707  24320389.52507  24320396.68707
 -16689130.05809 -13004486.98408  20098124.83609  20098126.80808
 -19421174.26908 -15133350.15608  20790322.89708  20790325.18408
 93 04 15 00 38 00.0000000  0  5 02 12 26 24 13
  -7086191.04308  -5521695.84708  22163050.34108  22163053.19608
 -15305086.88208 -11926031.00008  21692400.90008  21692403.42408
   6400091.51407   4987064.99707  24369343.49607  24369350.69607
 -19719113.78608 -15365510.65208  20733626.77208  20733629.03808
 -16517327.29709 -12870614.71908  20130817.80809  20130819.79608
 93 04 15 00 40 00.0000000  0  5 02 12 26 24 13
  -6827536.77108  -5320147.25208  22212270.77708  22212273.68408
 -15613602.08608 -12166432.35408  21633692.34108  21633694.82208
   6655906.98707   5186400.46506  24418024.54007  24418032.17906
 -20010690.35608 -15592713.01908  20678141.48108  20678143.71508
 -16341120.25009 -12733310.55208  20164348.92309  20164350.89408
 93 04 15 00 42 00.0000000  0  5 12 02 26 24 13
 -15916665.45008 -12402585.48108  21576021.18108  21576023.64808
  -6564634.66908  -5115288.66308  22262299.47808  22262302.44808
   6910133.06407   5384497.32606  24466403.25107  24466411.05906
 -20295596.41208 -15814717.58208  20623925.51408  20623927.73708
 -16160671.26909 -12592700.98008  20198687.23909  20198689.21708
 93 04 15 00 44 00.0000000  0  5 12 02 26 24 13
 -16213984.00008 -12634262.13408  21519443.23808  21519445.68608
  -6297370.10508  -4907030.76908  22313158.38408  22313161.37208
   7162597.29107   5581221.27306  24514446.73007  24514454.93106
 -20573616.38508 -16031356.36808  20571019.96008  20571022.11808
 -15976019.77709 -12448816.72508  20233825.25609  20233827.23808
 93 04 15 00 46 00.0000000  0  5 12 02 26 24 13
 -16505912.06308 -12861738.43908  21463891.09108  21463893.50508
  -6026580.12008  -4696025.81108  22364688.19508  22364691.29108
   7413003.49206   5776341.40906  24562098.38806  24562107.33306
 -20845305.61308 -16243062.10908  20519319.11508  20519321.23408
 -15787851.15609 -12302191.84908  20269632.58209  20269634.58708
 93 04 15 00 48 00.0000000  0  5 12 02 26 24 13
 -16791567.36108 -13084326.90608  21409532.63308  21409535.03508
  -5751285.93608  -4481511.09808  22417075.17708  22417078.29308
   7661112.01706   5969670.98606  24609313.29106  24609322.64006
 -21109762.88508 -16449132.57108  20468994.42408  20468996.49508
 -15595611.87709 -12152395.02508  20306214.51209  20306216.50608
 93 04 15 00 50 00.0000000  0  5 12 02 26 24 13
 -17070802.42808 -13301912.60808  21356395.91608  21356398.29508
  -5471569.48608  -4263550.47208  22470303.62208  22470306.76208
   7907230.10806   6161449.49706  24656149.48006  24656158.93106
 -21366881.32808 -16649484.46508  20420066.35808  20420068.40308
 -15399483.40609 -11999567.63608  20343536.51409  20343538.48908
 93 04 15 00 52 00.0000000  0  4 12 02 24 13
 -17343833.04008 -13514663.63608  21304439.82908  21304442.21508
  -5187911.61508  -4042518.62008  22524282.07708  22524285.39808
 -21617104.61208 -16844463.51308  20372450.36708  20372452.36908
 -15200003.42008 -11844128.65908  20381496.26408  20381498.23608
 93 04 15 00 54 00.0000000  0  4 12 02 24 13
 -17610420.17208 -13722393.76008  21253709.88408  21253712.26408
  -4900432.23108  -3818508.96508  22578987.72608  22578991.17208
 -21859806.44208 -17033581.69408  20326265.60308  20326267.58308
 -14997255.22908 -11686143.03808  20420077.93808  20420079.92608
 93 04 15 00 56 00.0000000  0  4 12 02 24 13
 -17869995.66508 -13924660.28908  21204314.22708  21204316.61408
  -4608368.24008  -3590926.90908  22634565.86308  22634569.36808
 -22094587.73508 -17216528.02208  20281588.15208  20281590.08208
 -14790988.40808 -11525415.65908  20459329.20708  20459331.17808
 93 04 15 00 58 00.0000000  0  4 12 02 24 13
 -18122760.28908 -14121619.67008  21156214.67208  21156217.03408
  -4312254.68308  -3360189.34408  22690914.55408  22690918.09608
 -22322361.47208 -17394013.91608  20238244.12708  20238246.01808
 -14581716.93608 -11362347.03008  20499152.28408  20499154.28808
 93 04 15 01 00 00.0000000  0  4 12 02 24 13
 -18368467.49308 -14313079.74708  21109458.07508  21109460.41908
  -4012010.51108  -3126233.13108  22748049.29708  22748052.94908
 -22542496.99408 -17565547.95308  20196353.61708  20196355.47708
 -14369505.92008 -11196987.87808  20539534.77108  20539536.76308
 93 04 15 01 02 00.0000000  0  4 12 02 24 13
 -18606777.65108 -14498775.87808  21064109.09108  21064111.42508
  -3707537.38408  -2888981.62808  22805988.90208  22805992.50608
 -22754464.77308 -17730717.52408  20156017.41808  20156019.24108
 -14154319.88808 -11029310.52408  20580483.36508  20580485.38608
 93 04 15 01 04 00.0000000  0  4 12 02 24 13
 -18837890.41808 -14678863.66908  21020129.72608  21020132.04808
  -3399486.69308  -2648942.41508  22864609.24408  22864612.90008
 -22958787.96408 -17889930.28208  20117135.89008  20117137.69608
 -13936659.79108 -10859705.30308  20621902.73608  20621904.77108
 93 04 15 01 06 00.0000000  0  4 02 24 12 13
  -3087513.34408  -2405846.59108  22923975.98608  22923979.77508
 -23155319.05608 -18043071.27008  20079737.18208  20079738.96308
 -19061646.41208 -14853218.95208  20977550.34808  20977552.67108
 -13716661.76308 -10688278.27908  20663766.97608  20663768.99708
 93 04 15 01 08 00.0000000  0  4 02 24 12 13
  -2772026.53608  -2160013.00708  22984011.35708  22984015.19708
 -23344644.83008 -18190597.72608  20043709.57308  20043711.33708
 -19278092.28408 -15021878.04508  20936362.04008  20936364.36008
 -13494664.06908 -10515293.05608  20706011.71608  20706013.74808
 93 04 15 01 10 00.0000000  0  4 02 24 12 13
  -2452511.73808  -1911040.73908  23044813.12608  23044817.07808
 -23525714.15308 -18331690.59408  20009253.14708  20009254.87008
 -19486558.32908 -15184319.05708  20896692.23108  20896694.50508
 -13270283.09108 -10340450.74208  20748709.99908  20748712.02908
 93 04 15 01 12 00.0000000  0  4 02 24 12 13
  -2129260.69608  -1659157.13008  23106325.97708  23106330.10908
 -23698895.29508 -18466636.83108  19976297.80508  19976299.50408
 -19687152.85308 -15340626.40908  20858520.29408  20858522.58408
 -13043904.83508 -10164052.13608  20791788.35908  20791790.44308
 93 04 15 01 14 00.0000000  0  4 02 24 12 13
  -1802343.05708  -1404416.42608  23168536.57008  23168540.78608
 -23864008.75408 -18595296.55908  19944877.66608  19944879.32908
 -19879866.54608 -15490792.89708  20821848.07208  20821850.37708
 -12815790.53208  -9986300.77808  20835197.12008  20835199.17508
 93 04 15 01 16 00.0000000  0  5 02 20 24 12 13
  -1471668.52708  -1146748.26908  23231462.09208  23231466.38008
         0.45817        -0.32317  24485611.81917  24485615.42117
 -24020819.43408 -18717486.59008  19915037.49808  19915039.13608
 -20064117.69308 -15634365.21008  20786786.21608  20786788.52408
 -12585627.80508  -9806953.25308  20878995.65408  20878997.75308
 93 04 15 01 18 00.0000000  0  6 02 20 16 24 12 13
  -1137390.39508   -886272.10508  23295073.40508  23295077.66008
   -393632.71907   -306727.18907  24410705.63507  24410709.22207
        -0.34517        -0.72216  24625322.99217  24625332.92116
 -24169571.86808 -18833397.46908  19886730.78808  19886732.39708
 -20240016.57409 -15771429.24908  20753313.77009  20753316.06108
 -12353785.08908  -9626296.62708  20923113.89108  20923115.93808
 93 04 15 01 20 00.0000000  0  6 13 02 20 16 24 12
 -12120474.30908  -9444496.06808  20967511.50308  20967513.57308
   -799228.22808   -622769.43208  23359423.80708  23359428.04408
   -788618.01607   -614507.70507  24335542.09507  24335545.77107
   -342484.41607   -266869.62906  24560148.95107  24560158.55406
 -24309998.18408 -18942820.46708  19860008.41708  19860010.00108
 -20407524.61509 -15901954.97208  20721438.00709  20721440.30908
 93 04 15 01 22 00.0000000  0  6 13 02 20 16 24 12
 -11885178.87608  -9261149.03108  21012286.77908  21012288.84008
   -457280.35008   -356316.89508  23424494.58908  23424498.89108
  -1184239.28108   -922783.81607  24260257.70908  24260261.13407
   -688191.33707   -536250.01507  24494361.92007  24494371.10107
 -24441858.29908 -19045568.51208  19834916.20808  19834917.78608
 -20565878.97809 -16025347.97708  20691304.16909  20691306.46908
 93 04 15 01 24 00.0000000  0  6 13 20 02 24 12 16
 -11647922.81808  -9076274.22708  21057435.13708  21057437.21108
  -1580324.64508  -1231421.53407  24184884.94008  24184888.41707
   -111422.58708    -86817.70108  23490309.43708  23490313.80008
 -24564682.50008 -19141275.59108  19811543.48008  19811545.03108
 -20714871.02709 -16141445.68208  20662951.92409  20662954.23208
  -1036230.20307   -807447.57707  24428131.09807  24428139.85307
 93 04 15 01 26 00.0000000  0  6 13 20 02 24 12 16
 -11409467.75808  -8890465.13208  21102811.65008  21102813.75708
  -1977433.87208  -1540856.98407  24109317.37108  24109320.81007
    238207.19508    185620.73808  23556841.88108  23556846.47208
 -24679190.43408 -19230502.46808  19789753.26208  19789754.80008
 -20855029.79809 -16250660.28108  20636280.58409  20636282.88108
  -1387481.51507  -1081148.32107  24361288.91707  24361297.61407
 93 04 15 01 28 00.0000000  0  6 13 20 02 24 12 16
 -11169982.24008  -8703853.07708  21148384.26008  21148386.34908
  -2375535.75008  -1851065.90008  24033560.86808  24033564.23108
    591179.94808    460664.09608  23624010.63108  23624015.32208
 -24785552.76908 -19313382.12808  19769513.14408  19769514.65708
 -20986304.09809 -16352951.88508  20611299.86409  20611302.15608
  -1741879.13507  -1357300.82707  24293848.24407  24293856.51607
 93 04 15 01 30 00.0000000  0  6 13 20 02 24 12 16
 -10930125.16508  -8516951.49308  21194027.55108  21194029.68308
  -2775091.41408  -2162407.64108  23957527.75908  23957531.04408
    946758.94508    737738.32008  23691675.16508  23691680.13408
 -24884331.71508 -19390352.65108  19750716.07408  19750717.55508
 -21109140.06609 -16448668.19208  20587924.93609  20587927.23108
  -2099279.34107  -1635793.05807  24225836.21507  24225844.09707
 93 04 15 01 32 00.0000000  0  6 13 20 02 24 12 16
 -10689602.15208  -8329531.00908  21239797.59508  21239799.72308
  -3175610.55908  -2474500.17908  23881311.36608  23881314.44608
   1305185.89008   1017031.77108  23759881.86408  23759886.77008
 -24974835.58408 -19460875.06008  19733493.69708  19733495.15908
 -21223043.94509 -16537424.45908  20566249.73909  20566252.03408
  -2459332.73608  -1916352.81507  24157319.35608  24157326.93407
 93 04 15 01 34 00.0000000  0  6 13 20 02 24 12 16
 -10448177.83508  -8141408.21208  21285739.16008  21285741.30008
  -3576655.95808  -2787002.81108  23804994.76208  23804997.79808
   1667129.29908   1299065.34808  23828757.67008  23828762.65808
 -25056779.02008 -19524727.00809  19717900.31308  19717901.76509
 -21327583.25909 -16618883.67608  20546356.56409  20546358.87908
  -2822071.14108  -2199004.92907  24088291.74708  24088298.83907
 93 04 15 01 36 00.0000000  0  6 13 20 02 24 12 16
 -10205719.65108  -7952479.81608  21331877.46408  21331879.61608
  -3977897.56508  -3099658.31608  23728640.83908  23728643.80708
   2032488.64808   1583760.65808  23898283.57808  23898288.44808
 -25130125.78508 -19581880.26109  19703942.83308  19703944.27509
 -21422439.51809 -16692797.65008  20528306.01609  20528308.33608
  -3186752.67908  -2483171.17708  24018894.30708  24018901.13608
 93 04 15 01 38 00.0000000  0  6 13 20 02 24 12 16
  -9962130.54308  -7762670.18708  21378230.96908  21378233.13308
  -4379039.72508  -3412236.30408  23652305.69708  23652308.71208
   2401329.10008   1871168.50107  23968471.85808  23968476.74907
 -25194773.00708 -19632254.66309  19691640.82008  19691642.24109
 -21507340.00409 -16758953.85908  20512149.98409  20512152.29208
  -3552587.80808  -2768236.33208  23949277.33208  23949283.75808
 93 04 15 01 40 00.0000000  0  6 13 20 02 24 12 16
  -9717764.20008  -7572254.92908  21424732.40708  21424734.59408
  -4780239.41508  -3724859.13208  23575959.68008  23575962.59208
   2773208.70608   2160944.53207  24039238.35108  24039243.35907
 -25250604.89808 -19675759.97509  19681016.33108  19681017.74109
 -21582473.28109 -16817499.24808  20497852.56709  20497854.87808
  -3920288.07208  -3054754.91808  23879305.37808  23879311.63608
 93 04 15 01 42 00.0000000  0  6 13 20 02 24 12 16
  -9473384.08508  -7381828.94408  21471236.45908  21471238.61008
  -5182062.39908  -4037967.65508  23499495.05108  23499497.94908
   3147833.38808   2452859.63807  24110527.21608  24110532.24407
 -25298610.28908 -19713166.70909  19671881.17808  19671882.56709
 -21648445.76709 -16868906.36208  20485298.41109  20485300.72408
  -4290224.57508  -3343016.13508  23808907.94308  23808913.92008
 93 04 15 01 44 00.0000000  0  6 13 20 02 24 12 16
  -9228952.67008  -7191362.98908  21517750.26608  21517752.46908
  -5584273.40908  -4351378.58208  23422956.62108  23422959.43408
   3525148.26107   2746871.04107  24182327.96507  24182333.00107
 -25338632.33008 -19744352.64809  19664265.17708  19664266.55509
 -21705072.26009 -16913030.89408  20474522.73309  20474525.03808
  -4662296.77608  -3632941.58408  23738104.15808  23738109.95108
 93 04 15 01 46 00.0000000  0  6 13 20 02 24 12 16
  -8984278.47108  -7000707.84708  21564310.28408  21564312.50208
  -5986486.19808  -4664790.93508  23346417.80308  23346420.65308
   3905072.64907   3042915.82207  24254625.25107  24254630.44907
 -25370294.63308 -19769024.50809  19658239.95008  19658241.30809
 -21752025.80909 -16949618.08808  20465587.76709  20465590.08908
  -5035464.60208  -3923720.77508  23667091.94608  23667097.54308
 93 04 15 01 48 00.0000000  0  6 13 20 02 24 12 16
  -8739960.64408  -6810330.38308  21610802.44308  21610804.68508
  -6389101.12608  -4978516.65908  23269802.62108  23269805.41308
   4287249.39507   3340715.69807  24327351.22807  24327356.43707
 -25394547.23208 -19787922.58109  19653624.82308  19653626.17209
 -21789777.68609 -16979035.16308  20458403.83609  20458406.15608
  -5410215.70208  -4215733.70908  23595778.56108  23595783.93508
 93 04 15 01 50 00.0000000  0  6 13 20 02 16 24 12
  -8495717.12308  -6620010.79908  21657280.47308  21657282.71808
  -6791639.35808  -5292182.63108  23193202.01108  23193204.70308
   4671973.37207   3640500.41706  24400561.94607  24400567.15006
  -5786266.24708  -4508759.25108  23524217.96908  23524223.04808
 -25410608.21908 -19800437.58409  19650568.49608  19650569.82309
 -21817926.98809 -17000969.71708  20453047.25109  20453049.55108
 93 04 15 01 52 00.0000000  0  6 13 20 02 16 24 12
  -8251419.94508  -6429649.40008  21703768.71008  21703770.94208
  -7193780.77208  -5605539.41708  23116676.98308  23116679.65208
   5058870.08607   3941978.12606  24474186.20907  24474191.41306
  -6163313.49608  -4802561.53908  23452467.78608  23452472.64208
 -25418634.52408 -19806691.80009  19649041.07308  19649042.40509
 -21836242.54709 -17015241.60908  20449561.92009  20449564.24508
 93 04 15 01 54 00.0000000  0  5 13 20 16 24 12
  -8007053.37308  -6239233.93108  21750270.16008  21750272.43508
  -7595313.90608  -5918422.21508  23040267.65108  23040270.21008
  -6541068.39108  -5096915.33108  23380582.94208  23380587.66108
 -25418429.47508 -19806531.98109  19649080.04008  19649081.36309
 -21844612.86109 -17021763.95408  20447969.12009  20447971.44708
 93 04 15 01 56 00.0000000  0  5 13 20 16 24 12
  -7762593.42408  -6048745.69208  21796789.35908  21796791.62408
  -7996019.18208  -6230659.88208  22964015.84408  22964018.33908
  -6918858.93108  -5391296.92108  23308691.27908  23308695.87208
 -25409828.63708 -19799829.99609  19650716.70108  19650718.01609
 -21842925.53409 -17020449.18108  20448290.22409  20448292.56808
 93 04 15 01 58 00.0000000  0  5 13 20 16 24 12
  -7518074.82508  -5858211.76808  21843319.76508  21843321.99708
  -8395736.10008  -6542127.38608  22887952.09808  22887954.50208
  -7296838.03108  -5685825.43508  23236763.68008  23236768.22708
 -25393191.97508 -19786866.33809  19653882.55408  19653883.86009
 -21831140.07909 -17011265.74908  20450532.94509  20450535.32008
 93 04 15 02 00 00.0000000  0  5 13 20 16 24 12
  -7273818.04408  -5667881.87508  21889800.31108  21889802.62508
  -8794594.75508  -6852926.13008  22812051.69408  22812054.03408
  -7675025.14808  -5980516.03108  23164796.42108  23164800.91508
 -25368668.33908 -19767756.98809  19658549.21608  19658550.50809
 -21809513.82809 -16994414.16808  20454648.31809  20454650.69808
 93 04 15 02 02 00.0000000  0  5 13 20 16 24 12
  -7029909.94508  -5477823.69508  21936214.54108  21936216.82308
  -9192490.67908  -7162974.73108  22736334.47608  22736336.78808
  -8053276.26208  -6275256.50508  23092817.10708  23092821.40708
 -25336325.75708 -19742554.95309  19664703.75508  19664705.05909
 -21778082.02409 -16969921.89808  20460629.61509  20460632.02008
 93 04 15 02 04 00.0000000  0  5 20 16 13 24 12
  -9589098.22608  -7472019.41808  22660862.44508  22660864.73708
  -8431222.44708  -6569759.41808  23020895.91208  23020900.03408
  -6786219.91108  -5287935.42208  21982587.25708  21982589.58108
 -25296040.66709 -19711163.95209  19672369.78509  19672371.08609
 -21736665.70409 -16937649.48608  20468510.92809  20468513.35008
 93 04 15 02 06 00.0000000  0  5 20 16 13 24 12
  -9984432.59808  -7780072.03608  22585632.70608  22585634.95908
  -8808491.88808  -6863735.04708  22949103.55208  22949107.40908
  -6542952.75308  -5098376.65708  22028879.49408  22028881.83608
 -25248283.61709 -19673950.64109  19681457.62809  19681458.90109
 -21685438.32009 -16897732.08808  20478259.21009  20478261.65808
 93 04 15 02 08 00.0000000  0  5 20 16 13 24 12
 -10378723.13108  -8087311.28008  22510601.62308  22510603.80708
  -9185494.07708  -7157502.47208  22877362.09008  22877365.81408
  -6300527.04408  -4909473.53608  22075011.57808  22075013.95108
 -25193523.65909 -19631280.51509  19691878.06609  19691879.33209
 -21624797.05409 -16850479.19708  20489798.88009  20489801.34308
 93 04 15 02 10 00.0000000  0  5 20 16 13 24 12
 -10771828.97708  -8393627.35608  22435795.89208  22435798.05308
  -9562096.90108  -7450958.69208  22805696.58808  22805700.13208
  -6058992.35108  -4721264.71008  22120974.12708  22120976.48608
 -25131397.43609 -19582870.44309  19703700.26709  19703701.54109
 -21554777.94708 -16795918.91308  20503123.12508  20503125.58708
 93 04 15 02 12 00.0000000  0  5 20 16 13 24 12
 -11163375.40308  -8698728.26608  22361286.94708  22361289.07008
  -9937789.58408  -7743705.70108  22734204.17308  22734207.69608
  -5818162.63508  -4533605.20408  22166802.51708  22166804.85708
 -25061863.17009 -19528687.87009  19716932.17809  19716933.43809
 -21475193.17308 -16733904.87408  20518267.66108  20518270.12808
 93 04 15 02 14 00.0000000  0  5 20 16 13 24 12
 -11552805.65608  -9002180.22408  22287180.68708  22287182.80108
 -10312175.44408  -8035434.44908  22662960.55308  22662964.00008
  -5577666.39108  -4346205.54508  22212567.44408  22212569.77708
 -24984655.32109 -19468525.88309  19731624.32209  19731625.59109
 -21385681.40508 -16664155.52208  20535301.25208  20535303.72908
 93 04 15 02 16 00.0000000  0  5 20 16 13 24 12
 -11939843.88908  -9303768.29108  22213529.62608  22213531.71508
 -10684866.26608  -8325842.45608  22592039.46908  22592042.86308
  -5337418.95208  -4158999.76608  22258285.01808  22258287.37808
 -24900092.22509 -19402632.53109  19747716.12609  19747717.36909
 -21286171.36308 -16586615.29008  20554237.42208  20554239.91808
 93 04 15 02 18 00.0000000  0  5 20 16 13 24 12
 -12324334.41508  -9603371.16408  22140363.41208  22140365.45008
 -11055468.44908  -8614622.99308  22521515.91308  22521519.21408
  -5097448.04508  -3972009.47708  22303949.97808  22303952.30908
 -24808287.28009 -19331096.18109  19765186.00109  19765187.24209
 -21176723.95308 -16501331.65408  20575064.61208  20575067.12708
 93 04 15 02 20 00.0000000  0  5 20 16 13 24 12
 -12706597.96008  -9901238.72108  22067620.98508  22067622.96408
 -11424346.33708  -8902059.93808  22451320.53208  22451323.69508
  -4858258.04908  -3785627.69508  22349466.38008  22349468.66608
 -24709222.25609 -19253902.63209  19784037.44109  19784038.65809
 -21057882.40908 -16408727.92008  20597679.46508  20597681.97408
 93 04 15 02 22 00.0000000  0  5 20 16 13 24 12
 -13086659.56508 -10197390.46908  21995297.50908  21995299.48308
 -11791608.52208  -9188237.90308  22381432.60308  22381435.64708
  -4620059.29008  -3600018.30308  22394794.12208  22394796.45808
 -24603638.89309 -19171629.86609  19804129.25509  19804130.49709
 -20929903.82808 -16309004.43308  20622033.04108  20622035.56908
 93 04 15 02 24 00.0000000  0  5 20 16 13 24 12
 -13464246.70308 -10491614.05408  21923444.94208  21923446.90508
 -12156697.21808  -9472722.23808  22311958.32308  22311961.20908
  -4382760.13508  -3415109.89908  22439950.63608  22439953.02708
 -24491394.87809 -19084166.98109  19825488.57209  19825489.80209
 -20792757.58608 -16202137.30408  20648131.16208  20648133.69808
 93 04 15 02 26 00.0000000  0  5 20 16 13 24 12
 -13839246.59108 -10783821.59708  21852084.73508  21852086.61908
 -12519340.46408  -9755301.04608  22242949.31808  22242952.12608
  -4146432.12108  -3230958.22408  22484922.35308  22484924.82508
 -24372569.01709 -18991575.38009  19848100.37609  19848101.58809
 -20646580.38808 -16088233.06308  20675947.78908  20675950.35608
 93 04 15 02 28 00.0000000  0  5 20 16 13 24 12
 -14211637.11808 -11073995.87808  21781221.02008  21781222.89408
 -12879897.49308 -10036254.25508  22174337.35808  22174340.11908
  -3911232.35008  -3047685.68708  22529679.38308  22529681.72908
 -24247609.29409 -18894204.14709  19871879.36109  19871880.59609
 -20491607.20708 -15967474.81108  20705438.29008  20705440.82008
 93 04 15 02 30 00.0000000  0  5 20 16 13 24 12
 -14581071.66108 -11361866.79108  21710919.85808  21710921.66308
 -13238099.76408 -10315372.60408  22106173.46308  22106176.20208
  -3676989.01408  -2865158.40807  22574254.40408  22574256.79007
 -24116444.60909 -18791997.87608  19896839.16509  19896840.39408
 -20327755.63008 -15839798.33008  20736618.25808  20736620.80608
 93 04 15 02 32 00.0000000  0  5 20 16 13 24 12
 -14947363.18708 -11647288.59408  21641216.78408  21641218.56108
 -13593201.38208 -10592074.85908  22038599.66508  22038602.33208
  -3443697.14808  -2683372.54407  22618648.38708  22618650.82307
 -23979192.49009 -18685048.14908  19922957.34609  19922958.56508
 -20155114.48808 -15705272.84008  20769470.82108  20769473.39208
 93 04 15 02 34 00.0000000  0  5 20 16 13 24 12
 -15310385.49508 -11930162.97508  21572135.82208  21572137.55608
 -13945189.51908 -10866351.04008  21971618.29108  21971620.89108
  -3211404.48008  -2502365.28707  22662852.18908  22662854.55807
 -23835728.46509 -18573257.98308  19950257.64309  19950258.85408
 -19973835.26008 -15564016.38408  20803967.17708  20803969.75908
 93 04 15 02 36 00.0000000  0  6 20 16 13 03 24 12
 -15669928.52508 -12210326.22808  21503716.94208  21503718.69408
 -14293999.10308 -11138150.43808  21905241.84808  21905244.39608
  -2980073.98208  -2322107.77207  22706872.93908  22706875.34007
        -0.30616         0.17016  24958713.00816  24958719.46916
 -23686359.16109 -18456866.30308  19978681.66809  19978682.88308
 -19783995.61508 -15416089.47108  20840092.53308  20840095.13308
 93 04 15 02 38 00.0000000  0  6 20 16 13 03 24 12
 -16025937.06308 -12487735.35008  21435970.67108  21435972.35008
 -14639557.32908 -11407416.32208  21839484.12708  21839486.56208
  -2749822.92808  -2142691.38907  22750688.27908  22750690.66307
   -266444.09306   -207617.91706  24908010.11706  24908016.42006
 -23531350.91509 -18336080.64208  20008178.73809  20008179.94708
 -19585835.43708 -15261679.02008  20877801.20108  20877803.83308
 93 04 15 02 40 00.0000000  0  6 20 16 13 03 24 12
 -16378159.77308 -12762194.49108  21368944.81908  21368946.48108
 -14981489.64308 -11673856.83108  21774416.39108  21774418.72208
  -2520574.27208  -1964056.10607  22794312.83508  22794315.34807
   -531620.47207   -414248.44607  24857548.51907  24857554.46407
 -23370468.18709 -18210717.46008  20038793.69809  20038794.90208
 -19379405.50408 -15100824.60308  20917083.57408  20917086.23608
 93 04 15 02 42 00.0000000  0  6 20 16 13 03 24 12
 -16726449.58908 -13033589.04908  21302667.39808  21302669.05408
 -15319295.51208 -11937081.94108  21710133.90808  21710136.17508
  -2292346.98808  -1786216.72008  22837743.10408  22837745.56608
   -795586.16007   -619935.59807  24807317.29707  24807322.97807
 -23204198.66009 -18081156.76608  20070433.73009  20070434.91008
 -19164865.97008 -14933651.01608  20957909.14308  20957911.82108
 93 04 15 02 44 00.0000000  0  6 20 12 16 13 03 24
 -17070657.02908 -13301802.53008  21237166.82408  21237168.40508
 -18942380.35008 -14760285.67908  21000246.81708  21000249.47708
 -15652763.73708 -12196927.07608  21646676.78408  21646679.05708
  -2065160.28508  -1609188.18707  22880975.37708  22880977.82807
  -1058394.12807   -824720.63507  24757306.44407  24757311.68707
 -23032620.06609 -17947459.13308  20103084.01809  20103085.19108
 93 04 15 02 46 00.0000000  0  6 20 12 16 13 03 24
 -17410515.07608 -13566626.86008  21172493.90308  21172495.47408
 -18712001.40608 -14580769.70208  21044086.52808  21044089.21908
 -15982287.58008 -12453698.68508  21583970.32208  21583972.56508
  -1838912.88808  -1432891.59707  22924028.89308  22924031.35807
  -1319985.73107  -1028557.78807  24707526.96507  24707532.01707
 -22855499.28609 -17809442.91608  20136788.93909  20136790.11308
 93 04 15 02 48 00.0000000  0  6 20 12 16 13 03 24
 -17745834.34408 -13827914.46308  21108684.66508  21108686.19008
 -18473864.02008 -14395208.18608  21089402.62908  21089405.34208
 -16307593.64208 -12707183.72208  21522066.50208  21522068.68408
  -1613580.19708  -1257307.75107  22966908.31508  22966910.79707
  -1580378.53507  -1231460.78307  24657975.56807  24657980.36007
 -22673442.74209 -17667580.64408  20171433.13109  20171434.30908
 93 04 15 02 50 00.0000000  0  6 20 12 16 13 03 24
 -18076269.25708 -14085396.08108  21045804.89008  21045806.37108
 -18227949.96408 -14203586.93208  21136198.60008  21136201.33408
 -16627836.11908 -12956723.10908  21461126.21308  21461128.34208
  -1388975.73408  -1082291.35007  23009649.20508  23009651.64807
  -1839433.81607  -1433321.57007  24608678.48207  24608683.49507
 -22485856.09909 -17521409.20508  20207129.69009  20207130.82708
 93 04 15 02 52 00.0000000  0  6 12 16 13 03 24 20
 -17974526.42308 -14006114.13208  21184423.54308  21184426.29308
 -16942948.54808 -13202265.04108  21401162.23208  21401164.26808
  -1165191.69408   -907914.21107  23052233.90208  23052236.31707
  -2097295.40307  -1634252.24107  24559608.55607  24559613.75207
 -22293314.19409 -17371376.53108  20243769.22409  20243770.37208
 -18401752.28308 -14339019.10908  20983867.45308  20983868.92108
 93 04 15 02 54 00.0000000  0  6 12 16 13 03 20 24
 -17713872.40508 -13803007.19708  21234024.43308  21234027.22608
 -17253304.96308 -13444100.99108  21342103.15508  21342105.16108
   -942326.10908   -734252.72007  23094643.86408  23094646.33407
  -2354114.87507  -1834370.92907  24510737.01907  24510742.35307
 -18722223.18608 -14588736.61908  20922883.79208  20922885.27508
 -22096004.46408 -17217628.66608  20281315.95108  20281317.10208
 93 04 15 02 56 00.0000000  0  6 12 16 13 03 20 24
 -17446035.79808 -13594303.44608  21284992.13508  21284994.93208
 -17558272.07708 -13681737.50308  21284069.65608  21284071.60608
   -720237.20908   -561196.41807  23136905.95508  23136908.33207
  -2609809.66307  -2033613.30607  24462079.55007  24462084.99407
 -19037388.75508 -14834320.10908  20862909.73208  20862911.18308
 -21894254.21508 -17060420.65108  20319707.72108  20319708.82408
 93 04 15 02 58 00.0000000  0  6 12 16 13 03 20 24
 -17171274.78608 -13380204.06308  21337277.48108  21337280.33208
 -17857581.58808 -13914965.50608  21227112.78608  21227114.69308
   -498988.16308   -388794.53507  23179008.20008  23179010.71007
  -2864504.08207  -2232076.21007  24413612.75807  24413617.98707
 -19347161.97408 -15075701.75908  20803961.78508  20803963.20708
 -21687883.44908 -16899612.24208  20358978.75808  20358979.87508
 93 04 15 03 00 00.0000000  0  6 12 16 13 03 20 24
 -16889834.52408 -13160900.07008  21390833.86808  21390836.71708
 -18151100.12308 -14143681.06808  21171257.98708  21171259.82608
   -278626.15708   -217083.84507  23220941.62608  23220944.18007
  -3118306.90908  -2429844.38908  24365315.64408  24365320.56608
 -19651438.48908 -15312800.26208  20746059.84708  20746061.25408
 -21476666.25408 -16735027.40708  20399172.05408  20399173.17308
 93 04 15 03 02 00.0000000  0  6 12 16 13 03 20 24
 -16601834.70508 -12936484.73508  21445638.48208  21445641.36008
 -18438794.52408 -14367858.34808  21116511.34908  21116513.16608
    -59067.47408    -45999.12207  23262722.21308  23262724.71207
  -3371198.32108  -2626902.39608  24317191.93608  24317196.67308
 -19949988.43608 -15545436.49208  20689247.60308  20689248.98908
 -21261472.91908 -16567344.28508  20440121.98208  20440123.07708
 93 04 15 03 04 00.0000000  0  6 12 16 13 03 20 24
 -16307511.54008 -12707142.11108  21501646.39608  21501649.26008
 -18720713.81308 -14587535.55008  21062863.85008  21062865.63008
    159663.53808    124440.65707  23304345.33708  23304347.78207
  -3623271.88608  -2823323.09808  24269223.73908  24269228.30708
 -20242694.78108 -15773519.25608  20633547.36508  20633548.71308
 -21042329.06808 -16396582.84208  20481823.67808  20481824.77608
 93 04 15 03 06 00.0000000  0  6 12 13 03 20 24 16
 -16007345.18808 -12473246.34608  21558766.22008  21558769.11808
    377302.69508    294029.63007  23345760.70908  23345763.10607
  -3874862.77708  -3019367.67208  24221347.32108  24221351.77208
 -20529680.99408 -15997144.77108  20578935.61008  20578936.94208
 -20819283.24208 -16222780.89508  20524267.85208  20524268.96508
 -18996878.98608 -14802729.04408  21010311.22508  21010312.99008
 93 04 15 03 08 00.0000000  0  6 12 13 03 20 24 16
 -15701588.95708 -12234994.81708  21616949.77108  21616952.67108
    593816.26808    462741.52107  23386961.83508  23386964.32407
  -4126077.58108  -3215119.15208  24173542.33408  24173546.90008
 -20810842.17908 -16216231.28608  20525432.31508  20525433.61108
 -20592657.85408 -16046189.67508  20567393.23808  20567394.32508
 -19266813.12808 -15013067.20108  20958944.37808  20958946.09808
 93 04 15 03 10 00.0000000  0  6 12 13 03 20 24 16
 -15390358.47008 -11992477.63008  21676175.03008  21676177.95808
    809313.16108    630661.17107  23427969.51308  23427971.97007
  -4376881.87108  -3410550.75308  24125815.53208  24125820.18908
 -21085937.79708 -16430591.40008  20473083.28508  20473084.54608
 -20363008.35808 -15867241.99808  20611094.06008  20611095.15508
 -19530290.93508 -15218374.45308  20908806.11108  20908807.83008
 93 04 15 03 12 00.0000000  0  6 12 03 13 20 24 16
 -15073873.07108 -11745865.70408  21736400.26408  21736403.19708
  -4627342.66908  -3605714.72308  24078154.25108  24078158.89108
   1023804.37108    797797.16207  23468785.82508  23468788.33907
 -21354827.93308 -16640116.09108  20421915.13008  20421916.35608
 -20129813.00208 -15685531.30308  20655469.64208  20655470.73608
 -19787881.74708 -15419094.44008  20859788.08908  20859789.76708
 93 04 15 03 14 00.0000000  0  6 12 03 13 20 24 16
 -14752276.16308 -11495270.78208  21797598.15108  21797601.14808
  -4877449.58508  -3800602.95808  24030560.41608  24030564.90508
   1237379.28608    964219.15307  23509427.80308  23509430.30007
 -21617296.00408 -16844636.58408  20371969.04508  20371970.27208
 -19893192.38408 -15501151.57308  20700497.05408  20700498.13708
 -20039012.06708 -15614780.28408  20811999.49808  20812001.13308
 93 04 15 03 16 00.0000000  0  6 12 03 13 20 24 16
 -14425828.94008 -11240896.39208  21859719.06208  21859722.06508
  -5127307.91008  -3995297.47508  23983013.77008  23983018.21108
   1450011.93708   1129906.91807  23549890.49108  23549892.93007
 -21873244.47408 -17044076.87608  20323263.60708  20323264.83108
 -19653801.05708 -15314612.85108  20746051.69008  20746052.77308
 -20283178.39708 -15805039.63108  20765536.05608  20765537.67208
 93 04 15 03 18 00.0000000  0  6 12 03 13 20 24 16
 -14094748.17608 -10982911.46108  21922721.66508  21922724.69508
  -5376976.33908  -4189843.99508  23935503.26008  23935507.57208
   1661726.24708   1294879.07107  23590178.41208  23590180.77407
 -22122530.06708 -17238325.30508  20275826.07208  20275827.26708
 -19411428.42408 -15125751.03608  20792173.61808  20792174.70908
 -20520305.36308 -15989813.75008  20720412.21108  20720413.79008
 93 04 15 03 20 00.0000000  0  7 12 03 17 13 20 24 16
 -13758932.18808 -10721236.76208  21986625.39608  21986628.42608
  -5626193.14008  -4384038.59308  23888078.57908  23888082.86208
        -0.70717        -0.17416  24455765.03517  24455770.42416
   1872866.51708   1459403.88907  23630357.10208  23630359.58707
 -22364692.44708 -17427023.17008  20229744.03608  20229745.21208
 -19166047.66808 -14934545.23408  20838868.01508  20838869.09108
 -20750115.30208 -16168886.27908  20676680.73808  20676682.24708
 93 04 15 03 22 00.0000000  0  7 12 03 17 13 20 24 16
 -13418425.67708 -10455907.10508  22051421.69908  22051424.75208
  -5874841.92008  -4577790.55808  23840761.98508  23840766.11308
   -402430.59607   -313580.78606  24379184.37907  24379189.42006
   2083635.23208   1623639.17607  23670465.13008  23670467.61007
 -22599420.25408 -17609927.86808  20185076.75608  20185077.89708
 -18917712.71508 -14741037.46608  20886124.60308  20886125.67008
 -20972718.92508 -16342343.49808  20634320.57708  20634322.04808
 93 04 15 03 24 00.0000000  0  7 12 03 17 13 20 24 16
 -13073575.20208 -10187192.54608  22117044.64508  22117047.68508
  -6123105.88308  -4771242.66608  23793518.56608  23793522.73308
   -802696.52907   -625475.45607  24303015.67207  24303020.61207
   2293936.66608   1787510.35807  23710484.20808  23710486.72907
 -22826704.95608 -17787032.75808  20141825.84708  20141826.99408
 -18666618.10708 -14545379.31908  20933906.26408  20933907.32708
 -21187522.00308 -16509722.37908  20593444.83608  20593446.28908
 93 04 15 03 26 00.0000000  0  7 24 12 03 17 13 20 16
 -18413082.81308 -14347819.34408  20982152.42708  20982153.49008
 -12724740.40308  -9915373.29908  22183425.75908  22183428.81208
  -6371180.14308  -4964546.92208  23746311.36408  23746315.36308
  -1200829.76707   -935708.41507  24227252.95107  24227257.74107
   2503660.11308   1950931.16807  23750393.27508  23750395.77607
 -23046551.95908 -17958342.04108  20099990.31208  20099991.43308
 -21394691.19008 -16671152.77808  20554021.69208  20554023.13008
 93 04 15 03 28 00.0000000  0  7 24 12 03 17 13 20 16
 -18156953.45008 -14148238.01808  21030892.22708  21030893.28608
 -12372334.86708  -9640771.67308  22250486.39108  22250489.45208
  -6619312.48308  -5157896.39408  23699093.13108  23699096.97008
  -1596968.36707  -1244387.24907  24151869.81207  24151874.43507
   2712647.73008   2113778.58407  23790162.39808  23790164.91307
 -23259024.98308 -18123905.36208  20059557.98408  20059559.08208
 -21594151.53708 -16826576.29208  20516065.57508  20516066.95508
 93 04 15 03 30 00.0000000  0  7 24 12 03 17 13 20 16
 -17898593.31208 -13946918.42208  21080056.49708  21080057.53008
 -12016446.08708  -9363455.84008  22318209.83308  22318212.91208
  -6867422.79508  -5351228.67008  23651879.06808  23651882.76408
  -1991095.43807  -1551498.62907  24076869.57107  24076874.03607
   2921065.32508   2276181.82707  23829822.96108  23829825.53407
 -23463862.24508 -18283518.72608  20020578.68808  20020579.74008
 -21786153.94308 -16976188.42908  20479528.60608  20479529.95408
 93 04 15 03 32 00.0000000  0  7 24 12 03 17 13 20 16
 -17638305.01908 -13744096.36708  21129587.72708  21129588.74908
 -11657200.84608  -9083524.57908  22386571.96808  22386575.13008
  -7115470.10708  -5544511.87408  23604676.94108  23604680.61708
  -2383004.52407  -1856881.62407  24002291.22407  24002295.51107
   3129043.75708   2438242.86407  23869400.00708  23869402.63407
 -23660845.18508 -18437011.83508  19983094.00608  19983095.05808
 -21970140.03508 -17119554.09108  20444517.15408  20444518.44408
 93 04 15 03 34 00.0000000  0  7 24 12 03 17 13 20 16
 -17375955.76708 -13539668.36608  21179511.15708  21179512.16908
 -11294872.99208  -8801191.27708  22455520.71408  22455523.91508
  -7363558.40208  -5737827.07008  23557466.97208  23557470.60008
  -2772610.71208  -2160470.20307  23928151.24208  23928155.33607
   3336567.05608   2599949.26807  23908890.45808  23908893.00007
 -23849906.56408 -18584332.30608  19947116.75208  19947117.77508
 -22145534.35208 -17256224.87208  20411140.62308  20411141.87508
 93 04 15 03 36 00.0000000  0  7 24 12 03 17 13 20 16
 -17111823.06308 -13333850.66608  21229773.89208  21229774.92608
 -10929896.00608  -8516793.69708  22524973.58908  22524976.81208
  -7611950.10808  -5931378.68508  23510199.20208  23510202.88108
  -3160069.47608  -2462385.57708  23854419.94808  23854423.88208
   3543463.77108   2761167.37707  23948261.68608  23948264.21207
 -24031140.15708 -18725553.21608  19912629.09408  19912630.11508
 -22313264.92708 -17386923.91808  20379222.49008  20379223.69808
 93 04 15 03 38 00.0000000  0  7 24 12 03 17 20 16 13
 -16846175.60708 -13126852.63908  21280324.93208  21280325.98308
 -10562489.14408  -8230502.69808  22594888.81708  22594892.07908
  -7860693.63008  -6125204.44808  23462864.62108  23462868.13908
  -3545085.01308  -2762397.20708  23781153.56308  23781157.37308
 -24204431.50708 -18860585.37408  19879652.79408  19879653.78708
 -22473106.63008 -17511475.78708  20348805.41508  20348806.63308
   3749775.38608   2921929.53407  23987521.57708  23987524.15407
 93 04 15 03 40 00.0000000  0  7 24 03 12 17 20 16 13
 -16578986.19908 -12918653.09308  21331169.36108  21331170.38008
  -8109731.91608  -6319259.90508  23415473.98608  23415477.38608
 -10192768.75908  -7942408.94708  22665244.30608  22665247.61408
  -3928160.40408  -3060897.07408  23708256.41208  23708260.17708
 -24369568.35109 -18989263.38008  19848228.26509  19848229.22808
 -22624700.19408 -17629600.53408  20319958.13808  20319959.31208
   3955648.84708   3082350.26407  24026698.08508  24026700.66007
 93 04 15 03 42 00.0000000  0  7 24 03 12 20 16 17 13
 -16310177.55608 -12709191.80808  21382321.93908  21382322.95608
  -8359133.45208  -6513598.38708  23368014.24108  23368017.39408
  -9820976.75808  -7652700.96508  22735994.02408  22735997.33308
 -24526467.60309 -19111522.48208  19818371.28309  19818372.23108
 -22768055.28908 -17741305.69508  20292678.53708  20292679.66808
  -4308942.64108  -3357610.09608  23635795.58208  23635799.23108
   4161103.98008   3242445.03207  24065794.96108  24065797.70107
 93 04 15 03 44 00.0000000  0  7 24 03 12 20 16 17 13
 -16040391.72408 -12498969.08008  21433660.44608  21433661.48408
  -8608864.07408  -6708193.26708  23320491.81408  23320494.85608
  -9447253.44208  -7361488.05008  22807111.30608  22807114.58408
 -24674950.51309 -19227223.39608  19790115.86809  19790116.80408
 -22902553.20908 -17846109.15708  20267084.33008  20267085.40808
  -4687076.39208  -3652259.36608  23563838.74608  23563842.36408
   4366264.48208   3402310.24607  24104835.77608  24104838.49107
 93 04 15 03 46 00.0000000  0  7 24 03 20 12 16 17 13
 -15769611.09508 -12287971.19208  21485188.30808  21485189.34308
  -8859156.06308  -6903225.58008  23272862.48308  23272865.52308
 -24815110.11409 -19336438.61208  19763444.34909  19763445.26608
  -9072006.26608  -7069087.71308  22878518.52308  22878521.76108
 -23028920.24608 -17944576.87508  20243037.41008  20243038.44408
  -5062861.18608  -3945078.27908  23492328.84408  23492332.42508
   4570984.24607   3561832.04907  24143792.73307  24143795.45307
 93 04 15 03 48 00.0000000  0  7 24 03 12 20 16 17 13
 -15497686.05308 -12076081.55708  21536933.92508  21536934.96308
  -9110117.51608  -7098779.59208  23225105.80808  23225108.81808
  -8695518.96508  -6775721.05008  22950161.76708  22950164.95508
 -24946922.20209 -19439149.27708  19738361.29109  19738362.19908
 -23146901.46209 -18036510.19708  20220586.25009  20220587.28208
  -5436084.10008  -4235900.94008  23421306.53808  23421310.01308
   4775243.64107   3720995.14106  24182661.97607  24182664.88906
 93 04 15 03 50 00.0000000  0  7 24 20 03 12 16 17 13
 -15224999.15108 -11863598.25808  21588824.50108  21588825.52208
 -25070312.31609 -19535297.37208  19714880.89609  19714881.81008
  -9361800.34308  -7294895.74808  23177211.81208  23177214.84408
  -8318019.45308  -6481565.65408  23021997.56008  23022000.80308
 -23256208.61809 -18121684.51908  20199785.66009  20199786.69108
  -5807124.22808  -4525022.69608  23350699.60108  23350702.91908
   4979079.01107   3879827.82506  24221450.70907  24221453.57106
 93 04 15 03 52 00.0000000  0  7 24 03 12 20 16 17 13
 -14953744.53708 -11652231.03208  21640442.54008  21640443.56408
  -9616352.66708  -7493247.88708  23128771.91608  23128774.80408
  -7941833.08608  -6188433.50108  23093583.48208  23093586.69208
 -25187309.20909 -19626463.74108  19692617.09409  19692617.98408
 -23359461.79209 -18202141.45608  20180137.21609  20180138.23008
  -6177659.15808  -4813750.72608  23280188.76708  23280191.94008
   5180426.18307   4036721.64306  24259765.88307  24259768.67606
 93 04 15 03 54 00.0000000  0  6 24 03 12 17 20 16
 -14686132.21808 -11443701.96208  21691367.50408  21691368.49708
  -9875905.38708  -7695496.42608  23079380.49408  23079383.19308
  -7569269.48608  -5898124.28808  23164480.02608  23164483.26608
  -6549995.82108  -5103882.66608  23209335.14708  23209338.08108
 -25299933.36009 -19714222.77808  19671185.38709  19671186.25708
 -23458512.52308 -18279323.76308  20161288.42408  20161289.39208
 93 04 15 03 56 00.0000000  0  6 24 03 12 17 20 16
 -14420450.46908 -11236677.24008  21741925.06808  21741926.09608
 -10138665.18708  -7900244.00708  23029378.71608  23029381.32608
  -7198712.43308  -5609378.62708  23234994.68808  23234997.99008
  -6922295.94808  -5393986.10508  23138488.42708  23138491.16708
 -25406286.54509 -19797095.36008  19650947.01009  19650947.87608
 -23551166.05209 -18351521.24408  20143656.99109  20143657.95108
 93 04 15 03 58 00.0000000  0  6 24 03 12 17 20 16
 -14154486.64808 -11029432.73508  21792536.28508  21792537.29908
 -10402148.76708  -8105555.61408  22979239.29608  22979241.78108
  -6827858.03308  -5320401.28908  23305565.89308  23305569.32408
  -7291947.48908  -5682025.70908  23068145.67608  23068148.23808
 -25503788.91509 -19873071.21108  19632392.88909  19632393.75908
 -23634910.66009 -18416776.70408  20127720.82709  20127721.75108
 93 04 15 04 00 00.0000000  0  6 24 03 12 17 20 16
 -13888038.51508 -10821810.84508  21843239.71608  21843240.72208
 -10666458.74108  -8311511.19508  22928942.51208  22928944.99508
  -6456988.22308  -5031411.94408  23376140.12508  23376143.62108
  -7658846.77008  -5967920.73308  22998326.74308  22998329.14208
 -25592456.10509 -19942162.50808  19615520.07809  19615520.93508
 -23709895.08109 -18475206.04508  20113451.72009  20113452.62008
 93 04 15 04 02 00.0000000  0  6 24 03 12 20 16 17
 -13621437.14108 -10614069.54408  21893972.30208  21893973.31708
 -10931899.05008  -8518347.55508  22878430.69508  22878433.18708
  -6086586.31308  -4742787.18908  23446625.30608  23446628.86108
 -25672510.51309 -20004542.55508  19600286.21709  19600287.07708
 -23776419.04809 -18527042.83508  20100792.57909  20100793.47208
  -8023308.93408  -6251916.74708  22928971.52008  22928973.88508
 93 04 15 04 04 00.0000000  0  7 24 03 20 12 16 17 25
 -13355045.82008 -10406491.92708  21944664.90708  21944665.94908
 -11198445.81508  -8726046.09508  22827708.35608  22827710.74108
 -25743855.81109 -20060136.28408  19586709.63809  19586710.49008
  -5716809.76008  -4454649.73008  23516991.53208  23516995.09208
 -23834410.60509 -18572230.99908  20089757.10109  20089757.96208
  -8385123.87708  -6533850.04908  22860120.07908  22860122.37508
        -0.18817        -0.86817  24193428.30917  24193430.70517
 93 04 15 04 06 00.0000000  0  7 24 03 20 12 16 17 25
 -13089362.08908 -10199465.68808  21995222.84008  21995223.89408
 -11466700.74908  -8935075.68308  22776660.98408  22776663.29908
 -25807028.67909 -20109361.88708  19574688.22909  19574689.08108
  -5348439.40008  -4167608.00108  23587090.16308  23587093.79408
 -23884441.45209 -18611216.02108  20080236.46209  20080237.33608
  -8744936.05208  -6814222.82308  22791649.70208  22791652.07608
    -72536.23007    -56522.50806  24179625.21407  24179627.36006
 93 04 15 04 08 00.0000000  0  7 03 24 20 12 16 17 25
 -11736895.52008  -9145616.83108  22725244.47208  22725246.70808
 -12824614.36008  -9993168.80808  22045602.68108  22045603.77608
 -25862205.22509 -20152356.59408  19564188.48709  19564189.31808
  -4981888.80008  -3881984.28308  23656842.50608  23656846.19408
 -23926595.07309 -18644062.95308  20072214.88209  20072215.73008
  -9103411.24508  -7093553.80608  22723433.86108  22723436.18808
   -138875.78807   -108215.77006  24167001.39307  24167003.50106
 93 04 15 04 10 00.0000000  0  7 03 24 20 12 16 17 25
 -12008764.70808  -9357462.77508  22673509.34508  22673511.53208
 -12560832.83808  -9787624.82308  22095798.70308  22095799.78808
 -25909075.24509 -20188878.68808  19555269.41209  19555270.26008
  -4617073.56808  -3597712.80808  23726264.68908  23726268.35108
 -23960468.51209 -18670457.79608  20065768.93509  20065769.78108
  -9459564.27408  -7371075.32908  22655659.92708  22655662.10908
   -198845.77707   -154945.75306  24155589.70007  24155591.45006
 93 04 15 04 12 00.0000000  0  7 03 20 24 12 16 17 25
 -12282278.83308  -9570590.53008  22621461.16408  22621463.37708
 -25947570.43809 -20218874.95008  19547944.01509  19547944.86108
 -12297636.91408  -9582537.14308  22145883.26608  22145884.34808
  -4254146.83008  -3314912.89508  23795327.50808  23795331.21508
 -23986337.68409 -18690615.55008  20060846.15009  20060846.97308
  -9813287.99808  -7646703.88908  22588348.33108  22588350.46208
   -252609.75307   -196839.84706  24145358.86207  24145360.69906
 93 04 15 04 14 00.0000000  0  7 20 03 24 12 16 17 25
 -25977837.08509 -20242459.35608  19542184.45309  19542185.28808
 -12557613.12208  -9785136.60508  22569066.65208  22569068.84108
 -12035809.30108  -9378515.66808  22195707.43608  22195708.47408
  -3893465.67008  -3033862.80008  23863963.02308  23863966.68808
 -24004188.84109 -18704525.50508  20057449.16409  20057449.98808
 -10165073.87308  -7920822.42008  22521405.45508  22521407.44808
   -300130.33607   -233868.96506  24136316.03607  24136318.15306
 93 04 15 04 16 00.0000000  0  7 20 03 24 12 16 17 25
 -26000455.90609 -20260084.42208  19537880.23809  19537881.08908
 -12835368.24708 -10001569.03708  22516211.50408  22516213.66308
 -11775785.62808  -9175899.86308  22245188.32608  22245189.37808
  -3535813.33908  -2755172.82908  23932022.14408  23932025.84208
 -24014979.81009 -18712934.02208  20055395.67909  20055396.48908
 -10515564.35508  -8193931.53208  22454709.12408  22454710.88208
   -342343.63707   -266762.54607  24128283.02007  24128285.31207
 93 04 15 04 18 00.0000000  0  8 20 03 24 12 16 17 25 26
 -26014509.25009 -20271035.10008  19535205.98209  19535206.84308
 -13114637.57408 -10219181.39908  22463068.26908  22463070.38508
 -11516322.31108  -8973720.69408  22294562.55008  22294563.66308
  -3180466.16508  -2478279.07008  23999642.58508  23999646.32908
 -24017199.89609 -18714663.92508  20054973.17909  20054973.98608
 -10863510.89908  -8465058.37508  22388496.86108  22388498.50108
   -378422.04507   -294875.69107  24121417.50307  24121420.00207
        -0.64817        -0.18817  24125755.56117  24125757.44317
 93 04 15 04 20 00.0000000  0  8 20 03 24 12 16 17 25 26
 -26019312.41209 -20274777.84108  19534291.97709  19534292.83808
 -13394738.06608 -10437441.39708  22409766.87408  22409768.95508
 -11257099.91008  -8771729.24108  22343890.91708  22343892.02008
  -2826924.85108  -2202792.47107  24066919.35908  24066923.15807
 -24010398.82109 -18709364.34808  20056267.35209  20056268.14708
 -11208334.27208  -8733751.62808  22322878.90808  22322880.49408
   -407306.19007   -317382.82807  24115921.00907  24115923.47707
   -324410.28307   -252786.76507  24064022.32307  24064024.18207
 93 04 15 04 22 00.0000000  0  8 20 03 24 12 16 17 25 26
 -26015797.04609 -20272038.61208  19534960.95209  19534961.80408
 -13676592.45308 -10657068.08608  22356131.67408  22356133.76708
 -10999245.82508  -8570803.99908  22392958.95208  22392960.04408
  -2476295.89508  -1929575.24307  24133641.95808  24133645.72707
 -23995828.66109 -18698010.94108  20059039.92809  20059040.74908
 -11550786.85108  -9000597.54908  22257712.13108  22257713.72008
   -430629.72107   -335557.07006  24111482.74507  24111485.30606
   -652440.88607   -508394.82907  24001599.88207  24001601.76007
 93 04 15 04 24 00.0000000  0  8 20 03 24 12 16 17 25 26
 -26004250.88709 -20263041.63008  19537158.12309  19537158.97908
 -13960471.88208 -10878272.73608  22302111.13708  22302113.14508
 -10742995.19508  -8371128.19608  22441721.82508  22441722.92008
  -2129034.48907  -1658982.09307  24199723.70507  24199727.58407
 -23973761.96409 -18680816.08208  20063239.07109  20063239.87708
 -11891286.52208  -9265921.76108  22192917.00308  22192918.61608
   -448329.37707   -349349.04507  24108114.87007  24108117.18007
   -983926.23107   -766694.88607  23938520.30207  23938522.02107
 93 04 15 04 26 00.0000000  0  8 20 03 24 12 16 17 25 26
 -25983952.64609 -20247224.84808  19541020.77409  19541021.63408
 -14245627.34708 -11100471.66908  22247847.75808  22247849.71508
 -10487762.02208  -8172245.20908  22490291.07508  22490292.15708
  -1784576.21907  -1390573.23407  24265272.15907  24265276.05807
 -23943064.87809 -18656896.24908  20069080.44309  20069081.25908
 -12229347.96708  -9529346.06908  22128585.91608  22128587.49508
   -459535.19607   -358080.93306  24105982.46607  24105984.66206
  -1318297.23207  -1027243.50407  23874891.41407  23874893.08807
 93 04 15 04 28 00.0000000  0  8 20 03 24 12 16 17 25 26
 -25954770.24509 -20224485.34708  19546574.01209  19546574.87408
 -14531891.91308 -11323534.81608  22193373.28508  22193375.20008
 -10233433.28008  -7974066.98108  22538688.18308  22538689.31208
  -1442938.86707  -1124362.53707  24330283.72507  24330287.68307
 -23904157.62309 -18626578.88508  20076484.27509  20076485.09508
 -12564271.54408  -9790325.30408  22064851.93408  22064853.48308
   -464581.48007   -362013.20206  24105022.41507  24105024.42706
  -1655031.97908  -1289634.01607  23810812.90108  23810814.35807
 93 04 15 04 30 00.0000000  0  7 03 24 20 12 16 17 26
 -14819343.01608 -11547522.53508  22138673.09408  22138674.88608
  -9979630.59708  -7776298.67208  22586985.29308  22586986.37008
 -25916827.17709 -20194919.35308  19553794.36709  19553795.23608
  -1104385.17807   -860554.76906  24394708.56407  24394712.58406
 -23856826.22609 -18589697.26108  20085491.09909  20085491.91008
 -12896224.98008 -10048990.13908  22001683.19308  22001684.67208
  -1994025.00908  -1553784.26108  23746304.66108  23746305.87308
 93 04 15 04 32 00.0000000  0  7 03 24 20 12 16 17 26
 -15107867.07508 -11772346.28608  22083768.63008  22083770.40808
  -9726641.86508  -7579164.60308  22635127.41508  22635128.52608
 -25870065.43509 -20158481.66408  19562692.84509  19562693.73608
   -768987.25607   -599206.10106  24458532.99507  24458537.06406
 -23800919.35708 -18546133.45108  20096129.83308  20096130.62708
 -13225340.10808 -10305443.32508  21939054.53908  21939055.94708
  -2335271.82308  -1819690.73208  23681367.41508  23681368.67708
 93 04 15 04 34 00.0000000  0  6 03 24 17 26 20 16
 -15397462.29908 -11998004.73508  22028660.39608  22028662.12008
  -9474695.65208  -7382842.87708  22683071.20608  22683072.34408
 -13551503.94408 -10559596.82308  21876987.50508  21876988.84708
  -2678410.63308  -2087071.51308  23616070.11808  23616071.41008
 -25814547.53809 -20115220.99608  19573257.56909  19573258.46208
 -23736968.86608 -18496301.88208  20108299.17008  20108299.95508
 93 04 15 04 36 00.0000000  0  6 03 24 17 26 20 16
 -15687981.00008 -12224382.80508  21973376.41008  21973378.11508
  -9223696.56708  -7187259.17608  22730834.74608  22730835.86408
 -13874605.18308 -10811363.88808  21815503.30308  21815504.65008
  -3023153.38508  -2355702.14308  23550467.50508  23550469.04208
 -25750199.59209 -20065079.76708  19585502.58909  19585503.49308
 -23664535.83308 -18439860.54008  20122082.69908  20122083.48708
 93 04 15 04 38 00.0000000  0  6 03 24 17 26 20 16
 -15979376.71608 -12451444.25708  21917925.50608  21917927.16808
  -8973578.02308  -6992361.61408  22778430.73608  22778431.84908
 -14194511.11508 -11060641.12808  21754627.10908  21754628.42408
  -3369560.65808  -2625629.80608  23484548.28608  23484549.88408
 -25677059.18709 -20008087.27608  19599420.76609  19599421.68108
 -23583672.71808 -18376850.30008  20137470.44908  20137471.22008
 93 04 15 04 40 00.0000000  0  6 03 24 17 26 20 16
 -16271905.77508 -12679388.87108  21862258.96708  21862260.68108
  -8724660.82608  -6798400.16708  22825798.06908  22825799.20908
 -14511390.75508 -11307560.21708  21694326.81208  21694328.12908
  -3717567.71408  -2896804.02508  23418324.59208  23418326.20408
 -25595475.74309 -19944515.79808  19614945.60709  19614946.51208
 -23494822.88608 -18307616.64708  20154377.98908  20154378.76508
 93 04 15 04 42 00.0000000  0  6 03 24 17 26 20 16
 -16565534.27708 -12908190.19608  21806383.24508  21806384.90608
  -8476650.42508  -6605145.33308  22872992.92008  22872994.00408
 -14825409.88508 -11552250.33608  21634570.86908  21634572.15708
  -4066647.60008  -3168814.18908  23351896.93608  23351898.41408
 -25505516.64209 -19874417.83508  19632064.28209  19632065.21408
 -23398351.80008 -18232444.35608  20172735.79108  20172736.58808
 93 04 15 04 44 00.0000000  0  6 03 24 17 26 20 16
 -16860328.10208 -13137899.55608  21750285.77808  21750287.36108
  -8229972.47608  -6412928.77708  22919934.20408  22919935.29508
 -15136736.38708 -11794842.30908  21575327.28908  21575328.53408
  -4417045.14408  -3441851.08008  23285218.45608  23285219.75508
 -25407361.79208 -19797933.57308  19650742.55408  19650743.49208
 -23294461.50808 -18151490.87208  20192505.45608  20192506.25308
 93 04 15 04 46 00.0000000  0  6 03 24 17 26 20 16
 -17156394.23508 -13368600.34708  21693946.18608  21693947.74508
  -7985180.53708  -6222181.84908  22966516.59908  22966517.74208
 -15445386.73708 -12035348.95908  21516593.03308  21516594.24108
  -4768814.30808  -3715956.76008  23218278.97208  23218280.17208
 -25301238.16708 -19715239.87708  19670937.22908  19670938.19608
 -23182897.18008 -18064557.61408  20213735.45908  20213736.23308
 93 04 15 04 48 00.0000000  0  6 03 17 24 26 20 16
 -17453770.06908 -13600321.66108  21637357.38008  21637358.90808
 -15751401.03308 -12273801.54908  21458360.37908  21458361.53008
  -7741812.27508  -6032544.29008  23012828.09408  23012829.19708
  -5121656.54008  -3990898.60108  23151135.18208  23151136.25108
 -25187313.33408 -19626467.31908  19692616.43308  19692617.39608
 -23063952.61408 -17971873.52308  20236369.81808  20236370.55908
 93 04 15 04 50 00.0000000  0  7 03 17 24 23 26 20 16
 -17752795.73508 -13833328.52708  21580454.56808  21580456.05308
 -16055318.84508 -12510620.52508  21400526.69308  21400527.83408
  -7500397.94508  -5844429.28808  23058767.81108  23058768.88608
         0.10517         0.18517  23755033.70017  23755035.77217
  -5475914.79008  -4266943.82908  23083721.79308  23083722.87108
 -25066065.22408 -19531988.31008  19715689.21408  19715690.18008
 -22938300.16808 -17873962.51308  20260280.69208  20260281.46008
 93 04 15 04 52 00.0000000  0  7 03 17 24 23 26 20 16
 -18053479.28708 -14067627.25708  21523236.28408  21523237.72308
 -16356987.20608 -12745686.68308  21343121.00808  21343122.11908
  -7260999.68208  -5657885.25008  23104323.74708  23104324.89508
   -488839.27507   -380913.04108  23662010.24407  23662012.21408
  -5831079.88608  -4543695.67908  23016135.93108  23016137.08308
 -24937650.80308 -19431925.16308  19740125.69008  19740126.66408
 -22806069.79108 -17770925.84208  20285443.30508  20285444.03408
 93 04 15 04 54 00.0000000  0  7 03 17 24 23 26 20 16
 -18355719.77708 -14303139.19808  21465721.72508  21465723.14808
 -16656379.52008 -12978979.30608  21286148.45408  21286149.55708
  -7023880.91408  -5473117.45808  23149446.01908  23149447.22308
   -978202.65408   -762234.65608  23568887.11508  23568889.01308
  -6187084.28308  -4821101.50008  22948390.46708  22948391.58208
 -24802126.00908 -19326321.45708  19765915.23208  19765916.20208
 -22667273.45708 -17662772.84908  20311855.26708  20311856.02808
 93 04 15 04 56 00.0000000  0  7 03 17 24 23 26 20 16
 -18659433.70308 -14539799.29108  21407926.79408  21407928.17708
 -16953724.08808 -13210676.27608  21229565.58508  21229566.67808
  -6788715.91708  -5289872.09408  23194196.52808  23194197.66908
  -1467970.24908  -1143871.35408  23475687.24208  23475688.93308
  -6544008.41508  -5099224.01908  22880469.95908  22880470.94208
 -24659572.06208 -19215240.49908  19793042.36008  19793043.35508
 -22522236.22708 -17549756.82308  20339454.97808  20339455.73508
 93 04 15 04 58 00.0000000  0  7 03 17 24 23 26 20 16
 -18963896.35408 -14777042.83708  21349989.42508  21349990.78308
 -17248220.63708 -13440154.00608  21173524.71908  21173525.78208
  -6554660.77408  -5107491.55208  23238735.75408  23238736.91808
  -1957342.21508  -1525199.88708  23382562.57508  23382564.19408
  -6900564.44608  -5377059.73308  22812619.51008  22812620.49408
 -24509438.13108 -19098253.07008  19821611.93508  19821612.93008
 -22370152.54908 -17431250.06608  20368395.56508  20368396.30508
 93 04 15 05 00 00.0000000  0  7 03 17 24 23 26 20 16
 -19268344.09408 -15014274.77308  21292054.86808  21292056.24208
 -17539258.21008 -13666936.43508  21118142.02608  21118143.06508
  -6321397.20908  -4925727.82508  23283124.43108  23283125.66908
  -2445494.58208  -1905578.16808  23289670.15208  23289671.81808
  -7256342.15908  -5654288.96508  22744917.20408  22744918.08408
 -24351144.21808 -18974907.20808  19851734.29308  19851735.29408
 -22210259.73808 -17306658.27508  20398822.15208  20398822.91608
 93 04 15 05 02 00.0000000  0  7 03 17 24 23 26 20 16
 -19572446.12708 -15251237.32408  21234186.12808  21234187.45508
 -17826278.96008 -13890588.86208  21063523.75408  21063524.71608
  -6088773.34408  -4744462.57208  23327391.35608  23327392.59508
  -2931677.98908  -2284422.20008  23197152.32508  23197153.92708
  -7610504.09808  -5930259.16208  22677522.24008  22677523.10208
 -24184549.28808 -18845093.02308  19883436.28208  19883437.29808
 -22042727.77908 -17176113.89808  20430702.44708  20430703.20508
 93 04 15 05 04 00.0000000  0  7 03 24 23 26 20 16 17
 -19876274.76808 -15487986.86908  21176369.43408  21176370.75308
  -5856589.15308  -4563539.93108  23371574.57108  23371575.89708
  -3416303.09208  -2662051.93308  23104931.02908  23104932.64008
  -7962995.91408  -6204927.96708  22610445.20208  22610446.01708
 -24009921.86708 -18709019.74908  19916666.79708  19916667.84908
 -21867905.81908 -17039889.00208  20463969.93408  20463970.69808
 -18109357.95008 -14111169.80808  21009655.52208  21009656.51708
 93 04 15 05 06 00.0000000  0  7 03 24 23 26 20 16 17
 -20180045.41508 -15724691.23008  21118563.77108  21118565.06908
  -5625236.04708  -4383264.88108  23415599.67008  23415601.03008
  -3899333.00008  -3038438.63908  23013013.20108  23013014.76008
  -8313788.08508  -6478272.37908  22543691.47608  22543692.33008
 -23827685.62208 -18567017.52908  19951345.24408  19951346.30208
 -21685943.28108 -16898100.02108  20498596.28408  20498597.05308
 -18389176.30608 -14329210.01308  20956407.80508  20956408.77008
 93 04 15 05 08 00.0000000  0  7 03 24 23 26 20 16 17
 -20483976.89008 -15961520.91008  21060727.48308  21060728.79708
  -5395136.53608  -4203966.66708  23459386.23608  23459387.62208
  -4380714.74408  -3413541.07608  22921409.13608  22921410.68008
  -8663456.87408  -6750741.42708  22477151.60608  22477152.42008
 -23638273.93508 -18419424.05708  19987389.13208  19987390.18408
 -21497438.26808 -16751213.01108  20534467.58708  20534468.35208
 -18665929.11608 -14544861.47908  20903743.39208  20903744.36408
 93 04 15 05 10 00.0000000  0  7 24 23 26 20 03 16 17
  -5166267.84708  -4025627.52208  23502938.52308  23502939.92508
  -4860475.68208  -3787380.57908  22830113.43508  22830114.95408
  -9011642.26808  -7022054.61408  22410894.03808  22410894.79708
 -23441867.29808 -18266379.98108  20024764.12308  20024765.17908
 -20788027.19108 -16198443.18408  21002868.61008  21002869.90208
 -21302601.71508 -16599392.33608  20571543.75408  20571544.51008
 -18939475.28408 -14758014.25508  20851689.25708  20851690.21108
 93 04 15 05 12 00.0000000  0  7 24 23 26 20 03 16 17
  -4938358.52708  -3848035.94508  23546308.34808  23546309.74308
  -5338733.33408  -4160048.70708  22739103.83108  22739105.38908
  -9357958.41908  -7291911.23108  22344992.25208  22344992.96308
 -23238632.63908 -18108015.36608  20063438.43308  20063439.51008
 -21092133.70708 -16435409.26008  20944999.06308  20945000.33008
 -21101486.70908 -16442679.35708  20609814.63808  20609815.44108
 -19210040.94108 -14968844.56208  20800202.26308  20800203.18008
 93 04 15 05 14 00.0000000  0  7 24 23 26 20 03 16 17
  -4711796.84408  -3671494.46808  23589421.69408  23589423.11608
  -5815348.36308  -4531436.90108  22648406.94608  22648408.38008
  -9702093.55908  -7560068.35508  22279505.41408  22279506.04408
 -23028811.45608 -17944518.39708  20103366.10708  20103367.19408
 -21396304.35808 -16672425.30408  20887117.25208  20887118.51308
 -20894185.40708 -16281145.88808  20649262.84708  20649263.63508
 -19477938.80008 -15177596.07608  20749222.93908  20749223.80908
 93 04 15 05 16 00.0000000  0  7 23 24 26 20 03 16 17
  -6289739.12808  -4901091.91508  22558133.26008  22558134.64108
  -4486804.08708  -3496175.53308  23632236.45808  23632237.87908
 -10044443.88508  -7826834.70608  22214358.26608  22214358.93408
 -22812520.36608 -17775979.93908  20144524.97108  20144526.07008
 -21700409.95008 -16909390.65208  20829247.85908  20829249.09108
 -20681082.21408 -16115091.46708  20689815.02108  20689815.80308
 -19742730.64308 -15383927.30608  20698834.66508  20698835.56208
 93 04 15 05 18 00.0000000  0  7 23 24 26 20 03 16 17
  -6762000.36108  -5269087.56708  22468264.88908  22468266.20508
  -4262682.47508  -3321535.38608  23674885.40608  23674886.84008
 -10383853.19508  -8091309.35808  22149770.65908  22149771.35808
 -22589679.23408 -17602337.55308  20186930.25508  20186931.39608
 -22004121.12408 -17146048.65508  20771453.46608  20771454.72008
 -20462059.98908 -15944424.81308  20731493.53908  20731494.33608
 -20004131.09808 -15587615.91308  20649091.74008  20649092.66908
 93 04 15 05 20 00.0000000  0  7 23 26 24 20 03 16 17
  -7232073.62708  -5635378.32808  22378812.88208  22378814.16108
 -10720927.57308  -8353964.60408  22085627.44108  22085628.06108
  -4039637.54708  -3147734.19308  23717329.47708  23717330.98608
 -22360617.76708 -17423848.15408  20230519.24708  20230520.40008
 -22307510.98508 -17382456.27608  20713720.25308  20713721.49208
 -20237152.28608 -15769172.07608  20774292.06308  20774292.88608
 -20262705.29008 -15789102.24908  20599886.66008  20599887.55608
 93 04 15 05 22 00.0000000  0  7 23 26 24 20 03 16 17
  -7699606.65708  -5999689.71408  22289844.32908  22289845.49408
 -11055481.23408  -8614655.66208  22021963.89008  22021964.58008
  -3817809.69408  -2974881.36208  23759541.94908  23759543.47808
 -22125541.80908 -17240672.13908  20275252.76508  20275253.92308
 -22610520.84608 -17618567.79208  20656059.34408  20656060.56708
 -20006752.52508 -15589639.81608  20818135.70208  20818136.52308
 -20518177.29908 -15988171.29008  20551271.96308  20551272.83308
 93 04 15 05 24 00.0000000  0  7 23 26 24 20 03 16 17
  -8164527.24208  -6361965.42908  22201372.86408  22201374.04808
 -11386914.79608  -8872915.48008  21958894.14308  21958894.73308
  -3597093.32108  -2802894.62607  23801542.87508  23801544.42807
 -21884671.69508 -17052981.20408  20321088.86108  20321090.02208
 -22913103.50708 -17854346.42308  20598479.72908  20598480.93208
 -19771000.39508 -15405936.87808  20862997.86108  20862998.70208
 -20770947.06308 -16185134.69708  20503171.44208  20503172.27608
 93 04 15 05 26 00.0000000  0  7 23 26 24 20 03 16 17
  -8626588.00708  -6722012.72208  22113445.61708  22113446.74608
 -11714541.58408  -9128208.98708  21896548.78508  21896549.29308
  -3377072.16608  -2631449.63807  23843411.62008  23843413.10907
 -21637725.95708 -16860556.00908  20368081.12708  20368082.28408
 -23214701.18608 -18089357.53408  20541087.56008  20541088.74608
 -19529988.07008 -15218135.08908  20908860.98108  20908861.80608
 -21020487.85408 -16379582.01408  20455685.32108  20455686.16008
 93 04 15 05 28 00.0000000  0  8 23 26 24 22 20 03 16 17
  -9085230.44208  -7079396.38508  22026168.82108  22026169.99808
 -12038458.34208  -9380611.56508  21834909.42108  21834909.88008
  -3157838.26308  -2460618.11607  23885130.50508  23885132.05107
        -0.62316        -0.08616  23922715.11216  23922716.81616
 -21384766.06608 -16663444.46308  20416217.81808  20416219.00108
 -23515095.16808 -18323430.70208  20483924.43108  20483925.60308
 -19283636.98108 -15026173.22208  20955740.03408  20955740.84508
 -21266312.31108 -16571133.48608  20408906.47608  20408907.28808
 93 04 15 05 30 00.0000000  0  8 23 16 26 24 22 20 03 17
  -9540377.53308  -7434056.40308  21939557.13708  21939558.33208
 -19031504.05108 -14829706.01408  21003719.38208  21003720.18108
 -12358629.72708  -9630095.67008  21773982.71308  21773983.12708
  -2939980.49607  -2290858.92107  23926587.51007  23926589.15707
   -398195.47407   -310281.68407  23846941.28507  23846942.73607
 -21126200.75408 -16461965.05408  20465421.23208  20465422.41608
 -23814407.44308 -18556660.98308  20426967.16608  20426968.28408
 -21508963.36608 -16760212.16808  20362731.40008  20362732.24808
 93 04 15 05 32 00.0000000  0  8 23 16 26 24 22 20 03 17
  -9992548.73708  -7786397.55508  21853511.80608  21853513.00108
 -18774337.19908 -14629316.26208  21052656.54508  21052657.36408
 -12674883.81308  -9876527.34508  21713801.65408  21713802.04408
  -2722821.15607  -2121643.96907  23967911.73307  23967913.26607
   -791814.36707   -616997.59507  23772038.06507  23772039.42907
 -20862267.68608 -16256302.96808  20515646.01708  20515647.25908
 -24112584.58908 -18789006.75208  20370225.88108  20370227.00908
 -21748620.27708 -16946957.75208  20317126.18308  20317126.94508
 93 04 15 05 34 00.0000000  0  8 23 16 24 22 26 20 03 17
 -10441750.17808  -8136424.62108  21768031.52508  21768032.75108
 -18513091.75608 -14425748.38108  21102369.92508  21102370.74508
  -2506390.59507  -1952996.91407  24009097.06807  24009098.59907
  -1181141.19908   -920369.04007  23697951.68408  23697952.84807
 -12987167.00908 -10119864.82508  21654376.01108  21654376.45108
 -20593587.91408 -16046942.14908  20566774.14008  20566775.36808
 -24409949.07108 -19020719.27608  20313639.27208  20313640.35808
 -21985696.02208 -17131692.03608  20272012.18308  20272012.96608
 93 04 15 05 36 00.0000000  0  8 23 16 24 22 26 20 03 17
 -10887430.60808  -8483708.05808  21683221.33508  21683222.56608
 -18247595.33908 -14218868.05008  21152892.23808  21152893.04608
  -2291644.30207  -1785662.30406  24049962.10507  24049963.79006
  -1565942.31308  -1220213.91208  23624726.32608  23624727.44408
 -13295599.92608 -10360202.08308  21595683.11508  21595683.53008
 -20320261.96808 -15833960.92608  20618786.33208  20618787.59508
 -24706301.49408 -19251643.17808  20257245.21508  20257246.29208
 -22220160.06308 -17314391.23208  20227395.08708  20227395.86608
 93 04 15 05 38 00.0000000  0  8 23 16 24 22 26 20 03 17
 -11329826.74308  -8828432.29708  21599036.13108  21599037.33908
 -17978049.84408 -14008832.59208  21204185.05408  21204185.84608
  -2078018.85307  -1619201.06506  24090613.80807  24090615.51806
  -1946153.51308  -1516482.19308  23552374.39108  23552375.44508
 -13600021.58508 -10597413.68608  21537753.47808  21537753.85008
 -20042561.62208 -15617571.08908  20671630.99308  20671632.25608
 -25001607.15208 -19481751.41208  20201050.35908  20201051.43108
 -22452000.81108 -17495046.29308  20183277.20808  20183277.95508
 93 04 15 05 40 00.0000000  0  8 23 24 16 22 26 20 03 17
 -11768691.59508  -9170404.88308  21515522.93808  21515524.11208
  -1865253.59706  -1453410.10806  24131101.76006  24131103.56006
 -17704257.53408 -13795487.92908  21256285.95608  21256286.76308
  -2321253.60508  -1808767.85308  23480995.08908  23480996.15708
 -13899600.35908 -10830851.60708  21480745.54508  21480745.86908
 -19760302.44908 -15397628.90608  20725343.15408  20725344.39208
 -25295369.60608 -19710657.14708  20145149.18508  20145150.20908
 -22680655.99708 -17673219.08708  20139765.51608  20139766.25408
 93 04 15 05 42 00.0000000  0  7 23 16 22 26 20 03 17
 -12203566.67208  -9509268.55808  21432768.93908  21432770.08708
 -17426124.44608 -13578760.85408  21309212.91308  21309213.71808
  -2690840.05308  -2096757.22808  23410665.07008  23410666.13308
 -14193967.05608 -11060228.15608  21424729.37508  21424729.69208
 -19473418.11408 -15174082.70508  20779935.44208  20779936.69208
 -25587207.55308 -19938063.27608  20089614.20708  20089615.22308
 -22906221.10808 -17848984.00208  20096841.83008  20096842.51808
 93 04 15 05 44 00.0000000  0  7 23 16 22 26 20 03 17
 -12634112.01908  -9844758.40708  21350838.89608  21350840.00108
 -17143880.28308 -13358830.34908  21362922.22108  21362923.00308
  -3054904.54508  -2380443.76108  23341385.86108  23341386.88908
 -14483021.20708 -11285465.06208  21369724.10108  21369724.39508
 -19182233.73208 -14947185.82408  20835346.04508  20835347.25508
 -25877127.44508 -20163974.83008  20034444.23908  20034445.24608
 -23128937.03808 -18022528.79108  20054460.32308  20054461.01908
 93 04 15 05 46 00.0000000  0  7 23 16 22 26 20 03 17
 -13060203.75508 -10176777.90808  21269756.31208  21269757.39408
 -16857924.96308 -13136008.05008  21417337.70808  21417338.52608
  -3413358.53108  -2659758.44908  23273174.19008  23273175.18008
 -14767147.35808 -11506861.97608  21315656.58008  21315656.88908
 -18886990.63308 -14717126.30208  20891528.97808  20891530.19908
 -26165048.42008 -20388328.79708  19979654.68308  19979655.67008
 -23348316.40808 -18193473.68408  20012713.76908  20012714.45208
 93 04 15 05 48 00.0000000  0  7 23 16 22 26 20 03 17
 -13481976.39508 -10505431.86908  21189495.56008  21189496.61908
 -16567798.03708 -12909935.15808  21472547.05408  21472547.85708
  -3765958.46908  -2934511.50308  23206076.47208  23206077.53908
 -15045672.63908 -11723894.57008  21262654.95908  21262655.22708
 -18587778.57808 -14483974.08508  20948467.11808  20948468.41108
 -26450733.57308 -20610940.57208  19925290.58608  19925291.56108
 -23564718.27108 -18362098.45308  19971533.85208  19971534.51508
 93 04 15 05 50 00.0000000  0  7 20 23 16 22 26 03 17
 -18285068.39908 -14248096.05308  21006070.97408  21006072.26908
 -13899684.74508 -10830918.84208  21110008.29108  21110009.36808
 -16274578.89108 -12681452.75408  21528344.83408  21528345.67308
  -4112847.29608  -3204814.37208  23140065.60208  23140066.72208
 -15318734.52708 -11936669.96808  21210692.91608  21210693.10008
 -26734324.35108 -20831920.37408  19871325.03608  19871325.99708
 -23778619.82108 -18528774.93508  19930829.69108  19930830.33608
 93 04 15 05 52 00.0000000  0  7 20 23 16 22 26 03 17
 -17979185.87008 -14009746.05108  21064278.50508  21064279.84608
 -14313124.89208 -11153079.95408  21031333.21008  21031334.31808
 -15978502.30508 -12450743.77908  21584686.40308  21584687.21808
  -4454024.46908  -3470666.65808  23075141.69408  23075142.75808
 -15586368.97708 -12145216.20308  21159763.75208  21159763.95108
 -27015814.22108 -21051263.11008  19817759.26908  19817760.23908
 -23989786.62408 -18693320.43208  19890645.92408  19890646.55908
 93 04 15 05 54 00.0000000  0  7 20 16 22 26 03 23 17
 -17670107.18308 -13768905.53908  21123094.22808  21123095.55608
 -15678896.56208 -12217284.81308  21641699.52208  21641700.37808
  -4789140.99608  -3731796.39208  23011371.07408  23011372.20008
 -15847974.04208 -12349064.22708  21109981.93808  21109982.10808
 -27294843.13108 -21268688.21108  19764661.81808  19764662.78708
 -14721894.31408 -11471601.55208  20953546.90908  20953548.03708
 -24198084.98908 -18855630.80608  19851008.03708  19851008.65208
 93 04 15 05 56 00.0000000  0  7 20 16 22 26 03 23 17
 -17358413.88908 -13526027.66908  21182407.45508  21182408.86008
 -15376841.53408 -11981917.31008  21699178.70908  21699179.56708
  -5118458.58808  -3988407.46008  22948703.97608  22948705.14108
 -16103935.11808 -12548514.34608  21061274.09608  21061274.20508
 -27571656.63908 -21484387.02608  19711985.95108  19711986.89008
 -15126317.22708 -11786736.26908  20876587.82808  20876588.92808
 -24404099.25708 -19016161.33508  19811804.76008  19811805.34608
 93 04 15 05 58 00.0000000  0  7 20 16 22 26 03 23 17
 -17045314.63908 -13282054.25908  21241988.28408  21241989.67008
 -15073590.04908 -11745617.50108  21756885.57808  21756886.45908
  -5442868.00208  -4241193.98108  22886970.92608  22886972.06008
 -16355147.43708 -12744264.13908  21013469.74508  21013469.89408
 -27847122.07908 -21699035.39908  19659566.58708  19659567.52208
 -15527370.45108 -12099245.25308  20800269.91408  20800270.99508
 -24608952.32908 -19175787.03608  19772822.49308  19772823.05508
 93 04 15 06 00 00.0000000  0  7 20 16 22 03 23 17 26
 -16730391.47808 -13036659.61808  21301916.22508  21301917.60108
 -14768422.14908 -11507824.38208  21814957.12108  21814958.05308
  -5761636.46408  -4489584.92108  22826311.28808  22826312.37408
 -28120479.18408 -21912040.92008  19607548.45908  19607549.38108
 -15924418.37808 -12408633.20308  20724714.19308  20724715.25908
 -24811594.61408 -19333690.05808  19734260.89008  19734261.44208
 -16600555.22508 -12935490.93308  20966770.25808  20966770.37308
 93 04 15 06 02 00.0000000  0  7 20 16 22 03 23 17 26
 -16412734.01908 -12789134.35808  21362364.49708  21362365.78508
 -14460476.43408 -11267866.72408  21873557.29008  21873558.13108
  -6073543.00408  -4732628.89408  22766957.43008  22766958.47308
 -28390473.73608 -22122426.26808  19556170.17808  19556171.10508
 -16316267.73308 -12713970.30808  20650147.70108  20650148.74008
 -25011189.35908 -19489218.39008  19696279.23208  19696279.81908
 -16839096.22808 -13121366.99308  20921377.42308  20921377.52808
 93 04 15 06 04 00.0000000  0  8 20 16 21 22 03 23 17 26
 -16092727.16208 -12539778.40708  21423259.81408  21423261.12008
 -14149978.98508 -11025920.69608  21932643.00208  21932643.94608
        -0.93316        -0.45416  23918151.42216  23918153.34216
  -6378665.97108  -4970386.97208  22708894.41908  22708895.40308
 -28657145.06008 -22330222.08708  19505424.29208  19505425.22208
 -16702740.83208 -13015118.12008  20576604.20208  20576605.23308
 -25208090.06008 -19642647.47508  19658810.22408  19658810.80208
 -17071050.94408 -13302110.88708  20877237.78808  20877237.89208
 93 04 15 06 06 00.0000000  0  8 20 21 16 22 03 23 17 26
 -15770662.23608 -12288818.75808  21484546.78508  21484548.03408
   -476121.58307   -371003.38006  23827548.68707  23827550.29906
 -13836912.76408 -10781973.03608  21992217.58508  21992218.53308
  -6676995.36708  -5202851.38008  22652124.24308  22652125.16008
 -28920437.96308 -22535385.37308  19455321.32508  19455322.21808
 -17084177.50708 -13312341.44308  20504019.27108  20504020.27508
 -25402286.28108 -19793969.16908  19621855.91208  19621856.49408
 -17296092.89108 -13477468.20808  20834413.74308  20834413.81208
 93 04 15 06 08 00.0000000  0  8 20 21 16 22 03 23 17 26
 -15446728.41808 -12036402.83108  21546189.33708  21546190.59308
   -950728.92707   -740827.10807  23737233.80607  23737235.24807
 -13522050.12808 -10536625.56308  22052134.00808  22052134.93308
  -6968421.77108  -5429936.84408  22596667.60608  22596668.51208
 -29180193.00808 -22737791.89108  19405891.56808  19405892.48908
 -17460014.54308 -13605201.40408  20432499.74608  20432500.76508
 -25593702.81508 -19943124.85708  19585430.54108  19585431.08908
 -17514133.56308 -13647369.98208  20792922.01108  20792922.08408
 93 04 15 06 10 00.0000000  0  8 20 21 16 22 03 23 17 26
 -15121144.82208 -11782701.36708  21608145.85808  21608147.11708
  -1424036.82407  -1109638.26207  23647166.07407  23647167.53807
 -13205515.20408 -10289975.00408  22112368.59408  22112369.52508
  -7252871.91708  -5651586.24508  22542538.47208  22542539.35108
 -29436282.23108 -22937341.93108  19357159.41608  19357160.31708
 -17830680.25908 -13894031.76608  20361964.35908  20361965.37408
 -25782519.44408 -20090254.65408  19549499.86708  19549500.41608
 -17724929.27408 -13811626.33508  20752808.80608  20752808.89708
 93 04 15 06 12 00.0000000  0  8 20 21 16 22 03 23 17 26
 -14793798.39908 -11527626.27308  21670437.84208  21670439.16108
  -1895694.97707  -1477163.86307  23557412.27007  23557413.77707
 -12886656.38508 -10041513.61808  22173045.42708  22173046.41508
  -7529942.66208  -5867485.48408  22489813.58508  22489814.50908
 -29688241.51808 -23133673.83808  19309213.15708  19309214.03908
 -18195702.17608 -14178464.36208  20292502.95608  20292503.95108
 -25968433.92908 -20235123.04608  19514121.50308  19514122.03008
 -17928335.93508 -13970124.99208  20714101.80308  20714101.84708
 93 04 15 06 14 00.0000000  0  8 20 21 16 22 03 23 17 26
 -14464784.08208 -11271251.52708  21733047.21408  21733048.54408
  -2365605.85607  -1843328.00607  23467990.94707  23467992.53507
 -12566000.09508  -9791651.60808  22234064.26308  22234065.29908
  -7799449.03608  -6077490.42508  22438528.15208  22438529.09708
 -29935816.33708 -23326589.27408  19262101.21608  19262102.11608
 -18554597.80508 -14458123.22708  20224207.30608  20224208.29308
 -26151351.53508 -20377656.21108  19479313.38308  19479313.88708
 -18124052.97708 -14122631.74308  20676858.07408  20676858.15208
 93 04 15 06 16 00.0000000  0  8 20 21 16 22 03 23 17 26
 -14134426.34008 -11013829.95808  21795912.16008  21795913.58908
  -2833523.51607  -2207939.03107  23378949.05907  23378950.66507
 -12243451.53908  -9540315.10108  22295443.26508  22295444.26308
  -8061436.56608  -6281636.53508  22388673.57108  22388674.48108
 -30178983.05708 -23516069.82208  19215828.13208  19215829.01208
 -18907885.60508 -14733412.35008  20156978.87808  20156979.82008
 -26331351.83308 -20517916.14308  19445060.42508  19445060.92308
 -18311815.81008 -14268940.40608  20641127.94908  20641127.96708
 93 04 15 06 18 00.0000000  0  8 20 21 16 03 23 17 22 26
 -13803021.82208 -10755592.72808  21858976.38508  21858977.85108
  -3299849.55208  -2571309.90107  23290210.17708  23290211.63307
 -11919301.30008  -9287730.53108  22357126.98608  22357127.97708
 -30417687.12708 -23702072.98508  19170404.25208  19170405.10608
 -19255273.59308 -15004104.21608  20090873.09908  20090874.02508
 -26508557.14808 -20655998.16108  19411339.24308  19411339.74408
  -8315929.65508  -6479942.78408  22340245.13508  22340245.99708
 -18491785.91108 -14409176.80708  20606880.76108  20606880.78508
 93 04 15 06 20 00.0000000  0  8 20 21 16 03 23 17 22 26
 -13470820.42908 -10496734.57208  21922192.24608  21922193.72308
  -3764143.49808  -2933097.35907  23201857.99208  23201859.53707
 -11593908.59108  -9034177.79708  22419047.21808  22419048.27108
 -30651829.30308 -23884521.42408  19125848.47608  19125849.34408
 -19596866.47808 -15270280.41908  20025870.04808  20025870.95508
 -26683164.28608 -20792055.63008  19378112.69208  19378113.18308
  -8562913.26908  -6672397.47308  22293245.62808  22293246.51208
 -18664177.64508 -14543507.98608  20574075.71208  20574075.70908
 93 04 15 06 22 00.0000000  0  8 20 21 16 03 23 17 22 26
 -13138056.08008 -10237437.75108  21985515.23408  21985516.79808
  -4226453.35108  -3293338.78208  23113883.38208  23113885.01308
 -11267489.68108  -8779825.45508  22481162.67608  22481163.74608
 -30881296.82308 -24063327.27308  19082182.25508  19082183.11108
 -19932668.56308 -15531944.30408  19961969.00408  19961969.90208
 -26855141.41808 -20926063.74008  19345386.51008  19345386.98508
  -8802362.80808  -6858981.46408  22247679.84708  22247680.71408
 -18828465.72608 -14671524.62008  20542812.66608  20542812.68408
 93 04 15 06 24 00.0000000  0  8 20 21 16 03 23 17 22 26
 -12804994.56508  -9977909.36908  22048894.74208  22048896.37608
  -4686701.41608  -3651973.64108  23026301.15808  23026302.72008
 -10940293.85108  -8524867.71908  22543426.01208  22543427.11108
 -31106006.66409 -24238425.83908  19039421.38309  19039422.23108
 -20262390.10408 -15788870.10108  19899224.99208  19899225.87808
 -27024590.42508 -21058101.88708  19313141.39908  19313141.84108
  -9034287.94808  -7039702.31308  22203545.96108  22203546.81108
 -18984716.24908 -14793278.22108  20513079.11708  20513079.10508
 93 04 15 06 26 00.0000000  0  8 20 21 03 23 16 17 22 26
 -12471875.44808  -9718336.10008  22112285.24408  22112286.92908
  -5145115.84508  -4009179.69908  22939067.87708  22939069.40908
 -31325850.64309 -24409732.82608  18997586.44809  18997587.29208
 -20586379.55108 -16041329.33208  19837571.78508  19837572.64808
 -10612279.82708  -8269272.40108  22605845.02808  22605846.12608
 -27191515.19308 -21188173.09808  19281376.62508  19281377.09608
  -9258680.93708  -7214553.97408  22160845.44008  22160846.24208
 -19133066.41908 -14908875.69608  20484848.94608  20484848.92808
 93 04 15 06 28 00.0000000  0  8 20 21 03 23 16 17 22 26
 -12138601.87808  -9458642.46908  22175705.10908  22175706.85008
  -5601293.95208  -4364643.15808  22852260.11408  22852261.66808
 -31540387.55609 -24576904.43608  18956761.43409  18956762.28308
 -20904297.06308 -16289057.18408  19777074.03608  19777074.86208
 -10283432.27608  -8013027.58808  22668422.62908  22668423.73808
 -27355671.75108 -21316087.26008  19250138.67208  19250139.13408
  -9475203.99108  -7383273.21608  22119642.47508  22119643.27708
 -19273245.51308 -15018106.09908  20458173.70508  20458173.66008
 93 04 15 06 30 00.0000000  0  8 20 21 03 23 16 17 22 26
 -11805058.85308  -9198738.88508  22239176.31608  22239178.06208
  -6054857.77808  -4718069.51508  22765949.79308  22765951.34308
 -31749161.39009 -24739585.33108  18917033.09809  18917033.94008
 -21215448.25908 -16531512.57808  19717863.87608  19717864.69708
  -9953500.77208  -7755938.13708  22731206.57908  22731207.64608
 -27516712.70108 -21441573.67608  19219493.55808  19219493.98908
  -9683511.43508  -7545590.68508  22080002.87008  22080003.71108
 -19404524.18608 -15120401.10608  20433192.21608  20433192.13908
 93 04 15 06 32 00.0000000  0  8 20 21 03 23 16 17 22 26
 -11471557.68708  -8938867.91308  22302639.52208  22302641.30808
  -6505830.37208  -5069476.70008  22680132.63708  22680134.13508
 -31952141.22909 -24897751.43008  18878407.30509  18878408.16308
 -21520550.13908 -16769254.22608  19659804.87408  19659805.66608
  -9622625.45108  -7498113.30508  22794170.10808  22794171.26908
 -27674831.57908 -21564783.15208  19189404.50108  19189404.91608
  -9883686.31308  -7701571.08608  22041910.86508  22041911.63108
 -19527270.09008 -15216047.20608  20409834.41008  20409834.36508
 93 04 15 06 34 00.0000000  0  8 20 21 03 23 16 17 22 26
 -11138632.13108  -8679445.46708  22365993.19408  22365994.96708
  -6954112.18108  -5418787.15408  22594827.34108  22594828.88008
 -32149521.68309 -25051554.37008  18840847.04709  18840847.88908
 -21819618.61408 -17002294.52808  19602893.95308  19602894.73708
  -9291677.55308  -7240231.89208  22857147.46508  22857148.61808
 -27830837.27408 -21686345.99108  19159717.58108  19159717.97108
 -10076041.67108  -7851458.34408  22005306.74708  22005307.54908
 -19642027.81908 -15305468.74808  20387996.65408  20387996.61708
 93 04 15 06 36 00.0000000  0  8 20 21 03 23 16 17 22 26
 -10806581.52308  -8420704.78708  22429180.38208  22429182.19708
  -7400155.66508  -5766353.45708  22509948.06608  22509949.59208
 -32341266.82509 -25200966.14908  18804359.15009  18804359.97808
 -22112427.77908 -17230457.43108  19547174.16808  19547174.93708
  -8960728.02108  -6982349.19508  22920125.04208  22920126.19508
 -27984050.46908 -21805732.85508  19130562.05808  19130562.43808
 -10260665.47608  -7995321.01808  21970173.97808  21970174.80108
 -19748320.42908 -15388294.09408  20367769.77608  20367769.71708
 93 04 15 06 38 00.0000000  0  8 20 21 03 23 16 17 22 26
 -10475422.31208  -8162658.69708  22492197.98208  22492199.78508
  -7843528.52208  -6111838.76708  22425576.90108  22425578.45208
 -32527059.11309 -25345739.34208  18769004.03809  18769004.87708
 -22399016.91108 -17453773.55708  19492638.05108  19492638.77308
  -8629747.06508  -6724441.99708  22983108.75308  22983109.82108
 -28134643.66308 -21923078.16308  19101905.08708  19101905.45608
 -10437369.42008  -8133012.37808  21936548.37408  21936549.09908
 -19845718.83308 -15464188.88708  20349235.40608  20349235.34908
 93 04 15 06 40 00.0000000  0  8 20 03 21 23 16 17 22 26
 -10145213.77708  -7905353.39008  22555034.64708  22555036.39908
 -32706627.76809 -25485662.95008  18734833.24009  18734834.07108
  -8283955.26908  -6455028.39708  22341766.43808  22341768.00108
 -22679080.67908 -17672004.99008  19439343.62808  19439344.32708
  -8298632.16008  -6466430.42708  23046117.80808  23046118.88008
 -28282670.76208 -22038423.91208  19073736.40508  19073736.76608
 -10606014.10708  -8264423.80508  21904456.26408  21904457.07908
 -19934533.06008 -15533394.70808  20332334.58308  20332334.43308
 93 04 15 06 42 00.0000000  0  8 20 03 21 23 16 17 22 26
  -9816068.21808  -7648876.38608  22617669.04608  22617670.80308
 -32879757.09709 -25620568.90608  18701887.82009  18701888.63008
  -8721512.69908  -6795982.19308  22258501.86708  22258503.45308
 -22953089.66608 -17885518.40508  19387201.40208  19387202.05908
  -7967197.12808  -6208169.35808  23109187.84008  23109188.91308
 -28427990.82308 -22151660.28308  19046082.85508  19046083.23608
 -10766520.66808  -8389493.83308  21873912.93908  21873913.63808
 -20014700.54108 -15595862.80408  20317079.16008  20317079.01708
 93 04 15 06 44 00.0000000  0  8 20 03 21 23 16 17 22 26
  -9488390.82808  -7393543.41208  22680024.06508  22680025.74508
 -33046530.88009 -25750522.48708  18670151.80809  18670152.61108
  -9156530.74808  -7134957.23208  22175720.69808  22175722.23408
 -23220858.83408 -18094169.63508  19336246.52908  19336247.17408
  -7636473.85108  -5950462.91507  23172122.38308  23172123.46607
 -28570831.62308 -22262964.76408  19018901.17508  19018901.55008
 -10919113.31208  -8508397.17608  21844875.52608  21844876.21008
 -20086094.75408 -15651494.58808  20303493.24508  20303493.09908
 93 04 15 06 46 00.0000000  0  8 20 03 21 23 16 17 22 26
  -9163102.33508  -7140071.91108  22741924.40008  22741926.14008
 -33207549.59809 -25875991.60108  18639510.94509  18639511.76008
  -9589225.54608  -7472121.92608  22093381.45908  22093383.00508
 -23482880.21408 -18298342.06708  19286385.52408  19286386.16808
  -7306944.72908  -5693686.95807  23234829.67908  23234830.76307
 -28711956.78808 -22372932.38808  18992045.93808  18992046.27408
 -11064538.85208  -8621715.75408  21817201.96508  21817202.62308
 -20149720.69008 -15701073.17108  20291385.52808  20291385.37708
 93 04 15 06 48 00.0000000  0  8 20 03 21 23 16 17 22 26
  -8840678.92508  -6888832.92908  22803279.54908  22803281.31308
 -33362974.98709 -25997102.27608  18609934.46109  18609935.26408
 -10020046.06508  -7807826.13308  22011398.98408  22011400.40208
 -23739771.23208 -18498516.81408  19237500.72208  19237501.32608
  -6978780.15907  -5437974.21907  23297277.23307  23297278.29907
 -28851707.26008 -22481828.82508  18965452.27808  18965452.60808
 -11203106.58108  -8729690.58508  21790833.33608  21790834.04308
 -20205828.98208 -15744793.85008  20280708.55008  20280708.38808
 93 04 15 06 50 00.0000000  0  8 20 03 21 23 16 17 22 26
  -8520948.41208  -6639692.30708  22864122.25208  22864124.05308
 -33512323.62509 -26113477.82408  18581514.34709  18581515.13608
 -10448704.67808  -8141845.74308  21929827.95208  21929829.36108
 -23990964.55508 -18694251.80308  19189700.11608  19189700.74008
  -6652259.57207  -5183542.44007  23359411.91007  23359412.87107
 -28989293.54908 -22589038.88608  18939270.47608  18939270.78608
 -11334481.80608  -8832060.86608  21765833.45008  21765834.21108
 -20254004.23008 -15782332.94008  20271541.01108  20271540.84908
 93 04 15 06 52 00.0000000  0  8 20 03 21 23 16 17 22 26
  -8204124.85808  -6392816.86407  22924411.81308  22924413.66307
 -33655501.46409 -26225044.95708  18554268.50409  18554269.30108
 -10875075.42208  -8474082.61308  21848692.35208  21848693.65208
 -24236966.75408 -18885941.75408  19142887.40808  19142888.01008
  -6327086.58507  -4930160.62007  23421290.08707  23421291.05307
 -29125469.41008 -22695149.91508  18913357.02608  18913357.32908
 -11458728.07708  -8928876.11308  21742190.09508  21742190.89308
 -20294114.95408 -15813587.98808  20263908.10908  20263907.89608
 93 04 15 06 54 00.0000000  0  8 21 20 03 23 16 17 22 26
 -11299170.31008  -8804546.09508  21767989.71008  21767991.00708
  -7890579.79608  -6148496.10207  22984077.55808  22984079.27207
 -33792581.27409 -26331860.38808  18528183.08109  18528183.85408
 -24477507.95608 -19073376.38008  19097113.89108  19097114.45408
  -6003861.63307  -4678296.65606  23482797.51507  23482798.35906
 -29260191.90108 -22800128.44808  18887720.14708  18887720.45408
 -11576076.11808  -9020316.12908  21719859.45908  21719860.28208
 -20326637.36308 -15838930.07208  20257719.27808  20257719.04708
 93 04 15 06 56 00.0000000  0  8 21 20 03 23 16 17 22 26
 -11721015.47308  -9133256.54908  21687715.24908  21687716.53708
  -7580446.08707  -5906833.56007  23043094.04207  23043095.92407
 -33923399.11109 -26433796.36308  18503289.27509  18503290.03408
 -24712547.45508 -19256523.96808  19052387.30308  19052387.85308
  -5682659.41006  -4428008.84606  23543920.05406  23543920.71406
 -29393157.37908 -22903737.88208  18862417.62708  18862417.94408
 -11686521.88508  -9106377.75308  21698842.37208  21698843.15208
 -20351504.15308 -15858306.74508  20252987.16308  20252986.91308
 93 04 15 06 58 00.0000000  0  7 21 20 22 03 23 17 26
 -12140401.72708  -9460050.96208  21607908.64808  21607909.91708
  -7273666.73207  -5667784.77907  23101472.18407  23101474.14207
 -11789882.31908  -9186918.34608  21679173.54308  21679174.29108
 -34047609.21709 -26530583.46008  18479652.86409  18479653.63808
 -24942074.40008 -19435376.04908  19008709.73508  19008710.24708
 -29524306.36008 -23005931.86508  18837460.78208  18837461.09108
 -20368294.77308 -15871390.30108  20249792.05108  20249791.82208
 93 04 15 07 00 00.0000000  0  7 21 22 20 03 23 17 26
 -12557572.35208  -9785118.92208  21528523.61508  21528524.90408
 -11886388.08908  -9262117.65508  21660809.17808  21660809.80708
  -6970591.12607  -5431622.02707  23159145.66107  23159147.50707
 -34165275.49309 -26622271.46808  18457261.70609  18457262.47508
 -25166273.01808 -19610076.18208  18966046.05208  18966046.55808
 -29653916.03408 -23106926.40008  18812796.87008  18812797.14108
 -20377476.82308 -15878545.11008  20248044.82008  20248044.58008
 93 04 15 07 02 00.0000000  0  7 21 22 20 03 23 17 26
 -12971976.50208 -10108031.17108  21449665.06408  21449666.38808
 -11975800.09508  -9331789.36408  21643794.61008  21643795.23608
  -6671092.23207  -5198246.36006  23216138.51007  23216140.34506
 -34275993.32309 -26708545.10508  18436192.81809  18436193.59608
 -25385221.53908 -19780685.33608  18924381.49508  18924381.97208
 -29781556.70708 -23206386.65008  18788507.66808  18788507.93408
 -20378534.75708 -15879369.44508  20247843.38908  20247843.13708
 93 04 15 07 04 00.0000000  0  6 21 22 03 23 17 26
 -13382394.57608 -10427837.40008  21371564.99308  21371566.37608
 -12057106.82708  -9395145.28008  21628322.45808  21628323.15208
 -34378582.20309 -26788484.50108  18416670.80609  18416671.57708
 -25597464.29008 -19946069.22008  18883993.01108  18883993.47908
 -29906131.01208 -23303457.51608  18764801.94808  18764802.23608
 -20370526.19608 -15873128.98708  20249367.38208  20249367.15208
 93 04 15 07 06 00.0000000  0  6 21 22 03 23 17 26
 -13789465.33308 -10745035.33208  21294101.94408  21294103.30608
 -12130819.42108  -9452583.68708  21614295.43408  21614296.12008
 -34473380.78709 -26862353.53708  18398631.23709  18398632.02308
 -25803445.47208 -20106573.96308  18844796.01208  18844796.46408
 -30028021.13108 -23398436.80608  18741607.00408  18741607.27308
 -20353947.06808 -15860210.17108  20252522.26408  20252522.01308
 93 04 15 07 08 00.0000000  0  6 21 22 03 23 17 26
 -14193354.91208 -11059754.43708  21217244.26408  21217245.57908
 -12197273.62008  -9504366.18408  21601649.57308  21601650.32408
 -34560554.60709 -26930281.21008  18382042.62609  18382043.40408
 -26003679.08809 -20262600.08408  18806692.76609  18806693.20308
 -30147751.48808 -23491733.17108  18718823.02908  18718823.29808
 -20329379.35308 -15841066.48508  20257197.34808  20257197.07608
 93 04 15 07 10 00.0000000  0  7 21 22 28 03 23 17 26
 -14593945.44308 -11371902.84108  21141014.42608  21141015.69708
 -12256303.31408  -9550363.35108  21590416.54208  21590417.40008
        -0.19816        -0.45316  23213900.17616  23213900.35016
 -34639762.74809 -26992001.86008  18366969.83009  18366970.61908
 -26197741.98309 -20413817.85808  18769763.73609  18769764.16308
 -30265143.50608 -23583207.45308  18696484.07108  18696484.34108
 -20296373.41908 -15815347.56708  20263478.12908  20263477.89308
 93 04 15 07 12 00.0000000  0  7 21 22 28 03 23 17 26
 -14991005.70408 -11681300.40208  21065456.34608  21065457.54508
 -12308039.87908  -9590677.56508  21580571.46208  21580572.28308
   -519436.85106   -404756.16406  23115054.73106  23115054.66906
 -34710963.67609 -27047483.11908  18353420.75709  18353421.55808
 -26385921.46209 -20560451.15608  18733954.33109  18733954.73608
 -30380035.71108 -23672733.82808  18674620.81408  18674621.06608
 -20255028.13508 -15783130.45508  20271345.86808  20271345.62508
 93 04 15 07 14 00.0000000  0  7 22 28 03 21 23 17 26
 -12352833.08308  -9625581.37308  21572047.61708  21572048.43408
  -1039123.63707   -809706.79406  23016161.57307  23016161.69006
 -34774334.08709 -27096862.67908  18341361.78509  18341362.57408
 -15384873.96308 -11988210.68508  20990505.69608  20990506.90008
 -26568318.87309 -20702578.95308  18699245.27909  18699245.66608
 -30492528.31708 -23760390.39008  18653214.17908  18653214.41908
 -20206083.12008 -15744991.47408  20280659.78608  20280659.58808
 93 04 15 07 16 00.0000000  0  7 22 28 03 21 23 17 26
 -12390427.09008  -9654875.42208  21564893.77508  21564894.54508
  -1558504.88607  -1214419.36007  22917326.50807  22917326.49707
 -34829442.48609 -27139804.30608  18330875.01309  18330875.81608
 -15775197.96508 -12292359.21208  20916229.46108  20916230.61608
 -26745109.39809 -20840337.75108  18665603.07209  18665603.44108
 -30602513.05008 -23846092.76308  18632284.78008  18632285.01908
 -20148564.81108 -15700172.00608  20291605.16608  20291604.95808
 93 04 15 07 18 00.0000000  0  7 22 28 03 21 23 17 26
 -12420352.79708  -9678194.18508  21559199.13608  21559199.86408
  -2076945.58508  -1618399.02507  22818670.31408  22818670.32107
 -34875645.04109 -27175806.31008  18322082.97709  18322083.75808
 -16161310.65708 -12593226.20008  20842754.62808  20842755.84908
 -26915513.09609 -20973119.80608  18633176.27709  18633176.62708
 -30709317.80708 -23929317.23108  18611960.48508  18611960.73508
 -20082224.12408 -15648477.95608  20304229.34908  20304229.11908
 93 04 15 07 20 00.0000000  0  7 22 28 03 23 21 17 26
 -12443272.60608  -9696053.80108  21554837.60108  21554838.37308
  -2594616.81008  -2021779.10908  22720160.67208  22720160.78308
 -34913431.52309 -27205250.33208  18314892.45109  18314893.25308
 -27079789.02709 -21101126.97608  18601915.58609  18601915.92108
 -16543791.38208 -12891263.08708  20769970.85708  20769972.11908
 -30813449.24808 -24010458.60108  18592144.90108  18592145.14408
 -20007764.84508 -15590457.73008  20318398.51208  20318398.28908
 93 04 15 07 22 00.0000000  0  7 22 28 03 23 21 17 26
 -12459862.84708  -9708981.28108  21551680.57008  21551681.35208
  -3112007.14008  -2424940.32608  22621704.51608  22621704.55508
 -34943303.49409 -27228527.20208  18309208.01209  18309208.81008
 -27238742.86509 -21224987.05908  18571667.65009  18571667.97608
 -16923254.16808 -13186948.33708  20697761.47008  20697762.73808
 -30915615.60008 -24090068.72808  18572703.29808  18572703.52708
 -19926068.07608 -15526797.90308  20333944.84108  20333944.57808
 93 04 15 07 24 00.0000000  0  7 22 28 03 23 21 17 26
 -12470203.75208  -9717039.16108  21549712.68108  21549713.58408
  -3629023.68208  -2827810.28408  22523319.61608  22523319.71608
 -34965169.12409 -27245565.37508  18305047.13109  18305047.94308
 -27392587.21709 -21344865.72308  18542391.97709  18542392.28608
 -17299460.65108 -13480096.20208  20626171.73308  20626172.99508
 -31015902.25308 -24168214.15808  18553619.34408  18553619.58408
 -19837060.63308 -15457441.44808  20350882.39008  20350882.14308
 93 04 15 07 26 00.0000000  0  7 22 28 03 23 21 17 26
 -12474468.50808  -9720362.37408  21548901.15008  21548902.04108
  -4145661.94508  -3230385.49108  22425006.59808  22425006.59408
 -34979030.77609 -27256366.68908  18302409.36709  18302410.18508
 -27541412.08109 -21460833.10508  18514071.56509  18514071.86108
 -17672492.52308 -13770770.33108  20555186.08308  20555187.30608
 -31114010.75508 -24244662.32608  18534949.92408  18534950.15908
 -19740860.27308 -15382480.12208  20369188.73708  20369188.46908
 93 04 15 07 28 00.0000000  0  7 28 22 03 23 21 17 26
  -4660448.66408  -3631517.99008  22327045.71008  22327045.85508
 -12471605.53108  -9718131.51808  21549446.04908  21549446.93808
 -34983665.53209 -27259978.22108  18301527.43009  18301528.23108
 -27684176.61109 -21572078.14908  18486904.32409  18486904.62208
 -18041124.72908 -14058016.15508  20485037.70508  20485038.89308
 -31208695.92608 -24318442.96408  18516931.92708  18516932.14208
 -19636426.92308 -15301103.48308  20389061.76208  20389061.49808
 93 04 15 07 30 00.0000000  0  7 28 22 03 23 21 17 26
  -5173702.72808  -4031456.17008  22229376.71808  22229376.81408
 -12462061.82808  -9710694.90408  21551262.26008  21551263.07408
 -34979353.48609 -27256618.22208  18302348.01809  18302348.82908
 -27821167.02709 -21678823.88108  18460835.86109  18460836.14308
 -18406208.83408 -14342497.24208  20415564.48508  20415565.67708
 -31300335.22608 -24389850.19908  18499493.52608  18499493.74708
 -19524170.93408 -15213631.28808  20410423.38408  20410423.09908
 93 04 15 07 32 00.0000000  0  7 28 22 03 23 21 17 26
  -5685604.96108  -4430340.99108  22131964.98708  22131965.05208
 -12446302.95208  -9698415.30408  21554261.06508  21554261.95508
 -34966392.16909 -27246518.52708  18304814.47909  18304815.32308
 -27952773.23509 -21781374.13008  18435792.02009  18435792.27708
 -18767670.95508 -14624155.99208  20346780.48308  20346781.61808
 -31389180.31808 -24459080.13408  18482586.86408  18482587.06108
 -19404714.80908 -15120548.60208  20433155.05908  20433154.77608
 93 04 15 07 34 00.0000000  0  7 28 22 03 21 23 17 26
  -6196006.20408  -4828056.19408  22034838.86808  22034838.94808
 -12424616.81308  -9681517.05708  21558387.84608  21558388.76908
 -34944905.73209 -27229775.88108  18308903.22609  18308904.08408
 -19125405.43408 -14902910.08108  20278705.84908  20278706.96108
 -28079600.90409 -21880200.84408  18411657.46609  18411657.71708
 -31475690.30708 -24526490.50908  18466124.57108  18466124.78608
 -19277957.90008 -15021777.00008  20457276.08808  20457275.85408
 93 04 15 07 36 00.0000000  0  7 28 22 03 21 23 17 26
  -6704923.79108  -5224615.31108  21937994.90508  21937994.97508
 -12397292.83108  -9660225.67408  21563587.41108  21563588.33208
 -34915020.90009 -27206489.02808  18314590.14809  18314591.00508
 -19479733.28508 -15179009.65408  20211279.45208  20211280.58708
 -28201349.82109 -21975070.08908  18388489.38009  18388489.61608
 -31559920.29808 -24592124.26608  18450096.11708  18450096.31808
 -19144289.65208 -14917619.94808  20482712.31608  20482712.07508
 93 04 15 07 38 00.0000000  0  7 28 22 03 21 23 17 26
  -7212003.43708  -5619742.26908  21841500.92208  21841501.04708
 -12364178.97508  -9634422.71008  21569888.75608  21569889.70108
 -34876426.19809 -27176415.26608  18321934.50009  18321935.36008
 -19830453.93208 -15452298.41008  20144539.50808  20144540.62208
 -28317743.83909 -22065766.69108  18366340.30109  18366340.52808
 -31641524.17108 -24655711.70208  18434567.41508  18434567.62608
 -19003741.49508 -14808101.93908  20509457.73508  20509457.50308
 93 04 15 07 40 00.0000000  0  7 28 22 03 21 23 17 26
  -7717230.55508  -6013425.69208  21745359.29908  21745359.34508
 -12325292.40308  -9604121.52208  21577288.60508  21577289.53308
 -34828982.60609 -27139446.26808  18330962.73209  18330963.61908
 -20177455.28708 -15722689.02608  20078507.30308  20078508.42008
 -28429056.76409 -22152504.00308  18345158.16309  18345158.39008
 -31720217.96308 -24717031.54908  18419592.50108  18419592.70808
 -18856393.62808 -14693285.45608  20537497.20108  20537496.98608
 93 04 15 07 42 00.0000000  0  7 28 22 03 21 23 17 26
  -8219217.70408  -6404584.46508  21649834.16808  21649834.28808
 -12279850.53708  -9568712.31808  21585936.00808  21585936.88008
 -34771751.58309 -27094850.70708  18341853.45909  18341854.36208
 -20519586.75508 -15989284.92008  20013401.80808  20013402.91008
 -28534362.02909 -22234560.02408  18325119.17409  18325119.38708
 -31795196.69708 -24775456.54808  18405324.55308  18405324.73708
 -18701041.63208 -14572231.98908  20567059.72908  20567059.55308
 93 04 15 07 44 00.0000000  0  7 28 22 03 21 23 17 26
  -8717195.47808  -6792619.06208  21555072.23708  21555072.30508
 -12227731.80908  -9528100.36708  21595853.97808  21595854.76308
 -34704461.55509 -27042416.96308  18354658.36609  18354659.26708
 -20856863.94808 -16252098.26308  19949220.03908  19949221.11508
 -28633536.88909 -22311839.10308  18306246.80509  18306247.01808
 -31865929.89408 -24830573.34008  18391864.49108  18391864.68308
 -18538011.80308 -14445195.79708  20598083.31308  20598083.14908
 93 04 15 07 46 00.0000000  0  7 28 22 03 21 23 17 26
  -9212162.25208  -7178307.41108  21460883.13408  21460883.15908
 -12169791.80008  -9482952.36608  21606879.67308  21606880.48308
 -34627820.76809 -26982696.91608  18369242.66509  18369243.57208
 -21190008.19008 -16511691.12908  19885824.76108  19885825.83408
 -28727508.33209 -22385063.57208  18288364.58809  18288364.79008
 -31933076.07808 -24882895.05508  18379086.94108  18379087.14508
 -18367885.77008 -14312630.09108  20630457.22508  20630457.03308
 93 04 15 07 48 00.0000000  0  7 28 22 03 21 23 17 26
  -9704298.56108  -7561790.18808  21367232.77008  21367232.82808
 -12106625.34908  -9433731.81708  21618899.89608  21618900.77408
 -34542280.09208 -26916041.89408  18385520.55308  18385521.48108
 -21518916.02008 -16767982.87708  19823235.64808  19823236.71408
 -28816256.71309 -22454218.12808  18271476.35609  18271476.54908
 -31997326.96108 -24932960.69408  18366860.45008  18366860.66008
 -18190908.36808 -14174725.65508  20664134.91708  20664134.70208
 93 04 15 07 50 00.0000000  0  8 28 01 22 03 21 23 17 26
 -10194290.62708  -7943602.13208  21273990.30108  21273990.35608
        -0.80417        -0.38616  22687465.59217  22687466.85616
 -12039287.81308  -9381261.06308  21631713.78308  21631714.73908
 -34448755.06808 -26843165.30008  18403317.80408  18403318.73108
 -21845148.85008 -17022190.21508  19761155.50808  19761156.57708
 -28901314.78609 -22520497.11908  18255290.31309  18255290.50008
 -32059254.20408 -24981215.71108  18355076.11408  18355076.31408
 -18008832.41608 -14032848.33208  20698782.86208  20698782.65808
 93 04 15 07 52 00.0000000  0  8 28 01 22 03 21 23 17 26
 -10682149.36908  -8323751.74308  21181153.76208  21181153.76408
   -536333.21607   -417921.61806  22585404.73807  22585406.31006
 -11968248.55308  -9325905.86108  21645232.06208  21645233.11808
 -34347577.60708 -26764325.76708  18422571.25508  18422572.19408
 -22168558.98708 -17274198.06308  19699612.60008  19699613.61408
 -28982999.36209 -22584147.41308  18239746.19209  18239746.36208
 -32119238.22908 -25027956.52908  18343661.53108  18343661.74808
 -17821590.24908 -13886945.38408  20734413.92908  20734413.73908
 93 04 15 07 54 00.0000000  0  8 28 01 22 03 21 23 17 26
 -11166704.84708  -8701327.39408  21088945.85608  21088945.83708
  -1073467.38007   -836467.58107  22483191.45007  22483192.88607
 -11892452.52608  -9266844.08608  21659655.58608  21659656.73308
 -34237560.47808 -26678598.17408  18443506.84708  18443507.81508
 -22488298.90508 -17523346.00008  19638768.07508  19638769.08708
 -29059807.64409 -22643997.99908  18225130.09009  18225130.25108
 -32176232.38108 -25072367.57608  18332815.90008  18332816.12908
 -17628507.62208 -13736491.43208  20771156.32608  20771156.13308
 93 04 15 07 56 00.0000000  0  8 01 22 28 03 21 23 17 26
  -1611244.25908  -1255514.38707  22380855.77508  22380857.08807
 -11812091.74008  -9204225.34108  21674947.77608  21674948.89408
 -11647810.77308  -9076215.10108  20997394.39808  20997394.40208
 -34118767.53208 -26586032.28508  18466112.43508  18466113.40908
 -22804301.75508 -17769581.92408  19578634.74308  19578635.74608
 -29131908.14409 -22700180.18608  18211409.80209  18211409.95108
 -32230147.09408 -25114379.05908  18322556.30908  18322556.54408
 -17429588.14308 -13581489.29508  20809009.39808  20809009.27208
 93 04 15 07 58 00.0000000  0  8 01 22 03 21 28 23 17 26
  -2148723.01208  -1674328.90407  22278576.82508  22278578.14707
 -11726276.44508  -9137356.33008  21691277.97708  21691279.02708
 -33990184.97408 -26485838.12908  18490580.91808  18490581.88908
 -23115421.66708 -18012012.96708  19519430.50308  19519431.49708
 -12124092.62008  -9447343.79508  20906760.96108  20906760.94608
 -29198922.52709 -22752399.16708  18198657.38709  18198657.54108
 -32279676.02308 -25152973.04808  18313131.27508  18313131.49108
 -17223692.91008 -13421051.50308  20848190.11808  20848189.93608
 93 04 15 08 00 00.0000000  0  8 01 22 03 21 28 23 17 26
  -2686024.22808  -2093005.09608  22176331.62608  22176333.01108
 -11635106.74308  -9066315.06008  21708627.10108  21708628.04708
 -33851793.45308 -26378000.63208  18516915.98708  18516916.96308
 -23421680.78508 -18250656.37708  19461151.28508  19461152.27508
 -12595551.38908  -9814714.25008  20817045.39608  20817045.43408
 -29260734.61409 -22800564.41308  18186894.92309  18186895.07308
 -32324784.50308 -25188122.52808  18304547.43908  18304547.67008
 -17011060.99408 -13255364.34708  20888652.67008  20888652.51108
 93 04 15 08 02 00.0000000  0  8 01 22 03 28 21 23 17 26
  -3222491.29608  -2511031.31808  22074245.24208  22074246.56208
 -11538882.18708  -8991334.93908  21726938.12608  21726938.95508
 -33703777.10908 -26262663.27308  18545082.59408  18545083.56608
 -13061911.12008 -10178111.42408  20728300.00608  20728300.00008
 -23722948.51508 -18485410.37708  19403821.87408  19403822.86308
 -29317056.20909 -22844451.35808  18176177.27309  18176177.42108
 -32365406.93508 -25219776.38908  18296817.25508  18296817.49708
 -16792050.78608 -13084707.09508  20930328.85608  20930328.77308
 93 04 15 08 04 00.0000000  0  8 26 01 22 03 28 21 23 17
 -16567092.32808 -12909414.83908  20973137.12508  20973137.06208
  -3758520.27008  -2928716.18008  21972242.24808  21972243.55208
 -11437883.49808  -8912634.72308  21746157.61308  21746158.43508
 -33546305.05508 -26139957.83308  18575048.58208  18575049.57908
 -13523196.48308 -10537554.53908  20640520.46708  20640520.40708
 -24019724.64908 -18716664.44908  19347347.23008  19347348.18908
 -29368120.56909 -22884241.75508  18166460.04509  18166460.18808
 -32401739.41808 -25248087.43008  18289903.40908  18289903.65808
 93 04 15 08 06 00.0000000  0  8 26 01 22 28 03 21 23 17
 -16336415.97508 -12729667.07908  21017033.40008  21017033.33208
  -4293468.76608  -3345559.11208  21870444.86208  21870446.19708
 -11332225.50908  -8830303.87308  21766263.70708  21766264.49708
 -13979140.75308 -10892835.75708  20553756.98308  20553756.86208
 -33379386.89308 -26009891.79108  18606812.09208  18606813.09808
 -24312052.35008 -18944452.18208  19291719.03008  19291719.95908
 -29414450.12009 -22920342.69108  18157643.80109  18157643.94908
 -32434233.79108 -25273407.73608  18283719.97708  18283720.23608
 93 04 15 08 08 00.0000000  0  8 01 22 26 28 03 21 23 17
  -4827940.59708  -3762030.63208  21768738.26408  21768739.51708
 -11222423.64708  -8744744.03108  21787158.24808  21787159.21408
 -16099850.31508 -12545330.25608  21062050.35408  21062050.32808
 -14429762.80308 -11243969.79708  20468006.46808  20468006.36308
 -33203437.18808 -25872788.18608  18640294.24608  18640295.28008
 -24599861.48908 -19168718.96208  19236950.73808  19236951.63308
 -29456223.91209 -22952893.68208  18149694.52709  18149694.67808
 -32462575.05008 -25295491.84908  18278326.88008  18278327.11408
 93 04 15 08 10 00.0000000  0  8 01 22 26 28 03 21 23 17
  -5362191.86308  -4178330.30008  21667073.68008  21667074.84908
 -11109163.80808  -8656489.64808  21808710.85208  21808711.94808
 -15858080.52108 -12356938.25908  21108057.70308  21108057.64808
 -14875320.91208 -11591157.90608  20383219.57608  20383219.43708
 -33019043.33108 -25729104.71608  18675383.26408  18675384.30508
 -24883776.71608 -19389951.53408  19182923.38108  19182924.25908
 -29493778.35109 -22982156.86808  18142548.12109  18142548.27908
 -32487183.30508 -25314667.12708  18273644.03208  18273644.27808
 93 04 15 08 12 00.0000000  0  8 01 22 26 28 03 21 23 17
  -5896487.02808  -4594664.19108  21565400.74908  21565401.84208
 -10993419.99608  -8566299.69708  21830736.13308  21830737.31408
 -15612736.15108 -12165760.87308  21154745.17608  21154745.14408
 -15317014.07808 -11935334.37408  20299168.16708  20299168.00908
 -32827087.66508 -25579528.92908  18711911.26208  18711912.32408
 -25164791.13608 -19608923.74608  19129448.08408  19129448.92608
 -29528093.87509 -23008896.22608  18136018.08109  18136018.20308
 -32509030.75508 -25331691.12908  18269486.59808  18269486.83608
 93 04 15 08 14 00.0000000  0  8 01 22 26 28 03 21 23 17
  -6430853.54708  -5011053.68808  21463714.21608  21463715.26408
 -10874988.29608  -8474015.26008  21853272.93208  21853274.20408
 -15363119.79508 -11971254.69108  21202245.68408  21202245.71808
 -15753859.58608 -12275733.44208  20216039.31508  20216039.13708
 -32627279.46508 -25423834.28508  18749933.55008  18749934.59708
 -25442458.70108 -19825288.01408  19076609.64008  19076610.47808
 -29559471.33609 -23033346.18408  18130047.15709  18130047.27408
 -32527803.43908 -25346319.21008  18265914.31608  18265914.56508
 93 04 15 08 16 00.0000000  0  8 01 22 26 28 03 21 23 17
  -6963412.23708  -5426034.47308  21362371.75808  21362372.78608
 -10752938.42908  -8378911.47508  21876498.31608  21876499.56208
 -15108660.92808 -11772975.12008  21250667.63008  21250667.70908
 -16184615.33408 -12611387.24808  20134069.20908  20134069.08808
 -32418607.69308 -25261232.95408  18789642.49008  18789643.54808
 -25715560.51208 -20038094.53408  19024640.03108  19024640.85808
 -29586270.14209 -23054228.35908  18124947.46509  18124947.60308
 -32542257.51608 -25357582.13708  18263163.83008  18263164.07408
 93 04 15 08 18 00.0000000  0  8 01 22 26 28 03 21 23 17
  -7495136.45708  -5840364.99808  21261187.98408  21261189.07208
 -10627930.24608  -8281502.49608  21900286.64408  21900287.77908
 -14849874.42608 -11571323.37008  21299913.15808  21299913.21908
 -16609634.75108 -12942571.19008  20053190.63008  20053190.49508
 -32201653.03808 -25092177.43408  18830927.63708  18830928.72508
 -25984760.79608 -20247860.93308  18973412.89608  18973413.70908
 -29609280.88409 -23072158.80008  18120568.69209  18120568.81808
 -32552576.44608 -25365622.87508  18261200.20808  18261200.42808
 93 04 15 08 20 00.0000000  0  8 01 22 26 28 03 21 23 17
  -8025775.51308  -6253849.93208  21160210.73808  21160211.78808
 -10500221.79308  -8181989.42608  21924588.81208  21924589.86708
 -14586478.64708 -11366079.98608  21350035.76608  21350035.84308
 -17028775.45808 -13269174.32708  19973430.77508  19973430.67408
 -31976601.80208 -24916812.89708  18873753.48808  18873754.59008
 -26250308.24708 -20454780.94508  18922880.82208  18922881.62908
 -29628700.58309 -23087291.02708  18116873.24409  18116873.35608
 -32558958.54308 -25370595.95508  18259985.72708  18259985.96808
 93 04 15 08 22 00.0000000  0  8 01 22 26 28 03 21 23 17
  -8554593.50208  -6665915.86208  21059579.95908  21059581.06708
 -10369986.48008  -8080507.37608  21949371.85508  21949372.76908
 -14319032.59008 -11157680.54208  21400929.05308  21400929.15608
 -17441975.43908 -13591148.32708  19894801.24508  19894801.13008
 -31743558.73908 -24735220.96008  18918100.12808  18918101.29108
 -26511984.73008 -20658684.61008  18873085.39908  18873086.15708
 -29644354.50609 -23099488.88208  18113894.39009  18113894.50808
 -32561477.30708 -25372558.64708  18259506.44008  18259506.66508
 93 04 15 08 24 00.0000000  0  8 22 26 28 03 21 23 01 17
 -10237101.05808  -7976960.29208  21974659.09808  21974659.92608
 -14047697.95908 -10946251.02208  21452562.38508  21452562.50608
 -17848467.47308 -13907895.35408  19817448.50508  19817448.36908
 -31502338.97308 -24547257.57508  18964002.77508  18964003.96808
 -26769528.04908 -20859367.63708  18824076.44108  18824077.19208
 -29656254.18109 -23108761.35208  18111629.97109  18111630.09308
  -9081755.69508  -7076691.54908  20959264.22008  20959265.44008
 -32559704.43508 -25371177.20708  18259843.82608  18259844.07708
 93 04 15 08 26 00.0000000  0  8 22 26 28 03 21 23 01 17
 -10101746.38108  -7871489.10308  22000416.19808  22000417.00308
 -13772536.02708 -10731839.17308  21504924.02708  21504924.06908
 -18248336.77808 -14219481.80808  19741355.86308  19741355.75408
 -31253064.44608 -24353017.75408  19011438.20708  19011439.38108
 -27023093.90408 -21056951.35508  18775824.44808  18775825.17408
 -29664526.28209 -23115207.14308  18110055.84209  18110055.96808
  -9606787.60108  -7485807.26508  20859353.88308  20859355.16508
 -32553438.47108 -25366294.65808  18261036.20508  18261036.43508
 93 04 15 08 28 00.0000000  0  8 22 26 28 03 21 23 01 17
  -9963447.72708  -7763723.91708  22026733.48708  22026734.35108
 -13492826.78008 -10513883.95408  21558150.97708  21558151.05208
 -18640850.80708 -14525336.88208  19666662.85008  19666662.74308
 -30995207.86508 -24152090.62408  19060506.71508  19060507.95508
 -27272009.92608 -21250911.82808  18728457.26408  18728457.98008
 -29668443.66709 -23118259.64908  18109310.37809  18109310.50108
 -10128929.82208  -7892671.28508  20759993.43808  20759994.73708
 -32542042.94908 -25357415.05808  18263204.72208  18263204.97008
 93 04 15 08 30 00.0000000  0  8 22 26 28 03 21 23 01 17
  -9822465.99108  -7653868.00808  22053561.24808  22053562.18208
 -13208683.42608 -10292473.58408  21612221.72208  21612221.70608
 -19025578.78508 -14825124.90408  19593451.62808  19593451.56808
 -30728981.87908 -23944641.88408  19111167.89808  19111169.14108
 -27516402.66308 -21441347.66608  18681950.82408  18681951.51808
 -29668404.31609 -23118228.98408  18109317.89009  18109318.01108
 -10648197.90108  -8297295.72208  20661179.96908  20661181.31608
 -32525543.42108 -25344558.30708  18266344.49608  18266344.75408
 93 04 15 08 32 00.0000000  0  8 22 26 28 03 21 23 01 17
  -9679208.57808  -7542238.84408  22080822.17208  22080823.18708
 -12920686.85108 -10068060.71908  21667025.60208  21667025.69708
 -19403007.95608 -15119225.54208  19521629.15808  19521629.03008
 -30454749.30208 -23730954.24708  19163352.66608  19163353.92408
 -27756381.30208 -21628343.94708  18636284.34008  18636285.01208
 -29664356.83809 -23115075.10908  18110088.08909  18110088.21108
 -11164619.47708  -8699702.09608  20562908.13908  20562909.48108
 -32504403.18108 -25328085.42108  18270367.36608  18270367.64508
 93 04 15 08 34 00.0000000  0  8 22 26 28 03 21 23 01 17
  -9533958.56008  -7429056.99307  22108462.23908  22108463.36207
 -12629185.98908  -9840917.20508  21722496.40108  21722496.49608
 -19772771.33508 -15407352.83708  19451265.45608  19451265.37008
 -30172754.61008 -23511218.20908  19217014.54008  19217015.82108
 -27992043.74708 -21811976.96208  18591439.25708  18591439.91708
 -29656726.98309 -23109129.77308  18111539.91109  18111540.03408
 -11678107.71208  -9099822.75508  20465194.54408  20465195.85108
 -32478637.99808 -25308008.67908  18275270.35808  18275270.61908
 93 04 15 08 36 00.0000000  0  8 22 26 28 03 21 23 01 17
  -9387081.21808  -7314607.09107  22136412.08008  22136413.32307
 -12334347.38708  -9611172.81908  21778602.37808  21778602.42908
 -20135070.12408 -15689663.57608  19382322.36008  19382322.28108
 -29883327.99308 -23285691.05508  19272090.64108  19272091.92108
 -28223794.70708 -21992562.07408  18547338.46508  18547339.09608
 -29645922.22709 -23100710.48708  18113596.05709  18113596.19008
 -12188412.44108  -9497462.75208  20368086.82508  20368088.02108
 -32448113.72708 -25284223.55708  18281078.94408  18281079.23408
 93 04 15 08 38 00.0000000  0  8 22 26 28 03 21 23 01 17
  -9238739.24008  -7199015.92807  22164640.64108  22164641.89007
 -12036612.13108  -9379171.26808  21835259.42608  21835259.39208
 -20489652.03108 -15965961.16208  19314847.66808  19314847.57908
 -29586602.99908 -23054476.85808  19328555.61308  19328556.91608
 -28451561.83508 -22170042.90608  18503995.77208  18503996.39508
 -29632042.13709 -23089894.83208  18116237.37409  18116237.51408
 -12695948.51708  -9892945.36708  20271505.88008  20271507.07808
 -32412995.56708 -25256858.78108  18287761.72708  18287762.03508
 93 04 15 08 40 00.0000000  0  8 22 26 28 03 21 23 01 17
  -9089119.66907  -7082429.23807  22193112.44607  22193113.60607
 -11735826.53608  -9144792.87208  21892496.96108  21892497.01208
 -20836295.23408 -16236072.74908  19248883.71308  19248883.64208
 -29282740.89108 -22817701.27908  19386378.71808  19386380.06008
 -28675427.90608 -22344483.95308  18461395.43008  18461396.05108
 -29614883.21209 -23076524.24108  18119502.64009  18119502.75008
 -13200159.99508 -10285837.38608  20175557.67208  20175558.76308
 -32373088.14808 -25225762.11708  18295355.86708  18295356.16508
 93 04 15 08 42 00.0000000  0  8 22 26 28 03 21 23 01 17
  -8938381.66007  -6964971.02707  22221796.97507  22221798.04407
 -11432234.76508  -8908227.79408  21950268.55408  21950268.57008
 -21174865.94308 -16499894.07708  19184455.83208  19184455.75808
 -28971880.60708 -22575472.57208  19445533.53308  19445534.86508
 -28895336.08208 -22515840.92008  18419548.31208  18419548.89408
 -29594323.28609 -23060503.52008  18123415.02809  18123415.16008
 -13700693.00908 -10675863.06408  20080309.35908  20080310.39808
 -32328441.25608 -25190972.35808  18303851.92708  18303852.23008
 93 04 15 08 44 00.0000000  0  8 22 26 28 03 21 23 01 17
  -8786887.90807  -6846923.95007  22250625.31907  22250626.44807
 -11126269.11808  -8669812.97208  22008491.81608  22008491.85408
 -21505328.93408 -16757397.70008  19121570.80408  19121570.72208
 -28654368.24408 -22328060.42408  19505954.16208  19505955.53608
 -29111642.60508 -22684391.40908  18378386.50108  18378387.08608
 -29571067.80509 -23042382.37208  18127840.37009  18127840.51308
 -14197938.57608 -11063327.08408  19985686.65308  19985687.60008
 -32279049.77508 -25152485.51808  18313250.79508  18313251.12208
 93 04 15 08 46 00.0000000  0  8 22 26 28 03 21 23 01 17
  -8634730.25307  -6728359.54307  22279580.07507  22279581.17707
 -10817799.35108  -8429446.96308  22067191.70608  22067191.69608
 -21827609.72608 -17008525.58308  19060242.83308  19060242.77308
 -28330282.17808 -22075525.90008  19567625.77508  19567627.13108
 -29324104.98208 -22849946.46408  18337956.21408  18337956.80108
 -29544773.55109 -23021893.35108  18132844.06109  18132844.17108
 -14691650.60608 -11448037.68208  19891736.30508  19891737.26808
 -32224922.34008 -25110308.32408  18323550.96408  18323551.28208
 93 04 15 08 48 00.0000000  0  8 22 26 28 03 21 23 01 17
  -8482077.75007  -6609409.53407  22308628.91007  22308629.97907
 -10506952.04808  -8187228.13908  22126343.79508  22126343.81308
 -22141577.20708 -17253175.57008  19000496.73108  19000496.65908
 -27999783.89708 -21817994.84808  19630517.57208  19630518.94808
 -29532895.17508 -23012640.07508  18298224.69508  18298225.28708
 -29515836.17109 -22999344.74608  18138350.63909  18138350.77508
 -15181404.66708 -11829664.14508  19798539.10708  19798540.16908
 -32166140.69708 -25064504.47908  18334736.73008  18334737.06308
 93 04 15 08 50 00.0000000  0  8 22 26 28 03 21 23 01 17
  -8329048.32307  -6490165.82807  22337749.46507  22337750.46607
 -10194422.51508  -7943698.50908  22185816.18008  22185816.20108
 -22446892.49508 -17491083.59508  18942397.25708  18942397.21508
 -27662987.62708 -21555556.27308  19694607.84208  19694609.20908
 -29737854.60008 -23172348.67308  18259222.19908  18259222.75408
 -29484346.04308 -22974806.99008  18144343.06108  18144343.17708
 -15666921.21908 -12207988.64808  19706148.27108  19706149.33908
 -32102472.84708 -25014893.20108  18346852.35708  18346852.68808
 93 04 15 08 52 00.0000000  0  8 22 26 28 03 21 23 01 17
  -8176002.39507  -6370909.26707  22366873.08707  22366874.06307
  -9880161.92908  -7698819.94908  22245617.86508  22245617.80708
 -22744026.67308 -17722616.73408  18885854.45508  18885854.37508
 -27320254.01608 -21288491.19708  19759827.93308  19759829.30408
 -29939313.48008 -23329329.57508  18220885.81808  18220886.33708
 -29450025.91008 -22948064.03408  18150873.96408  18150874.07608
 -16148529.42108 -12583267.67908  19614501.19108  19614502.22908
 -32034111.40508 -24961624.58008  18359861.15708  18359861.47408
 93 04 15 08 54 00.0000000  0  8 22 26 28 03 21 23 01 17
  -8023177.46107  -6251824.89406  22395954.51707  22395955.63606
  -9564028.69908  -7452482.20407  22305775.92508  22305775.73507
 -23032491.99708 -17947394.92208  18830961.27908  18830961.23608
 -26971823.16408 -21016986.71008  19826132.16608  19826133.54808
 -30137595.62608 -23483835.09908  18183153.94008  18183154.47008
 -29413280.59708 -22919431.32908  18157866.36608  18157866.47608
 -16626066.34108 -12955374.28308  19523628.90708  19523629.94208
 -31960921.25008 -24904593.32708  18373788.76908  18373789.11608
 93 04 15 08 56 00.0000000  0  8 22 26 28 03 21 23 01 17
  -7870700.16306  -6133011.41006  22424969.88106  22424970.94806
  -9246476.91308  -7205039.10707  22366203.80808  22366203.64807
 -23312201.38608 -18165350.30308  18777734.46108  18777734.41208
 -26617832.31608 -20741149.76508  19893494.40908  19893495.86808
 -30332313.27708 -23635563.09708  18146100.38008  18146100.90908
 -29374162.51608 -22888949.71708  18165310.31708  18165310.42608
 -17099383.19208 -13324192.52508  19433559.66208  19433560.61508
 -31883173.15108 -24844010.43308  18388583.77908  18388584.14208
 93 04 15 08 58 00.0000000  0  7 26 28 03 21 23 01 17
  -8928835.89107  -6957526.42207  22426648.79107  22426648.49907
 -23584283.73808 -18377362.53808  18725958.90608  18725958.88208
 -26259648.87608 -20462045.86908  19961654.47908  19961656.04108
 -30524716.82508 -23785487.90608  18109487.19908  18109487.75808
 -29334048.92708 -22857692.38808  18172943.68608  18172943.81108
 -17569406.79108 -13690444.59808  19344117.12208  19344118.05108
 -31801764.01308 -24780574.78308  18404075.46408  18404075.82608
 93 04 15 09 00 00.0000000  0  7 28 03 21 23 01 17 26
 -23847160.01408 -18582201.20908  18675935.18508  18675935.15608
 -25896212.41808 -20178848.71808  20030814.17908  20030815.75508
 -30713670.30808 -23932724.35508  18073530.47708  18073531.05808
 -29291595.89208 -22824612.11208  18181022.19208  18181022.32008
 -18034711.66308 -14053019.73908  19255572.45008  19255573.34108
 -31715266.33708 -24713174.04108  18420535.47308  18420535.84108
  -8610076.45207  -6709142.26707  22487306.57107  22487306.33907
 93 04 15 09 02 00.0000000  0  8 31 26 28 03 21 23 01 17
         0.01418         0.16718  21471079.60718  21471079.73818
  -8290765.29607  -6460328.23707  22548069.43607  22548068.99707
 -24101847.84608 -18780659.27508  18627469.75608  18627469.71608
 -25528335.74708 -19892191.66508  20100818.88108  20100820.46708
 -30899811.58608 -24077769.47408  18038108.95608  18038109.51708
 -29247583.28408 -22790316.58608  18189397.50908  18189397.64908
 -18495790.36608 -14412301.75708  19167832.03908  19167832.93708
 -31624628.83108 -24642547.46008  18437783.23908  18437783.61708
 93 04 15 09 04 00.0000000  0  8 31 26 28 03 21 23 01 17
   -435150.13108   -339077.83508  21388273.36108  21388273.43708
  -7969965.03907  -6210353.94506  22609115.56607  22609115.30006
 -24346583.96208 -18971362.76108  18580898.02608  18580898.00908
 -25155089.03008 -19601350.15808  20171845.48808  20171847.01208
 -31082145.12508 -24219847.53008  18003411.97508  18003412.50308
 -29200941.73308 -22753972.53208  18198273.13408  18198273.28108
 -18951298.35308 -14767242.95308  19081151.66808  19081152.55908
 -31528651.96708 -24567760.34408  18456047.05408  18456047.43808
 93 04 15 09 06 00.0000000  0  8 31 26 28 03 21 23 01 17
   -864630.14708   -673737.60008  21306545.96008  21306546.02708
  -7647986.45006  -5959461.64906  22670386.07206  22670385.64906
 -24581680.58108 -19154554.95208  18536160.63108  18536160.60708
 -24776881.59008 -19306643.17108  20243816.08708  20243817.61508
 -31260906.24808 -24359141.88308  17969394.86308  17969395.38308
 -29151956.36308 -22715802.12108  18207594.78708  18207594.92408
 -19401656.66208 -15118171.41208  18995451.25808  18995452.12208
 -31427637.12708 -24489047.53308  18475269.58708  18475269.97908
 93 04 15 09 08 00.0000000  0  7 31 28 03 21 23 01 17
  -1289216.50108  -1004584.10408  21225749.83908  21225749.93608
 -24808250.12208 -19331102.66908  18493045.93808  18493045.90908
 -24394493.36308 -19008678.42808  20316582.21808  20316583.73608
 -31436599.83508 -24496045.94908  17935961.49408  17935962.02108
 -29101320.73208 -22676345.79208  18217230.41008  18217230.54708
 -19846870.56908 -15465091.25408  18910729.79208  18910730.65808
 -31321957.14408 -24406699.54608  18495379.84308  18495380.27308
 93 04 15 09 10 00.0000000  0  8 31 11 28 03 21 23 01 17
  -1708437.65108  -1331249.92708  21145974.68608  21145974.72408
        -0.84318        -0.88518  21832871.08918  21832872.71618
 -25025010.07908 -19500006.55708  18451797.92708  18451797.93208
 -24007663.18608 -18707252.40908  20390193.56508  20390195.18408
 -31609259.07208 -24630585.58808  17903105.53408  17903106.01408
 -29048434.86808 -22635136.03308  18227294.26908  18227294.41608
 -20286357.50908 -15807548.53108  18827098.14408  18827099.00408
 -31211197.93008 -24320393.71308  18516456.69908  18516457.12008
 93 04 15 09 12 00.0000000  0  8 31 11 28 03 21 23 01 17
  -2122120.51108  -1653600.18408  21067253.34708  21067253.45708
   -540335.39508   -421040.75408  21730048.89508  21730050.41408
 -25231792.17708 -19661135.48908  18412448.49808  18412448.46508
 -23616402.00808 -18402373.65508  20464648.12108  20464649.74008
 -31778267.16908 -24762280.18408  17870944.31908  17870944.79208
 -28993137.06108 -22592046.84108  18237817.07308  18237817.21608
 -20720212.40008 -16145617.19808  18744538.25308  18744539.09108
 -31094890.94808 -24229764.94208  18538589.19008  18538589.63208
 93 04 15 09 14 00.0000000  0  8 11 28 03 21 23 01 17 31
  -1079148.34508   -840894.99208  21627516.13308  21627517.70108
 -25428920.52208 -19814742.01808  18374936.12008  18374936.08508
 -23221105.57008 -18094350.53308  20539870.52208  20539872.30108
 -31943665.00108 -24891161.58608  17839470.19508  17839470.65408
 -28936306.65208 -22547763.41308  18248631.55608  18248631.68208
 -21148512.04508 -16479357.09808  18663035.48108  18663036.25908
 -30973778.46408 -24135391.62708  18561636.16508  18561636.60608
  -2529766.54408  -1971246.41808  20989680.89508  20989681.01508
 93 04 15 09 16 00.0000000  0  8 11 28 03 21 23 01 17 31
  -1616294.58008  -1259450.44708  21525300.60908  21525302.08108
 -25616412.46908 -19960839.66408  18339257.82408  18339257.85408
 -22822017.03608 -17783372.53708  20615814.62208  20615816.39508
 -32105989.10608 -25017647.87608  17808580.90008  17808581.35608
 -28877262.87108 -22501755.28108  18259867.21008  18259867.35208
 -21570541.60808 -16808211.21008  18582725.87708  18582726.60308
 -30847557.76208 -24037037.88608  18585655.21108  18585655.62308
  -2931541.22408  -2284317.58408  20913225.68008  20913225.86208
 93 04 15 09 18 00.0000000  0  8 11 28 03 21 23 01 17 31
  -2151895.74708  -1676801.95508  21423378.98408  21423380.54408
 -25794334.91208 -20099480.55308  18305400.29908  18305400.33508
 -22419649.86008 -17469839.76008  20692382.68008  20692384.45608
 -32265496.34608 -25141939.20908  17778227.65208  17778228.10408
 -28816652.29108 -22454526.26808  18271401.06908  18271401.19408
 -21986774.89808 -17132548.74708  18503519.24808  18503519.99608
 -30716478.55008 -23934898.29608  18610598.81308  18610599.26208
  -3327706.49608  -2593017.78008  20837837.84808  20837838.06508
 93 04 15 09 20 00.0000000  0  8 11 28 03 21 23 01 17 31
  -2685835.87308  -2092859.13808  21321773.57908  21321775.07708
 -25962817.40308 -20230765.63408  18273339.10208  18273339.11608
 -22014283.19908 -17153969.71908  20769521.50108  20769523.31208
 -32421954.46108 -25263854.59708  17748454.62308  17748455.06808
 -28754662.81608 -22406222.78608  18283197.26008  18283197.38808
 -22397663.66808 -17452721.74408  18425329.64208  18425330.37308
 -30580853.48508 -23829216.48208  18636407.45008  18636407.88308
  -3717976.86608  -2897124.54608  20763571.87408  20763572.11608
 93 04 15 09 22 00.0000000  0  8 11 28 03 21 23 01 17 31
  -3217940.92008  -2507486.39108  21220517.35208  21220518.79408
 -26122187.86008 -20354950.42408  18243012.03708  18243012.04508
 -21606140.21208 -16835936.30408  20847188.69908  20847190.43508
 -32575741.03308 -25383688.26408  17719190.01808  17719190.44108
 -28691147.04108 -22356729.98008  18295283.88608  18295284.04008
 -22802438.85608 -17768130.92608  18348303.45908  18348304.15508
 -30440677.70708 -23719988.65708  18663081.99408  18663082.47308
  -4102178.10408  -3196502.11808  20690460.73708  20690460.92608
 93 04 15 09 24 00.0000000  0  8 11 28 03 21 23 01 17 31
  -3748054.95408  -2920562.22608  21119639.94308  21119641.38208
 -26272078.52608 -20471748.36908  18214488.72108  18214488.72608
 -21195464.13208 -16515929.05208  20925337.81208  20925339.54108
 -32727045.69708 -25501587.97908  17690397.66108  17690398.10208
 -28626617.63808 -22306447.33408  18307563.43508  18307563.56608
 -23201308.65308 -18078938.50808  18272401.01108  18272401.71408
 -30295927.32108 -23607196.20508  18690627.14808  18690627.65308
  -4480473.30208  -3491277.57008  20618473.53208  20618473.76308
 93 04 15 09 26 00.0000000  0  8 03 28 21 23 01 17 31 11
 -20782230.82908 -16193929.14608  21003973.51908  21003975.26608
 -26412281.89908 -20580997.77908  18187808.91908  18187808.93508
 -32875230.37408 -25617056.52908  17662199.05108  17662199.48608
 -28560879.21308 -22255222.59308  18320073.04408  18320073.21308
 -23593926.74808 -18384874.63208  18197688.20808  18197688.90908
 -30146255.18008 -23490568.60508  18719108.84908  18719109.34208
  -4852468.78608  -3781144.15508  20547685.20508  20547685.40508
  -4275750.83708  -3331753.77908  21019222.68808  21019224.16808
 93 04 15 09 28 00.0000000  0  8 03 28 21 23 01 17 31 11
 -20366592.97108 -15870055.57708  21083066.79608  21083068.51208
 -26542476.44608 -20682448.10608  18163033.83308  18163033.84108
 -33020652.53908 -25730372.47608  17634526.12308  17634526.52508
 -28493440.11308 -22202672.64908  18332906.28208  18332906.44208
 -23980256.47308 -18685910.73108  18124172.10008  18124172.77108
 -29991874.07608 -23370271.68908  18748486.60908  18748487.09608
  -5217570.92308  -4065639.31708  20478208.55808  20478208.74208
  -4800777.27908  -3740865.23608  20919313.48008  20919314.85408
 93 04 15 09 30 00.0000000  0  8 03 28 21 23 01 17 31 11
 -19948658.84108 -15544392.70608  21162596.98208  21162598.80708
 -26662818.94508 -20776221.51608  18140133.40608  18140133.43908
 -33163141.13808 -25841402.52608  17607411.40908  17607411.82408
 -28424385.31908 -22148863.72208  18346046.99208  18346047.15808
 -24359985.84008 -18981803.70108  18051912.00808  18051912.63608
 -29832481.81408 -23246069.96708  18778817.98708  18778818.50208
  -5576131.90108  -4345037.48408  20409976.77308  20409976.89708
  -5322837.29008  -4147665.19108  20819968.76608  20819970.10008
 93 04 15 09 32 00.0000000  0  8 03 28 21 23 01 17 31 11
 -19528511.67208 -15217005.37908  21242548.30308  21242550.16608
 -26773404.58308 -20862392.17908  18119089.63608  18119089.67608
 -33302435.98008 -25949943.94008  17580904.46808  17580904.85408
 -28354018.21008 -22094032.22008  18359437.37008  18359437.51008
 -24732739.44908 -19272261.02008  17980979.33408  17980979.97608
 -29667777.76608 -23117729.20108  18810160.17608  18810160.69608
  -5927585.41008  -4618897.37908  20343097.38008  20343097.55008
  -5841606.76708  -4551901.09408  20721250.14608  20721251.50208
 93 04 15 09 34 00.0000000  0  8 03 28 21 23 01 17 31 11
 -19106444.42908 -14888121.90808  21322864.99608  21322866.94508
 -26874179.97708 -20940918.49608  18099912.73108  18099912.80108
 -33439055.11508 -26056400.38608  17554906.68608  17554907.08208
 -28282007.17608 -22037919.73408  18373140.68308  18373140.81408
 -25098654.97708 -19557389.95408  17911347.85208  17911348.48508
 -29498548.64008 -22985862.39908  18842363.42408  18842363.92808
  -6271874.84208  -4887174.86708  20277581.31508  20277581.46708
  -6356970.42908  -4953483.12108  20623179.61108  20623180.97408
 93 04 15 09 36 00.0000000  0  8 03 28 21 23 01 17 31 11
 -18682819.06708 -14558024.30807  21403478.41808  21403480.16807
 -26965306.66508 -21011926.34108  18082571.96608  18082572.02908
 -33573044.10808 -26160807.37608  17529409.41108  17529409.78808
 -28208891.69708 -21980946.64408  18387054.10808  18387054.24608
 -25457647.62308 -19837124.43308  17843033.76508  17843034.37808
 -29324630.71508 -22850341.98908  18875458.95108  18875459.45408
  -6609393.89108  -5150176.72408  20213353.53308  20213353.68008
  -6868880.62108  -5352374.12708  20525766.27108  20525767.67908
 93 04 15 09 38 00.0000000  0  8 03 28 21 23 01 17 31 11
 -18257927.16108 -14226939.76207  21484332.77208  21484334.52107
 -27047129.17108 -21075684.16808  18067001.72308  18067001.78808
 -33704286.80408 -26263074.39308  17504434.77408  17504435.14208
 -28134644.44308 -21923091.65508  18401182.90908  18401183.06408
 -25809783.98408 -20111516.34008  17776024.39908  17776024.98808
 -29145916.07708 -22711083.87408  18909467.22908  18909467.81608
  -6939659.06508  -5407526.20908  20150506.18108  20150506.33308
  -7377219.50408  -5748482.29308  20429032.62008  20429033.97108
 93 04 15 09 40 00.0000000  0  8 03 28 21 23 01 17 31 11
 -17832556.61108 -13895482.23607  21565278.06808  21565279.96207
 -27119884.26408 -21132376.47908  18053156.90308  18053156.95408
 -33833608.58208 -26363844.59008  17479825.63808  17479825.98908
 -28059803.04708 -21864773.70208  18415424.74308  18415424.88808
 -26155845.03408 -20381174.24008  17710171.15508  17710171.72408
 -28963218.99508 -22568722.56808  18944233.43008  18944234.01508
  -7263180.23208  -5659620.61808  20088942.10108  20088942.26608
  -7882364.03908  -6142101.35508  20332906.78308  20332908.08408
 93 04 15 09 42 00.0000000  0  8 03 28 21 23 01 17 31 11
 -17407209.33907 -13564042.85007  21646219.07607  21646220.98407
 -27184019.46708 -21182351.99108  18040952.35708  18040952.41808
 -33961297.17908 -26463342.17908  17455527.28308  17455527.63508
 -27984867.76508 -21806382.59008  18429684.47808  18429684.62808
 -26495799.66208 -20646073.88308  17645479.87408  17645480.39908
 -28776894.35708 -22423534.59108  18979689.83308  18979690.41608
  -7580391.47008  -5906798.20108  20028578.76908  20028578.91008
  -8384405.63908  -6533302.56108  20237371.41008  20237372.69708
 93 04 15 09 44 00.0000000  0  8 03 28 21 23 01 17 31 11
 -16980732.50707 -13231723.30707  21727374.94507  21727376.83907
 -27238209.41408 -21224577.95908  18030640.42008  18030640.50508
 -34085851.06908 -26560397.13708  17431825.43608  17431825.78208
 -27908458.45608 -21746842.88308  18444224.66508  18444224.80508
 -26828547.90108 -20905358.15708  17582159.93708  17582160.46608
 -28585657.11508 -22274518.61708  19016081.14508  19016081.71808
  -7889966.87708  -6148025.79008  19969668.53708  19969668.66608
  -8881781.44308  -6920868.08908  20142723.90708  20142725.21908
 93 04 15 09 46 00.0000000  0  8 03 28 21 23 01 17 31 11
 -16552628.46507 -12898135.83907  21808840.55707  21808842.51407
 -27281754.77508 -21258509.44908  18022354.02308  18022354.09908
 -34206701.19208 -26654566.03808  17408828.40308  17408828.75208
 -27829980.40908 -21685691.17408  18459158.56108  18459158.71608
 -27153050.02608 -21158216.89008  17520409.19108  17520409.71908
 -28388602.91908 -22120969.95208  19053579.29708  19053579.91608
  -8190843.46508  -6382475.08008  19912413.58408  19912413.76508
  -9373585.07808  -7304091.68908  20049136.80108  20049138.04208
 93 04 15 09 48 00.0000000  0  8 03 28 21 23 01 17 31 11
 -16123555.48307 -12563793.34207  21890490.53507  21890492.51807
 -27315654.48708 -21284924.85008  18015903.18108  18015903.25908
 -34324405.36208 -26746283.55108  17386430.01208  17386430.34308
 -27749737.61608 -21623164.34208  18474428.26708  18474428.41908
 -27469147.73709 -21404526.73808  17460257.74909  17460258.27708
 -28186699.79108 -21963642.91308  19092000.26108  19092000.87308
  -8483247.26408  -6610322.20008  19856770.99308  19856771.14708
  -9860064.43408  -7683166.50708  19956562.82208  19956564.08108
 93 04 15 09 50 00.0000000  0  8 03 28 21 23 01 17 31 11
 -15693749.49707 -12228879.69706  21972279.88007  21972281.86306
 -27339548.38208 -21303543.50808  18011356.37708  18011356.47708
 -34438821.71508 -26835439.12708  17364657.33308  17364657.66208
 -27667732.44708 -21559264.22708  18490033.29908  18490033.46608
 -27777637.29709 -21644908.15508  17401554.11109  17401554.62808
 -27979777.87008 -21802405.12908  19131376.26508  19131376.90908
  -8767330.28508  -6831685.59708  19802711.90508  19802712.05708
 -10341048.62408  -8057959.38208  19865034.62208  19865035.86008
 93 04 15 09 52 00.0000000  0  7 28 21 23 01 17 31 11
 -27353297.07208 -21314256.81208  18008740.07508  18008740.21608
 -34550395.96508 -26922380.07908  17343425.43408  17343425.75308
 -27584125.74708 -21494116.16708  18505943.18608  18505943.36708
 -28078200.20309 -21879112.95808  17344358.83409  17344359.32408
 -27767752.06308 -21637190.29308  19171723.48108  19171724.17108
  -9043123.60108  -7046589.48608  19750230.11308  19750230.33808
 -10816386.39408  -8428352.43908  19774580.81008  19774582.08208
 93 04 15 09 54 00.0000000  0  7 28 21 23 01 17 31 11
 -27357595.38308 -21317606.18608  18007922.17608  18007922.30708
 -34658962.80308 -27006977.59808  17322765.86308  17322766.16408
 -27498895.14508 -21427702.72808  18522162.03808  18522162.24008
 -28371043.34009 -22107302.36108  17288632.58509  17288633.06708
 -27550584.49408 -21467968.89308  19213049.15608  19213049.85508
  -9310506.64908  -7254939.92808  19699348.78808  19699348.99208
 -11285865.63308  -8794180.39408  19685241.85908  19685243.11508
 93 04 15 09 56 00.0000000  0  8 28 12 21 23 01 17 31 11
 -27352563.84908 -21313685.55408  18008879.74008  18008879.87708
        -0.34118         0.43418  20425779.81718  20425781.65718
 -34764294.71408 -27089054.39708  17302721.82808  17302722.12708
 -27412197.38908 -21360146.05608  18538660.07108  18538660.28108
 -28655638.35709 -22329064.65508  17234475.91409  17234476.37808
 -27328760.70108 -21295119.26508  19255260.90108  19255261.60408
  -9569539.10508  -7456783.42908  19650056.63708  19650056.83908
 -11749314.83508  -9155309.60708  19597050.41308  19597051.63408
 93 04 15 09 58 00.0000000  0  8 28 12 21 23 01 17 31 11
 -27337731.00908 -21302127.53308  18011702.31808  18011702.46808
   -232409.48808   -181097.53708  20381553.73408  20381555.53308
 -34866359.95908 -27168585.74908  17283299.46808  17283299.77508
 -27324269.53308 -21291630.86508  18555392.23708  18555392.44408
 -28932141.69009 -22544521.74308  17181859.04609  17181859.49708
 -27102047.16808 -21118459.44108  19298403.07308  19298403.84908
  -9819728.47508  -7651736.22908  19602447.22208  19602447.44808
 -12206451.87208  -9511520.25208  19510060.12208  19510061.34008
 93 04 15 10 00 00.0000000  0  8 28 12 21 23 01 17 31 11
 -27313525.35108 -21283266.02008  18016308.54508  18016308.71708
   -456162.10308   -355450.15908  20338975.00508  20338976.82708
 -34965851.15808 -27246111.35308  17264366.90908  17264367.21808
 -27234836.27508 -21221942.63808  18572410.86708  18572411.06908
 -29200735.06009 -22753815.22508  17130747.42609  17130747.86908
 -26870522.60908 -20938050.76708  19342460.75908  19342461.58808
 -10061201.45908  -7839897.05008  19556496.52908  19556496.70008
 -12657156.50208  -9862718.64008  19424293.85508  19424295.08408
 93 04 15 10 02 00.0000000  0  8 28 12 21 23 01 17 31 11
 -27280579.57808 -21257594.03108  18022577.91208  18022578.07308
   -671213.84608   -523022.86808  20298051.95008  20298053.70308
 -35062598.02708 -27321498.52608  17245956.59608  17245956.86908
 -27143887.87608 -21151073.78208  18589717.78708  18589717.99208
 -29461386.05909 -22956919.85308  17081147.17609  17081147.59208
 -26634491.37008 -20754130.39108  19387376.06508  19387376.87808
 -10294268.61808  -8021507.88708  19512145.34108  19512145.53508
 -13101327.77508 -10208826.11408  19339770.87708  19339772.06908
 93 04 15 10 04 00.0000000  0  8 28 12 21 23 01 17 31 11
 -27238585.91408 -21224871.73808  18030568.98108  18030569.17908
   -877456.97208   -683731.71408  20258805.12708  20258806.91008
 -35156229.15708 -27394457.85008  17228139.20308  17228139.50308
 -27051976.17608 -21079454.30408  18607208.02508  18607208.23108
 -29714093.36909 -23153834.59909  17033058.49309  17033058.90509
 -26394187.13608 -20566880.41008  19433104.51508  19433105.31108
 -10518815.23708  -8196479.33808  19469415.52908  19469415.75808
 -13538796.83008 -10549711.09108  19256523.29008  19256524.44508
 93 04 15 10 06 00.0000000  0  8 28 12 21 23 01 17 31 11
 -27187254.85408 -21184873.55208  18040337.06908  18040337.26908
  -1074762.27208   -837476.01408  20221259.15208  20221260.90208
 -35247190.86508 -27465337.10308  17210829.75308  17210830.05608
 -26958593.56008 -21006688.65608  18624978.17408  18624978.37408
 -29959009.66809 -23344678.42609  16986452.44209  16986452.84009
 -26149635.34808 -20376320.64508  19479641.24208  19479642.03208
 -10734666.90508  -8364675.48908  19428340.35608  19428340.61408
 -13969368.25408 -10885221.29408  19174588.27408  19174589.43308
 93 04 15 10 08 00.0000000  0  8 28 12 21 23 01 17 31 11
 -27127317.76008 -21138169.36408  18051742.77208  18051742.97408
  -1262812.96208   -984008.93508  20185474.20708  20185475.92008
 -35335441.08708 -27534103.50908  17194036.29808  17194036.59508
 -26863658.44308 -20932713.26008  18643043.68708  18643043.92208
 -30195811.30309 -23529199.14509  16941390.55709  16941390.95809
 -25900383.75508 -20182098.70708  19527072.25808  19527073.06308
 -10941641.23308  -8525954.22408  19388954.44408  19388954.66008
 -14392654.83808 -11215054.99408  19094039.53308  19094040.68408
 93 04 15 10 10 00.0000000  0  8 28 12 21 23 01 17 31 11
 -27059079.92808 -21084997.07108  18064727.99908  18064728.20408
  -1441656.46708  -1123367.43008  20151441.32508  20151443.06008
 -35420713.42908 -27600549.48408  17177809.51008  17177809.82008
 -26767621.69408 -20857879.44408  18661318.89408  18661319.09908
 -30424605.56909 -23707480.35409  16897852.43409  16897852.82709
 -25646949.13708 -19984617.26108  19575299.30608  19575300.20708
 -11139796.06808  -8680360.62908  19351246.90008  19351247.15708
 -14808628.65608 -11539190.42808  19014882.33208  19014883.50808
 93 04 15 10 12 00.0000000  0  8 28 12 21 23 01 17 31 11
 -26982817.66208 -21025571.96908  18079240.26908  18079240.52408
  -1612034.81808  -1256129.71108  20119019.40708  20119021.09708
 -35503709.26108 -27665221.55108  17162015.93108  17162016.22108
 -26671142.76408 -20782701.07208  18679678.24008  18679678.46308
 -30645857.28409 -23879884.25109  16855749.59909  16855749.97909
 -25389907.86608 -19784325.43708  19624212.69208  19624213.64608
 -11330194.46808  -8828723.06608  19315015.33408  19315015.53908
 -15217952.51408 -11858144.07308  18936990.56908  18936991.74008
 93 04 15 10 14 00.0000000  0  8 28 12 21 23 01 17 31 11
 -26898016.21008 -20959492.95608  18095377.45708  18095377.71808
  -1772745.85108  -1381359.02908  20088437.03208  20088438.74208
 -35583789.55708 -27727621.76908  17146777.15308  17146777.43408
 -26573182.93308 -20706368.74808  18698319.40408  18698319.64508
 -30858883.74909 -24045878.85909  16815211.98309  16815212.35809
 -25128757.35108 -19580831.60808  19673907.97508  19673909.02308
 -11511722.31108  -8970173.37608  19280471.73608  19280471.91508
 -15619340.15508 -12170913.65708  18860609.03208  18860610.23808
 93 04 15 10 16 00.0000000  0  8 28 12 21 23 01 17 31 11
 -26805573.23108 -20887459.51008  18112968.72108  18112968.99308
  -1924270.73008  -1499430.31608  20059602.76108  20059604.48408
 -35661621.32608 -27788269.88508  17131966.20108  17131966.50608
 -26474245.26408 -20629274.47308  18717146.61708  18717146.86508
 -31064560.98809 -24206146.79809  16776072.87309  16776073.23709
 -24863881.39408 -19374434.84208  19724312.26008  19724313.32708
 -11684683.12708  -9104948.09008  19247558.44608  19247558.60508
 -16013184.55308 -12477805.39508  18785662.92408  18785664.09108
 93 04 15 10 18 00.0000000  0  8 28 12 21 23 01 17 31 11
 -26704827.27708 -20808956.22108  18132140.24408  18132140.52608
  -2065900.87208  -1609791.42108  20032651.41108  20032653.12108
 -35736318.44008 -27846475.41108  17117751.85708  17117752.13308
 -26373834.26508 -20551032.15508  18736254.21608  18736254.43308
 -31261958.43409 -24359962.95109  16738509.33009  16738509.67909
 -24594641.49308 -19164637.59908  19775546.98608  19775548.05908
 -11848606.57408  -9232680.69008  19216364.88808  19216365.07608
 -16398685.04608 -12778195.39308  18712304.60208  18712305.80708
 93 04 15 10 20 00.0000000  0  8 21 28 12 23 01 17 31 11
 -35808177.88908 -27902469.77008  17104077.41308  17104077.70108
 -26596005.84108 -20724160.35208  18152848.31008  18152848.58508
  -2197575.80808  -1712395.24008  20007594.44508  20007596.17608
 -26271990.50308 -20471673.40108  18755634.41308  18755634.65408
 -31451167.20509 -24507398.31709  16702504.08409  16702504.42209
 -24321443.50608 -18951756.13508  19827534.96208  19827536.05408
 -12003495.15308  -9353373.11908  19186890.64908  19186890.92308
 -16775684.67208 -13071961.34508  18640563.98608  18640565.15808
 93 04 15 10 22 00.0000000  0  8 21 28 12 23 01 17 31 11
 -35877185.02908 -27956241.55308  17090945.79908  17090946.06708
 -26479640.52108 -20633486.13408  18174991.80408  18174992.08408
  -2319401.32108  -1807324.18808  19984411.82608  19984413.54708
 -26168781.43008 -20391250.76908  18775274.51408  18775274.71808
 -31632300.64509 -24648541.21509  16668035.51209  16668035.82509
 -24044428.46708 -18735900.34808  19880249.30108  19880250.37108
 -12149358.84408  -9467033.15908  19159133.67508  19159133.92008
 -17144189.07608 -13359107.64508  18570439.92508  18570441.15208
 93 04 15 10 24 00.0000000  0  8 21 28 12 23 01 17 31 11
 -35943550.33608 -28007954.77008  17078316.89108  17078317.15708
 -26355917.92208 -20537078.96808  18198535.57608  18198535.88008
  -2431599.55308  -1894751.36408  19963061.21608  19963062.93208
 -26064434.88908 -20309941.80708  18795131.01608  18795131.20708
 -31805673.38909 -24783636.81709  16635043.76209  16635044.04609
 -23763818.95708 -18517243.68308  19933647.55208  19933648.54108
 -12286814.45708  -9574141.45708  19132976.74108  19132977.02108
 -17504316.74008 -13639726.61508  18501909.93408  18501911.15608
 93 04 15 10 26 00.0000000  0  8 21 28 12 23 01 17 31 11
 -36007314.81808 -28057641.37508  17066182.93008  17066183.20008
 -26224967.72608 -20435039.91208  18223454.60408  18223454.83308
  -2534078.16808  -1974604.81508  19943560.18808  19943561.87708
 -25959053.44208 -20227826.42608  18815184.47208  18815184.72308
 -31971565.98809 -24912903.73409  16603475.41909  16603475.69309
 -23480028.10108 -18296108.03108  19987651.18408  19987652.24608
 -12416141.29708  -9674915.63708  19108366.67408  19108366.95708
 -17855868.06108 -13913662.71908  18435011.93208  18435013.12708
 93 04 15 10 28 00.0000000  0  8 21 01 28 12 23 17 31 11
 -36068305.05308 -28105166.23608  17054576.88808  17054577.15708
 -32129441.68909 -25035923.71809  16573432.62809  16573432.89909
 -26087155.83808 -20327654.07808  18249679.36508  18249679.61808
  -2626619.00108  -2046714.54608  19925950.20308  19925951.95208
 -25852408.97908 -20144726.88108  18835478.27108  18835478.50608
 -23192824.05308 -18072312.75008  20042304.26808  20042305.40108
 -12536396.13208  -9768620.72308  19085482.98308  19085483.21808
 -18198514.48408 -14180659.94108  18369808.49908  18369809.68908
 93 04 15 10 30 00.0000000  0  8 21 01 28 12 23 17 31 11
 -36127069.37808 -28150956.62608  17043394.37408  17043394.66908
 -32280027.34109 -25153263.14809  16544777.10509  16544777.37909
 -25942772.78108 -20215147.84708  18277154.62408  18277154.86308
  -2709718.84708  -2111467.66708  19910136.82308  19910138.57608
 -25744759.98508 -20060844.59708  18855963.23108  18855963.50308
 -22902603.20308 -17846166.70308  20097531.50308  20097532.66208
 -12648504.71308  -9855978.09708  19064149.43508  19064149.69708
 -18532638.79408 -14441016.55008  18306226.74908  18306227.96908
 93 04 15 10 32 00.0000000  0  8 21 01 28 12 23 17 31 11
 -36183914.86408 -28195251.82208  17032577.06708  17032577.35108
 -32424067.91609 -25265502.52009  16517367.02909  16517367.27809
 -25792642.21108 -20098163.03208  18305723.49308  18305723.79908
  -2783772.94508  -2169172.15208  19896044.80108  19896046.53208
 -25637363.66408 -19977159.21208  18876400.10208  18876400.38408
 -22610075.15308 -17618222.84908  20153197.76708  20153198.96208
 -12753209.53408  -9937566.32708  19044224.83908  19044225.09808
 -18858519.71308 -14694949.73508  18244213.68208  18244214.87708
 93 04 15 10 34 00.0000000  0  8 21 01 28 12 23 17 31 11
 -36239047.25908 -28238212.14608  17022085.73308  17022085.99108
 -32561246.91609 -25372395.21509  16491262.70409  16491262.94209
 -25637000.95908 -19976884.17708  18335341.11908  18335341.49908
  -2848642.25908  -2219719.65608  19883700.55908  19883702.31908
 -25529534.62708 -19893136.65508  18896919.35608  18896919.61808
 -22315216.08708 -17388462.59508  20209307.74008  20209308.88508
 -12850079.52808 -10013049.50408  19025791.14008  19025791.35008
 -19175899.20808 -14942258.43708  18183818.36308  18183819.55908
 93 04 15 10 36 00.0000000  0  8 21 28 12 23 01 17 31 11
 -36292491.89608 -28279857.33708  17011915.55408  17011915.80908
 -25476083.67808 -19851494.12608  18365962.53308  18365962.93408
  -2904498.40608  -2263243.91408  19873071.45908  19873073.23108
 -25421301.71008 -19808799.39008  18917515.51108  18917515.77708
 -32691955.31109 -25474245.88309  16466389.75309  16466389.99009
 -22018216.28108 -17157034.23508  20265825.02708  20265826.14208
 -12939479.48808 -10082711.86908  19008778.93508  19008779.15608
 -19484826.75808 -15182981.21308  18125031.42708  18125032.58408
 93 04 15 10 38 00.0000000  0  8 21 28 12 23 01 17 31 11
 -36342838.01508 -28319088.10108  17002335.02508  17002335.30508
 -25308751.63008 -19721105.55908  18397804.91708  18397805.28708
  -2950049.25608  -2298738.07608  19864403.40308  19864405.18808
 -25311361.32408 -19723131.62908  18938436.44208  18938436.74908
 -32814919.21609 -25570061.88509  16442990.47409  16442990.68709
 -21718055.66308 -16923142.90308  20322943.76608  20322944.90908
 -13020224.28608 -10145629.93808  18993413.66208  18993413.97708
 -19783886.55108 -15416014.83008  18068122.24308  18068123.42508
 93 04 15 10 40 00.0000000  0  8 21 28 12 23 01 17 31 11
 -36389399.82208 -28355370.04908  16993474.60908  16993474.88308
 -25134623.81608 -19585421.59708  18430940.34808  18430940.71808
  -2984520.89308  -2325599.09708  19857843.67608  19857845.46408
 -25199111.81208 -19635664.54508  18959796.88208  18959797.19908
 -32929294.62409 -25659185.55309  16421225.54109  16421225.75709
 -21413955.24808 -16686181.61808  20380812.23408  20380813.39208
 -13091313.93008 -10201024.52408  18979885.80508  18979886.17708
 -20072178.46408 -15640657.89708  18013262.10308  18013263.30208
 93 04 15 10 42 00.0000000  0  8 21 28 12 23 01 17 31 11
 -36432850.05908 -28389227.39608  16985206.34008  16985206.60808
 -24954054.52708 -19444718.29908  18465301.62508  18465301.92008
  -3008493.31708  -2344278.92708  19853281.91708  19853283.68108
 -25085189.14608 -19546893.70308  18981475.72508  18981476.08408
 -33035540.46509 -25741974.50009  16401007.59709  16401007.83409
 -21106934.87408 -16446945.02108  20439236.26308  20439237.48108
 -13153774.91108 -10249695.48208  18967999.92108  18968000.28208
 -20350154.56808 -15857262.67608  17960365.04508  17960366.25408
 93 04 15 10 44 00.0000000  0  8 21 28 12 23 01 17 31 11
 -36473395.20708 -28420821.03908  16977490.89108  16977491.15008
 -24767980.32708 -19299725.45908  18500710.40408  18500710.73308
  -3022212.47308  -2354969.20308  19850671.24808  19850673.01908
 -24969971.56608 -19457113.83108  19003400.90008  19003401.30508
 -33134382.29509 -25818994.08709  16382198.60809  16382198.83409
 -20796768.95508 -16205257.36108  20498258.88008  20498260.07708
 -13207754.70608 -10291757.71608  18957728.03008  18957728.38108
 -20617931.68908 -16065920.19708  17909408.76908  17909409.97708
 93 04 15 10 46 00.0000000  0  8 21 28 12 23 01 17 31 11
 -36510971.97108 -28450101.65208  16970340.25308  16970340.51608
 -24576569.88208 -19150574.51408  18537134.64408  18537134.92308
  -3025879.85208  -2357826.91008  19849973.34508  19849975.13008
 -24853423.86308 -19366297.50208  19025579.25308  19025579.63208
 -33226507.38909 -25890779.85509  16364667.77509  16364667.98009
 -20484056.46208 -15961585.36208  20557766.09208  20557767.34608
 -13253635.41208 -10327508.96808  18948997.24508  18948997.56008
 -20875581.66708 -16266686.44008  17860379.65008  17860380.84208
 93 04 15 10 48 00.0000000  0  8 21 28 12 23 01 17 31 11
 -36546104.07108 -28477477.32608  16963654.85908  16963655.14408
 -24380479.22008 -18997776.64908  18574449.41008  18574449.75608
  -3020134.74108  -2353350.19108  19851066.61408  19851068.40308
 -24736053.83208 -19274840.39508  19047914.04008  19047914.45308
 -33311688.09909 -25957154.41509  16348458.41409  16348458.59909
 -20169645.94608 -15716590.19208  20617596.43508  20617597.68908
 -13292223.05308 -10357577.31108  18941654.29008  18941654.67308
 -21123611.96808 -16459956.83408  17813181.07508  17813182.28408
 93 04 15 10 50 00.0000000  0  8 21 28 12 23 01 17 31 11
 -36577907.17308 -28502258.97508  16957602.94208  16957603.23508
 -24179420.54508 -18841107.59608  18612709.71008  18612710.07908
  -3003925.43908  -2340719.54808  19854151.13608  19854152.89708
 -24616904.88808 -19181997.11908  19070587.43608  19070587.84508
 -33389099.51609 -26017474.98209  16333727.49909  16333727.67409
 -19852416.39208 -15469398.39008  20677963.18108  20677964.46308
 -13322102.33808 -10380859.92408  18935968.45908  18935968.76908
 -21360839.11208 -16644809.18108  17768038.27208  17768039.48908
 93 04 15 10 52 00.0000000  0  8 21 01 28 12 23 17 31 11
 -36606279.16208 -28524367.02808  16952203.95008  16952204.24208
 -33459214.52309 -26072110.03709  16320385.01409  16320385.18209
 -23972924.38708 -18680201.53608  18652004.55608  18652004.99408
  -2977295.17208  -2319968.66208  19859218.61508  19859220.46108
 -24495783.17308 -19087616.60608  19093636.15208  19093636.54008
 -19532349.03908 -15219995.33508  20738870.08508  20738871.38108
 -13343390.27808 -10397447.97908  18931917.50208  18931917.92508
 -21587173.97808 -16821174.03708  17724968.18708  17724969.42208
 93 04 15 10 54 00.0000000  0  8 21 01 28 12 23 17 31 11
 -36631474.48308 -28543999.75408  16947409.43508  16947409.72708
 -33521963.32509 -26121005.19209  16308444.32309  16308444.50209
 -23761698.97808 -18515610.33108  18692199.29408  18692199.77508
  -2940471.27508  -2291274.68408  19866225.96308  19866227.77608
 -24372973.23008 -18991920.59408  19117006.12608  19117006.56308
 -19209851.16408 -14968698.37408  20800239.60908  20800240.76908
 -13356626.45308 -10407761.93208  18929398.71708  18929399.07808
 -21802711.66908 -16989125.50408  17683952.73208  17683953.96708
 93 04 15 10 56 00.0000000  0  8 21 01 28 12 23 17 31 11
 -36653503.51208 -28561165.24508  16943217.46708  16943217.75408
 -33577713.67709 -26164447.00809  16297835.40009  16297835.55709
 -23545867.26808 -18347429.80308  18733270.89508  18733271.36108
  -2893553.74808  -2254715.54708  19875154.05008  19875155.86708
 -24248336.75608 -18894801.30108  19140723.66908  19140724.10208
 -18885200.98608 -14715724.28908  20862018.54208  20862019.69008
 -13362108.69008 -10412033.84008  18928355.61008  18928356.04208
 -22007419.60708 -17148638.20108  17644998.11608  17644999.36908
 93 04 15 10 58 00.0000000  0  8 21 01 11 28 12 23 17 31
 -36672509.97608 -28575975.49208  16939600.70408  16939600.99108
 -33626600.61109 -26202540.70809  16288532.51509  16288532.66709
 -22201499.69608 -17299869.45508  17608065.93108  17608067.15608
 -23325994.38608 -18176100.30908  18775111.35208  18775111.85108
  -2836876.03608  -2210551.05108  19885939.38108  19885941.16608
 -24122507.04908 -18796752.23408  19164668.29708  19164668.80008
 -18558612.21608 -14461239.58608  20924166.35808  20924167.57508
 -13359889.68208 -10410304.77508  18928777.85608  18928778.27808
 93 04 15 11 00 00.0000000  0  8 17 21 01 11 28 12 23 31
 -18229667.22408 -14204918.84907  20986762.57308  20986763.75007
 -36688297.23808 -28588277.27508  16936596.49108  16936596.77708
 -33668499.69509 -26235189.32609  16280559.37809  16280559.53509
 -22384477.92808 -17442449.92308  17573246.33708  17573247.57808
 -23102040.16508 -18001590.55908  18817728.45508  18817728.91808
  -2770094.95608  -2158513.81108  19898647.38908  19898649.13908
 -23994603.76808 -18697087.39508  19189007.56108  19189008.00008
 -13349909.32308 -10402527.91008  18930677.14308  18930677.53108
 93 04 15 11 02 00.0000000  0  8 17 21 01 11 28 12 23 31
 -17899055.54108 -13947299.37807  21049675.80608  21049677.16907
 -36700937.49708 -28598126.85208  16934191.12908  16934191.40608
 -33704018.75309 -26262866.49609  16273800.31209  16273800.44509
 -22556592.36408 -17576565.09508  17540494.06908  17540495.32908
 -22874422.18208 -17824225.92708  18861042.84108  18861043.28908
  -2693578.56308  -2098890.62708  19913207.95608  19913209.71208
 -23864906.72008 -18596024.82508  19213688.11808  19213688.56408
 -13332441.24008 -10388916.45208  18934001.26008  18934001.65308
 93 04 15 11 04 00.0000000  0  8 17 21 01 11 28 12 23 31
 -17566656.29507 -13688286.99507  21112929.30007  21112930.68107
 -36710012.12808 -28605198.02008  16932464.32308  16932464.60208
 -33732433.77809 -26285008.05309  16268393.08909  16268393.22509
 -22717607.23608 -17702031.26408  17509854.00708  17509855.25708
 -22642954.16708 -17643861.27908  18905089.55308  18905089.97808
  -2607219.76308  -2031598.01908  19929641.45808  19929643.21808
 -23734031.45808 -18494044.17008  19238592.90908  19238593.40208
 -13307319.38208 -10369341.01708  18938781.73808  18938782.19608
 93 04 15 11 06 00.0000000  0  8 17 21 01 11 28 12 23 31
 -17232718.71507 -13428075.90807  21176475.46107  21176476.86107
 -36715735.87508 -28609658.11408  16931375.17408  16931375.44908
 -33754303.95509 -26302049.73009  16264231.32209  16264231.45209
 -22867562.65608 -17818879.67508  17481318.45108  17481319.73408
 -22408297.55208 -17461012.00008  18949743.42908  18949743.87808
  -2511186.15508  -1956766.60908  19947916.01608  19947917.75008
 -23601004.19408 -18390386.63008  19263907.14308  19263907.67308
 -13274811.20108 -10344010.00808  18944967.90608  18944968.29208
 93 04 15 11 08 00.0000000  0  8 17 21 01 11 28 12 23 31
 -16897228.28007 -13166654.78207  21240317.13607  21240318.66807
 -36718356.99208 -28611700.57308  16930876.41008  16930876.69308
 -33769998.70709 -26314279.38509  16261244.67609  16261244.82409
 -23006393.95308 -17927059.93708  17454899.74108  17454901.05408
 -22170251.24708 -17275521.41508  18995042.09208  18995042.53108
  -2405537.49008  -1874442.98308  19968020.33808  19968022.04908
 -23466127.58508 -18285288.02908  19289573.35208  19289573.94308
 -13235073.15408 -10313045.33808  18952529.73308  18952530.23408
 93 04 15 11 10 00.0000000  0  8 17 21 01 11 28 12 23 31
 -16560308.28606 -12904119.75006  21304430.80806  21304432.30706
 -36717617.48108 -28611124.35408  16931017.10508  16931017.41808
 -33779431.82309 -26321629.84209  16259449.62509  16259449.77109
 -23134203.52508 -18026651.84008  17430578.40108  17430579.71308
 -21929354.16008 -17087809.43308  19040883.19808  19040883.65608
  -2290499.89108  -1784803.29808  19989911.26408  19989912.94908
 -23329652.81008 -18178944.10508  19315543.60808  19315544.18908
 -13188585.96908 -10276821.59608  18961376.02108  18961376.46108
 93 04 15 11 12 00.0000000  0  7 28 12 21 23 01 31 11
 -21685516.24108 -16897805.89708  19087284.02808  19087284.51008
  -2165873.40408  -1687691.76408  20013626.96508  20013628.64208
 -36713111.54808 -28607613.26008  16931874.63108  16931874.93308
 -23190920.29608 -18070840.89808  19341943.65908  19341944.17408
 -33782093.38809 -26323703.77009  16258943.10209  16258943.23809
 -13134787.24608 -10234900.54908  18971613.54608  18971614.03908
 -23250670.92408 -18117405.69108  17408415.43008  17408416.74008
 93 04 15 11 14 00.0000000  0  8 21 28 12 23 01 25 31 11
 -36704932.37908 -28601239.90208  16933431.04408  16933431.34408
 -21438685.57308 -16705470.34908  19134254.46008  19134255.00708
  -2031659.60008  -1583109.60808  20039167.02408  20039168.69908
 -23050063.80308 -17961082.64708  19368747.78908  19368748.34708
 -33778366.83309 -26320799.94809  16259652.24309  16259652.36509
        -0.79218        -0.67618  18351767.70918  18351767.83218
 -13073867.93008 -10187430.99508  18983206.18108  18983206.65908
 -23355679.45708 -18199230.56208  17388433.00208  17388434.31008
 93 04 15 11 16 00.0000000  0  8 21 28 12 23 01 25 31 11
 -36693053.73208 -28591983.83208  16935691.48708  16935691.83008
 -21189403.71908 -16511224.79208  19181691.18408  19181691.78108
  -1888167.20908  -1471297.37608  20066472.73408  20066474.40308
 -22907238.62308 -17849790.35108  19395926.60708  19395927.16208
 -33768566.74009 -26313163.49709  16261517.14009  16261517.26109
   -465997.24308   -363114.73108  18263091.52408  18263091.62408
 -13006058.89008 -10134592.82108  18996109.88508  18996110.34208
 -23449422.56508 -18272277.18508  17370594.32308  17370595.63708
 93 04 15 11 18 00.0000000  0  8 21 28 12 23 01 25 31 11
 -36677361.78308 -28579756.35508  16938677.61308  16938677.92008
 -20938011.95608 -16315335.15408  19229529.53908  19229530.22808
  -1735609.09708  -1352420.91108  20095503.62208  20095505.24908
 -22762299.52108 -17736850.84008  19423507.62208  19423508.16608
 -33752911.16309 -26300964.34009  16264496.27309  16264496.40609
   -928588.14708   -723575.11208  18175063.37808  18175063.46408
 -12931618.99108 -10076587.73508  19010275.37608  19010275.85208
 -23532000.82208 -18336623.93008  17354880.24108  17354881.54908
 93 04 15 11 20 00.0000000  0  8 21 28 12 23 01 25 31 11
 -36658233.50508 -28564851.21608  16942317.62408  16942317.92508
 -20684611.56508 -16117880.34908  19277750.00608  19277750.70008
  -1574089.31608  -1226561.32408  20126239.74808  20126241.45608
 -22615681.14008 -17622602.80008  19451408.18808  19451408.77208
 -33731153.99309 -26284010.69609  16268636.51809  16268636.65909
  -1387324.96908  -1081032.31608  18087768.56308  18087768.65008
 -12850810.43808 -10013620.05808  19025652.70308  19025653.23608
 -23603409.37208 -18392267.00608  17341291.66508  17341293.00708
 93 04 15 11 22 00.0000000  0  8 21 28 12 23 01 25 31 11
 -36636043.76308 -28547560.51508  16946540.15808  16946540.49008
 -20429737.16508 -15919276.96708  19326251.17308  19326251.88808
  -1404149.47108  -1094140.64308  20158578.20108  20158579.84608
 -22467106.21608 -17506830.18708  19479681.09908  19479681.69808
 -33703977.85609 -26262834.48309  16273807.97509  16273808.11109
  -1842578.51008  -1435775.27308  18001136.71008  18001136.75608
 -12764359.66008  -9946255.85008  19042103.78408  19042104.35508
 -23664083.37208 -18439545.50408  17329745.82508  17329747.20108
 93 04 15 11 24 00.0000000  0  8 21 28 12 23 01 25 31 11
 -36610944.02608 -28528002.28408  16951316.51408  16951316.84708
 -20174391.61908 -15720306.45908  19374841.66008  19374842.39208
  -1226564.51808   -955762.73708  20192371.50208  20192373.12308
 -22317351.70008 -17390138.41808  19508178.45408  19508179.09508
 -33672427.89109 -26238250.09209  16279811.74409  16279811.87209
  -2294592.76208  -1787994.11108  17915121.23708  17915121.25908
 -12672838.72608  -9874940.87408  19059519.55508  19059520.24208
 -23714696.05608 -18478984.01308  17320114.58408  17320115.96608
 93 04 15 11 26 00.0000000  0  8 21 28 12 23 01 25 31 11
 -36582861.81308 -28506120.04508  16956660.36808  16956660.68608
 -19918240.44008 -15520708.18508  19423585.75708  19423586.43708
  -1041097.51008   -811242.98708  20227664.75208  20227666.31208
 -22166446.21208 -17272549.79908  19536894.86408  19536895.52808
 -33636010.14509 -26209872.62309  16286741.81109  16286741.96209
  -2742599.76908  -2137090.42308  17829868.31708  17829868.31908
 -12575803.96608  -9799329.39808  19077984.80808  19077985.40608
 -23754912.61008 -18510321.64308  17312461.64608  17312463.06008
 93 04 15 11 28 00.0000000  0  8 21 28 12 23 01 25 31 11
 -36551059.22308 -28481338.81208  16962712.21008  16962712.54208
 -19661081.80508 -15320324.88008  19472521.60408  19472522.29608
   -847453.20908   -660351.33108  20264514.02008  20264515.59508
 -22013569.18908 -17153424.92808  19565986.44308  19565987.18108
 -33594117.79709 -26177229.23409  16294713.63809  16294713.77709
  -3186633.08108  -2483090.34508  17745371.51808  17745371.52208
 -12473298.55208  -9719455.07408  19097491.02208  19097491.67408
 -23784342.91008 -18533254.39808  17306861.31908  17306862.70608
 93 04 15 11 30 00.0000000  0  8 21 28 12 23 01 25 31 11
 -36515420.77508 -28453568.60208  16969493.98808  16969494.28908
 -19402862.70708 -15119115.24008  19521659.03008  19521659.71608
   -645341.97408   -502862.06408  20302974.54808  20302976.07408
 -21857970.61008 -17032179.36208  19595595.90108  19595596.63308
 -33546666.33309 -26140254.06309  16303743.35109  16303743.49009
  -3625937.49608  -2825405.41908  17661774.64008  17661774.65108
 -12364931.86108  -9635013.52108  19118112.52808  19118113.06508
 -23802607.54708 -18547486.63808  17303385.71408  17303387.13208
 93 04 15 11 32 00.0000000  0  8 21 01 28 12 23 25 31 11
 -36476210.44908 -28423015.10408  16976955.50108  16976955.80308
 -33494342.63909 -26099482.34908  16313700.22309  16313700.36508
 -19143876.59408 -14917307.92908  19570942.50508  19570943.19308
   -435347.23908   -339229.83308  20342935.23508  20342936.75708
 -21700670.58008 -16909607.99408  19625529.18408  19625529.95108
  -4060610.03808  -3164111.24208  17579059.13308  17579059.13408
 -12251457.58908  -9546592.03908  19139705.88708  19139706.41408
 -23810203.92008 -18553405.94708  17301940.20508  17301941.65108
 93 04 15 11 34 00.0000000  0  8 21 01 28 12 23 25 31 11
 -36433001.07508 -28389345.46508  16985177.94008  16985178.25108
 -33437446.92509 -26055148.01808  16324527.11309  16324527.23708
 -18884633.76108 -14715300.57908  19620274.81908  19620275.46908
   -217860.00908   -169759.29508  20384321.66608  20384323.28608
 -21541634.04808 -16785683.50808  19655792.83908  19655793.65908
  -4490603.28508  -3499170.85708  17497234.10908  17497234.10608
 -12133095.37208  -9454361.78208  19162229.61308  19162230.02308
 -23807441.54408 -18551253.50408  17302465.89608  17302467.38608
 93 04 15 11 36 00.0000000  0  8 21 01 28 12 23 25 31 11
 -36387065.67208 -28353551.64408  16993919.15308  16993919.48208
 -33376719.72509 -26007828.11008  16336083.13309  16336083.26108
 -18626424.38208 -14514098.51208  19669410.49208  19669411.16908
      6176.61808      4814.64608  20426954.45608  20426956.12008
 -21381175.58108 -16660651.01708  19686327.25608  19686328.03708
  -4916516.58208  -3831051.28808  17416185.45908  17416185.42508
 -12010443.63408  -9358789.04708  19185569.44308  19185569.91908
 -23795186.35408 -18541704.06808  17304798.02108  17304799.53008
 93 04 15 11 38 00.0000000  0  8 21 01 28 12 23 25 31 11
 -36338589.02808 -28315777.63408  17003143.94708  17003144.26508
 -33312612.62709 -25957874.51208  16348282.27709  16348282.38708
 -18369262.28008 -14313712.51308  19718346.83808  19718347.48808
    236429.17308    184232.22508  20470770.09808  20470771.66508
 -21219930.86108 -16535005.88208  19717011.13108  19717011.89808
  -5338462.43308  -4159840.20608  17335891.84208  17335891.77508
 -11884201.34808  -9260418.45908  19209592.56308  19209593.06208
 -23773699.35808 -18524961.00908  17308886.91808  17308888.42408
 93 04 15 11 40 00.0000000  0  8 21 01 28 12 23 25 31 11
 -36286811.43808 -28275431.45308  17012996.86508  17012997.15908
 -33244465.61609 -25904772.93008  16361250.18709  16361250.29908
 -18112782.91608 -14113858.52608  19767153.31708  19767153.93908
    473267.66208    368781.69908  20515838.99108  20515840.52308
 -21057155.41608 -16408167.99108  19747986.43208  19747987.17708
  -5755479.80408  -4484788.74808  17256535.98208  17256535.88908
 -11754275.34408  -9159177.43508  19234316.61408  19234317.29108
 -23742542.78008 -18500683.21408  17314815.85408  17314817.37208
 93 04 15 11 42 00.0000000  0  8 21 01 28 12 23 25 31 11
 -36232265.30208 -28232927.97108  17023376.67808  17023376.97808
 -33172930.98309 -25849031.64208  16374862.76809  16374862.89008
 -17857457.60008 -13914903.80608  19815740.21708  19815740.88008
    716413.00408    558245.66707  20562107.89208  20562109.47407
 -20893171.76008 -16280388.65208  19779191.55608  19779192.35708
  -6167848.96908  -4806115.31808  17178064.71408  17178064.59208
 -11620730.25608  -9055116.35008  19259729.42108  19259730.10008
 -23701932.12908 -18469038.61308  17322543.84008  17322545.39108
 93 04 15 11 44 00.0000000  0  8 21 01 28 12 23 25 31 11
 -36173493.41208 -28187131.69408  17034560.59108  17034560.90208
 -33096749.51208 -25789669.44708  16389359.61108  16389359.73708
 -17602605.47608 -13716317.81408  19864236.95808  19864237.61608
    966613.04508    753206.78007  20609719.35808  20609720.90707
 -20726786.03308 -16150737.57108  19810853.80308  19810854.63708
  -6574594.77008  -5123060.04308  17100663.51308  17100663.40408
 -11482679.75908  -8947544.53508  19285999.51608  19286000.30208
 -23651061.36608 -18429399.11708  17332224.25808  17332225.80808
 93 04 15 11 46 00.0000000  0  8 21 01 28 12 23 25 31 11
 -36109592.56308 -28137338.83308  17046720.52908  17046720.84008
 -33015231.73808 -25726149.09208  16404871.92408  16404872.02708
 -17347092.68108 -13517216.99508  19912859.57008  19912860.20508
   1224511.54508    954166.70507  20658795.74908  20658797.28407
 -20557086.66108 -16018504.45608  19843146.53008  19843147.45408
  -6974161.18508  -5434410.44108  17024628.50508  17024628.39508
 -11339798.92708  -8836208.83408  19313188.82108  19313189.59208
 -23589232.98808 -18381221.22208  17343989.85208  17343991.39808
 93 04 15 11 48 00.0000000  0  8 21 01 28 12 23 25 31 11
 -36041516.31708 -28084292.42108  17059675.01308  17059675.31008
 -32929570.96808 -25659400.42908  16421172.62208  16421172.71108
 -17092160.44208 -13318568.56908  19961371.35808  19961372.11508
   1489276.99808   1160477.51307  20709178.94108  20709180.41307
 -20384899.55808 -15884332.85708  19875912.73108  19875913.74808
  -7367129.20808  -5740619.23408  16949849.14908  16949849.01108
 -11192655.09908  -8721551.33008  19341189.54508  19341190.19108
 -23517229.56008 -18325114.71208  17357691.67908  17357693.26708
 93 04 15 11 50 00.0000000  0  8 21 01 28 12 23 25 31 11
 -35969091.47508 -28027857.50508  17073457.02508  17073457.33108
 -32839806.07408 -25589453.75208  16438254.31608  16438254.42408
 -16838434.41208 -13120860.06608  20009654.10308  20009654.79308
   1760442.47008   1371775.30507  20760779.95008  20760781.42407
 -20210355.18808 -15748324.42708  19909127.56608  19909128.67408
  -7753911.58508  -6042008.04408  16876246.90208  16876246.74608
 -11041535.45408  -8603795.77208  19369946.63408  19369947.21608
 -23435474.20608 -18261409.29708  17373249.27208  17373250.83108
 93 04 15 11 52 00.0000000  0  8 21 01 28 12 23 25 31 11
 -35892495.23908 -27968172.16108  17088032.82808  17088033.11808
 -32745999.06208 -25516357.36808  16456105.19708  16456105.28908
 -16585948.39208 -12924117.77108  20057700.67908  20057701.38908
   2037685.98408   1587809.24307  20813537.65808  20813539.13107
 -20033761.34808 -15610719.01008  19942732.33708  19942733.49108
  -8134553.13608  -6338611.79308  16803813.11908  16803812.95408
 -10887024.77708  -8483397.87008  19399349.09108  19399349.61808
 -23344249.88808 -18190325.46708  17390608.71908  17390610.31408
 93 04 15 11 54 00.0000000  0  8 21 01 28 12 23 25 31 11
 -35812322.75508 -27905700.13308  17103289.15508  17103289.51208
 -32648976.42308 -25440755.30908  16474567.96908  16474568.06408
 -16335128.01208 -12728673.37008  20105430.03908  20105430.85108
   2320474.87808   1808164.24907  20867350.57208  20867352.01907
 -19855128.04108 -15471524.40208  19976725.30808  19976726.47208
  -8508984.51308  -6630376.44308  16732561.19008  16732560.99808
 -10729617.88708  -8360743.18508  19429302.68008  19429303.16608
 -23244054.66808 -18112251.32408  17409675.28808  17409676.90108
 93 04 15 11 56 00.0000000  0  8 21 01 28 12 23 25 31 11
 -35729243.51608 -27840963.10908  17119098.64008  17119099.02208
 -32549375.71008 -25363144.36608  16493521.36208  16493521.46508
 -16087244.86907 -12535517.76907  20152600.76907  20152601.63007
   2607862.08507   2032102.35507  20922038.46007  20922039.91107
 -19675257.64508 -15331365.86008  20010953.70308  20010954.93108
  -8877776.59108  -6917746.83308  16662382.30708  16662382.11808
 -10570172.20908  -8236499.83408  19459644.15308  19459644.59208
 -23135806.61908 -18027902.24608  17430274.22808  17430275.85408
 93 04 15 11 58 00.0000000  0  8 12 21 01 28 23 25 31 11
   2899607.52207   2259436.44307  20977555.85307  20977557.24407
 -35642983.42108 -27773747.49408  17135513.41408  17135513.82308
 -32447556.27208 -25283804.54508  16512896.97308  16512897.09608
 -15842347.38807 -12344688.65107  20199203.21107  20199204.04707
 -19494388.42208 -15190429.01608  20045372.21108  20045373.44108
  -9240800.11508  -7200622.25908  16593301.20508  16593300.98308
 -10408907.68708  -8110839.21208  19490331.87608  19490332.35208
 -23019721.12508 -17937446.06608  17452364.60808  17452366.23208
 93 04 15 12 00 00.0000000  0  8 12 21 01 25 28 23 31 11
   3196648.78707   2490897.15306  21034081.01107  21034082.38106
 -35552537.23808 -27703269.99608  17152724.78108  17152725.18708
 -32342414.25708 -25201875.70608  16532904.82208  16532904.94908
  -9596849.06308  -7478062.94608  16525547.29608  16525547.06608
 -15599222.61907 -12155241.00207  20245464.95107  20245465.70107
 -19311406.99708 -15047846.33508  20080192.54708  20080193.82908
 -10245172.00808  -7983253.00208  19521489.57808  19521490.15208
 -22894841.03508 -17840136.95908  17476128.52108  17476130.19508
 93 04 15 12 02 00.0000000  0  8 12 21 01 25 28 23 31 11
   3499257.49707   2726696.07006  21091665.53007  21091666.94506
 -35457490.98408 -27629208.02408  17170811.50208  17170811.90008
 -32233880.33808 -25117303.82708  16553558.11108  16553558.21908
  -9945404.74108  -7749664.72008  16459219.35108  16459219.10708
 -15357788.98007 -11967110.98207  20291407.59807  20291408.44407
 -19125560.03108 -14903030.78508  20115558.25808  20115559.59608
 -10078468.01508  -7853353.81708  19553212.23808  19553212.88408
 -22760879.94708 -17735751.75108  17501620.50608  17501622.18508
 93 04 15 12 04 00.0000000  0  7 12 21 23 01 25 31 11
   3806266.70806   2965923.93606  21150087.46906  21150089.00906
 -35358772.08608 -27552284.24408  17189597.10508  17189597.55408
 -18937752.75308 -14756687.70908  20151297.00908  20151298.32408
 -32122436.94008 -25030464.82508  16574765.12708  16574765.21208
 -10287319.98608  -8016092.13208  16394155.01808  16394154.73908
  -9909802.50008  -7721926.17508  19585308.19008  19585308.90808
 -22618995.21108 -17625192.26908  17528620.31208  17528622.00508
 93 04 15 12 06 00.0000000  0  7 15 21 23 01 25 31 11
        -0.20518        -0.08018  17215238.37518  17215238.72618
 -35255708.36508 -27471974.87508  17209209.50608  17209209.94108
 -18747589.42908 -14608508.74008  20187484.02108  20187485.52708
 -32007756.48108 -24941103.44008  16596588.07808  16596588.18308
 -10621593.68908  -8276565.08908  16330544.76708  16330544.50108
  -9738799.56408  -7588677.15708  19617848.98808  19617849.72808
 -22468683.01808 -17508065.93008  17557223.84708  17557225.52508
 93 04 15 12 08 00.0000000  0  8 15 21 20 23 01 25 31 11
   -379442.69108   -295669.52308  17143032.82308  17143033.16208
 -35148004.26608 -27388049.63308  17229704.90708  17229705.40208
        -0.83118        -0.93017  20378010.30218  20378011.56117
 -18554837.59108 -14458312.76207  20224163.64008  20224165.23407
 -31890052.77608 -24849386.27108  16618986.36808  16618986.46108
 -10948187.15908  -8531053.44508  16268396.06608  16268395.78008
  -9565604.95708  -7453720.34408  19650806.94408  19650807.71608
 -22309904.34608 -17384342.33208  17587438.43108  17587440.14008
 93 04 15 12 10 00.0000000  0  8 15 21 20 23 01 25 31 11
   -751352.76708   -585469.55808  17072260.68408  17072261.03708
 -35035672.30108 -27300518.26008  17251081.03308  17251081.49408
   -245003.05308   -190911.61707  20331387.83908  20331389.05307
 -18359275.44408 -14305926.95507  20261378.09608  20261379.70107
 -31769178.44908 -24755198.47808  16641987.98808  16641988.08608
 -11266832.99308  -8779348.84108  16207759.65908  16207759.37308
  -9389949.32508  -7316845.85008  19684233.10508  19684233.87808
 -22142979.60508 -17254271.15308  17619203.17908  17619204.92608
 93 04 15 12 12 00.0000000  0  8 15 21 20 23 01 25 31 11
  -1115661.38108   -869346.37008  17002935.04808  17002935.37108
 -34918754.39008 -27209413.43308  17273329.79908  17273330.30608
   -484287.12008   -377366.58208  20285853.43608  20285854.60708
 -18161214.65408 -14151594.20407  20299068.07408  20299069.80807
 -31645103.89508 -24658516.99808  16665598.56608  16665598.67708
 -11577321.20808  -9021287.64308  16148675.76208  16148675.44908
  -9212704.96208  -7178733.39408  19717961.72808  19717962.50808
 -21968212.16808 -17118088.77408  17652460.33808  17652462.11808
 93 04 15 12 14 00.0000000  0  8 15 21 01 20 23 25 31 11
  -1472453.29108  -1147366.02008  16935039.78408  16935040.10308
 -34797563.82308 -27114979.26308  17296391.60008  17296392.09108
 -31518423.84608 -24559805.26708  16689704.98608  16689705.05908
   -717945.24708   -559437.70908  20241389.71108  20241390.77708
 -17961100.54907 -13995661.50107  20337148.84707  20337150.68407
 -11879958.32308  -9257108.71108  16091085.75808  16091085.42808
  -9034037.50608  -7039512.02608  19751961.04508  19751961.75008
 -21786060.58108 -16976152.50808  17687122.63008  17687124.44308
 93 04 15 12 16 00.0000000  0  8 15 21 01 20 23 25 31 11
  -1821570.03308  -1419405.01708  16868605.05508  16868605.36808
 -34671906.15108 -27017064.24708  17320303.54108  17320304.00408
 -31389592.54208 -24459417.23808  16714220.76108  16714220.85608
   -945825.39308   -737006.51708  20198025.42808  20198026.50308
 -17758630.02907 -13837892.66607  20375678.06507  20375679.85207
 -12174724.53108  -9486796.60208  16034993.54708  16034993.20008
  -8854194.73408  -6899374.82508  19786184.06208  19786184.80808
 -21596742.53808 -16828631.99008  17723148.69708  17723150.45308
 93 04 15 12 18 00.0000000  0  8 25 15 21 01 20 23 31 11
 -12461508.16208  -9710264.30208  15980420.41908  15980420.08208
  -2162799.06608  -1685297.75208  16803671.32908  16803671.62008
 -34542067.02308 -26915890.96608  17345011.13208  17345011.63808
 -31258528.15808 -24357289.15208  16739161.51108  16739161.59008
  -1167723.26608   -909913.85408  20155799.64008  20155800.66508
 -17553631.32807 -13678153.86107  20414688.27807  20414690.33607
  -8673232.26508  -6758365.16808  19820620.10208  19820620.82808
 -21400420.46408 -16675653.78008  17760507.58108  17760509.32908
 93 04 15 12 20 00.0000000  0  7 25 15 21 01 20 31 11
 -12740711.75008  -9927825.46908  15927289.71208  15927289.34708
  -2496549.04108  -1945362.64508  16740160.79108  16740161.09908
 -34408244.81908 -26811614.00508  17370476.75508  17370477.24008
 -31125621.75908 -24253725.72708  16764452.72708  16764452.82308
  -1384053.35708  -1078482.68808  20114633.35708  20114634.33508
  -8492212.20508  -6617310.60408  19855067.07308  19855067.77408
 -21197878.85208 -16517829.17608  17799050.02408  17799051.70708
 93 04 15 12 22 00.0000000  0  8 25 15 21 01 20 14 31 11
 -13011770.43909 -10139039.95908  15875708.86909  15875708.49308
  -2822481.51008  -2199335.97508  16678137.88408  16678138.18808
 -34270501.74508 -26704281.82208  17396688.42608  17396688.93808
 -30990609.62408 -24148521.46808  16790144.69508  16790144.81108
  -1594485.17608  -1242455.48308  20074589.48108  20074590.50908
        -0.89118        -0.14718  20008931.17018  20008932.27618
  -8310654.66308  -6475837.22908  19889616.31008  19889617.01408
 -20989154.06208 -16355186.49908  17838769.00808  17838770.71108
 93 04 15 12 24 00.0000000  0  8 25 15 21 01 20 14 31 11
 -13274297.16209 -10343606.16708  15825751.60709  15825751.21308
  -3139941.13708  -2446707.08208  16617727.28908  16617727.61508
 -34128200.39408 -26593397.71608  17423767.51908  17423768.08508
 -30853168.19108 -24041424.24708  16816298.94108  16816299.05208
  -1798370.92408  -1401327.46808  20035791.30508  20035792.29808
   -432677.90908   -337150.82408  19926595.21208  19926596.38008
  -8128477.73508  -6333881.20308  19924283.35308  19924284.13008
 -20773964.33508 -16187506.19508  17879718.25108  17879719.99808
 93 04 15 12 26 00.0000000  0  8 25 15 21 01 20 14 31 11
 -13528457.42009 -10541653.03208  15777386.45509  15777386.03508
  -3448867.10108  -2687428.58808  16558940.62708  16558940.93408
 -33981133.67408 -26478800.33508  17451753.47108  17451754.03908
 -30713854.75708 -23932868.32108  16842809.41108  16842809.49508
  -1995656.58008  -1555056.53008  19998249.05208  19998250.08308
   -866286.75108   -675027.60608  19844081.92008  19844083.24408
  -7946140.00108  -6191799.88007  19958981.10608  19958981.86107
 -20552622.37508 -16015031.95108  17921838.21208  17921840.00308
 93 04 15 12 28 00.0000000  0  8 25 15 21 01 20 14 31 11
 -13774002.21009 -10732986.55708  15730660.82109  15730660.38808
  -3749220.12308  -2921469.86808  16501785.33408  16501785.60608
 -33829942.62908 -26360989.19608  17480524.13908  17480524.74508
 -30572947.97408 -23823070.83208  16869623.07808  16869623.17408
  -2186307.70408  -1703615.83408  19961969.30508  19961970.32608
  -1300662.59308  -1013502.05208  19761422.74608  19761424.02808
  -7763471.11407  -6049460.51007  19993741.64407  19993742.55807
 -20325457.94208 -15838020.71208  17965066.14608  17965068.00608
 93 04 15 12 30 00.0000000  0  8 25 15 21 01 20 14 31 11
 -14011106.99909 -10917743.45408  15685541.23209  15685540.75608
  -4040930.02908  -3148776.25508  16446274.76108  16446275.02608
 -33674356.97108 -26239753.69508  17510131.13708  17510131.75108
 -30430007.95808 -23711689.01408  16896823.67208  16896823.77408
  -2370262.75408  -1846957.41708  19926963.80108  19926964.81708
  -1736093.95208  -1352799.01108  19678562.78408  19678564.01508
  -7580916.84607  -5907210.45607  20028480.56307  20028481.45107
 -20092769.12708 -15656704.75708  18009345.34408  18009347.21908
 93 04 15 12 32 00.0000000  0  8 25 15 21 20 14 01 31 11
 -14239633.27609 -11095815.80108  15642054.08909  15642053.60708
  -4323941.78208  -3369304.85808  16392419.38608  16392419.65708
 -33514354.51608 -26115076.53808  17540578.74908  17540579.32608
  -2547472.20908  -1985042.69908  19893241.96208  19893242.97008
  -2172657.77408  -1692978.38508  19595487.42008  19595488.56508
 -30285242.87008 -23598885.06108  16924371.58508  16924371.64308
  -7398711.65907  -5765232.40007  20063153.12807  20063154.01407
 -19854865.83408 -15471325.56308  18054616.84108  18054618.73608
 93 04 15 12 34 00.0000000  0  8 25 15 21 20 14 01 31 11
 -14459130.02509 -11266852.15409  15600285.17209  15600284.65509
  -4598092.22008  -3582928.54408  16340250.26108  16340250.54808
 -33350086.20008 -25987075.33708  17571837.96108  17571838.62708
  -2717775.77108  -2117746.77708  19860834.30008  19860835.28008
  -2610339.04608  -2034028.51808  19512199.34208  19512200.35408
 -30139204.94608 -23485089.29508  16952161.68308  16952161.77608
  -7217304.01107  -5623875.83407  20097673.79607  20097674.57907
 -19611945.75608 -15282037.18508  18100843.07308  18100844.85008
 93 04 15 12 36 00.0000000  0  8 25 15 21 20 14 01 31 11
 -14671117.30009 -11432036.96709  15559945.28609  15559944.76009
  -4864250.20508  -3790324.34208  16289602.05008  16289602.30908
 -33182619.15008 -25856581.62708  17603705.96608  17603706.65308
  -2882047.83808  -2245750.98508  19829574.31208  19829575.39808
  -3050163.94608  -2376749.02308  19428503.31508  19428504.21208
 -29992656.12908 -23370895.43508  16980049.04808  16980049.15308
  -7037772.15207  -5483980.89807  20131837.47007  20131838.40007
 -19365236.82908 -15089796.45908  18147790.20308  18147792.00108
 93 04 15 12 38 00.0000000  0  8 15 21 20 14 01 25 31 11
  -5123170.79908  -3992080.62208  16240331.08608  16240331.33208
 -33012443.83408 -25723977.59008  17636089.34708  17636090.04708
  -3041048.96308  -2369647.97508  19799317.42208  19799318.44208
  -3492624.28908  -2721523.12308  19344305.73408  19344306.55608
 -29846490.13008 -23256999.87708  17007863.49508  17007863.60208
 -14876343.23809 -11591953.21609  15520892.01809  15520891.47909
  -6860728.79607  -5346025.08807  20165527.89207  20165528.63107
 -19115847.15408 -14895466.82808  18195247.49108  18195249.19408
 93 04 15 12 40 00.0000000  0  8 15 21 20 14 01 25 31 11
  -5373657.71008  -4187265.20308  16192664.99308  16192665.22008
 -32838816.55108 -25588683.71608  17669129.63608  17669130.36208
  -3193584.91108  -2488507.18808  19770290.80708  19770291.83808
  -3936662.26708  -3067526.54408  19259807.92308  19259808.65908
 -29699846.50608 -23142732.15108  17035768.89208  17035768.97508
 -15073513.85409 -11745592.59209  15483371.66309  15483371.09609
  -6685168.35907  -5209224.78507  20198935.91707  20198936.74607
 -18862930.15508 -14698388.64508  18243375.93408  18243377.65608
 93 04 15 12 42 00.0000000  0  8 15 21 20 14 01 25 31 11
  -5614539.03008  -4374964.91708  16146826.77908  16146827.03308
 -32660600.07408 -25449813.84808  17703043.12408  17703043.86308
  -3338485.28308  -2601416.59208  19742717.24508  19742718.26708
  -4381116.95908  -3413854.69208  19175230.79508  19175231.63008
 -29551668.47608 -23027268.79208  17063966.22308  17063966.32708
 -15261530.56109 -11892099.05109  15447593.17609  15447592.58209
  -6510775.71307  -5073334.44506  20232121.95707  20232122.50006
 -18605656.61008 -14497915.74308  18292333.45408  18292335.19108
 93 04 15 12 44 00.0000000  0  8 15 25 20 21 14 01 31 11
  -5845976.98008  -4555306.16508  16102785.59108  16102785.85608
 -15440419.25809 -12031492.78809  15413551.82509  15413551.21209
  -3475917.24208  -2708506.46808  19716564.80808  19716565.85308
 -32478122.03608 -25307623.27908  17737767.63908  17737768.41508
  -4826148.25308  -3760632.15108  19090543.98908  19090544.74508
 -29402072.80208 -22910700.77508  17092433.37808  17092433.52008
  -6337628.97407  -4938414.93206  20265070.54707  20265071.31106
 -18344527.73008 -14294438.69508  18342024.52208  18342026.38708
 93 04 15 12 46 00.0000000  0  8 15 25 20 21 14 01 31 11
  -6068818.55208  -4728948.93808  16060380.24008  16060380.48708
 -15611491.03809 -12164795.43109  15380997.87509  15380997.24309
  -3606727.01408  -2810436.20908  19691672.58608  19691673.63008
 -32292354.22508 -25162869.27208  17773118.10308  17773118.96808
  -5272774.47608  -4108652.42608  19005553.78208  19005554.49008
 -29252508.01408 -22794156.82708  17120894.61608  17120894.77408
  -6166670.89507  -4805200.88506  20297602.95207  20297603.74706
 -18080723.32108 -14088876.81708  18392224.84908  18392226.70408
 93 04 15 12 48 00.0000000  0  8 15 25 20 21 14 01 31 11
  -6281525.45208  -4894694.56608  16019903.45308  16019903.70408
 -15773008.60009 -12290653.23909  15350262.09009  15350261.46009
  -3729376.86808  -2906007.57308  19668333.12008  19668334.18808
 -32101773.99608 -25014365.35408  17809384.51708  17809385.32108
  -5719604.90308  -4456831.82708  18920524.56708  18920525.33508
 -29101249.71608 -22676293.26608  17149678.13508  17149678.31008
  -5996945.58106  -4672947.41106  20329900.61506  20329901.12406
 -17813031.87708 -13880286.09108  18443164.80408  18443166.71808
 93 04 15 12 50 00.0000000  0  7 15 25 20 21 14 01 11
  -6484022.82908  -5052484.72508  15981369.47808  15981369.72208
 -15924957.82009 -12409055.20509  15321347.16109  15321346.52009
  -3843792.72308  -2995162.84908  19646560.51408  19646561.65208
 -31906177.36308 -24861952.56208  17846605.44408  17846606.28008
  -6166095.70108  -4804746.59708  18835560.16808  18835560.91808
 -28948238.83208 -22557064.05808  17178795.15808  17178795.34408
 -17541699.08408 -13668857.94208  18494797.76508  18494799.67708
 93 04 15 12 52 00.0000000  0  8 15 25 01 20 21 14 29 11
  -6677219.81008  -5203027.82708  15944605.31608  15944605.55508
 -16068294.24809 -12520745.91909  15294071.08709  15294070.46009
 -28794808.21708 -22437507.79808  17207992.06708  17207992.26908
  -3950879.59408  -3078607.23208  19626182.65808  19626183.73908
 -31706860.10108 -24706640.58008  17884534.39208  17884535.27408
  -6613687.36208  -5153519.19408  18750386.31108  18750386.93808
         0.26718        -0.14318  19058644.07518  19058644.15518
 -17267946.78408 -13455544.46608  18546891.18508  18546893.06408
 93 04 15 12 54 00.0000000  0  8 15 25 21 20 14 01 29 11
  -6861336.71408  -5346495.55108  15909569.05008  15909569.28208
 -16203179.91709 -12625851.62909  15268403.19609  15268402.56009
 -31503968.12508 -24548543.11808  17923143.54508  17923144.49708
  -4050853.41408  -3156508.98508  19607158.32608  19607159.45608
  -7062382.05008  -5503151.30008  18665002.45708  18665003.03008
 -28641225.97008 -22317833.38908  17237217.82608  17237218.02808
   -358843.22008   -279618.34008  18990358.29408  18990358.49708
 -16992300.83508 -13240755.41308  18599344.91708  18599346.77808
 93 04 15 12 56 00.0000000  0  8 15 25 20 21 14 01 29 11
  -7035322.02508  -5482068.53408  15876460.75108  15876460.99008
 -16329111.07609 -12723979.81009  15244439.30309  15244438.65809
  -4142660.82208  -3228047.28808  19589687.98308  19589689.13608
 -31296453.21308 -24386843.38008  17962632.46208  17962633.55008
  -7511188.20308  -5852870.27908  18579597.38108  18579598.03408
 -28486494.58108 -22197263.55608  17266662.38108  17266662.58608
   -715233.59708   -557325.03108  18922539.35308  18922539.56908
 -16714008.24108 -13023904.04208  18652302.30408  18652304.10008
 93 04 15 12 58 00.0000000  0  8 15 25 20 21 14 01 29 11
  -7199186.26608  -5609754.97208  15845278.42908  15845278.69308
 -16445783.06909 -12814893.06609  15222237.36909  15222236.73809
  -4226304.25608  -3293224.05708  19573771.27308  19573772.41608
 -31084628.76208 -24221785.56408  18002941.49208  18002942.59108
  -7959788.95208  -6202429.21608  18494231.39808  18494232.00708
 -28330705.04708 -22075869.20608  17296308.18908  17296308.43608
  -1069249.54708   -833181.52308  18855172.34508  18855172.50008
 -16433370.11508 -12805224.99808  18705705.98208  18705707.79608
 93 04 15 13 00 00.0000000  0  8 15 25 20 21 14 01 29 11
  -7353121.90108  -5729704.84108  15815985.47008  15815985.75008
 -16553452.41009 -12898791.26909  15201748.55209  15201747.93309
  -4301969.85408  -3352184.32608  19559372.62908  19559373.76008
 -30868745.08808 -24053564.73208  18044022.86908  18044024.06708
  -8408641.59008  -6552184.44408  18408817.50608  18408818.08808
 -28174421.73308 -21954090.09808  17326048.02708  17326048.28908
  -1421013.78608  -1107283.44208  18788233.83708  18788233.91508
 -16150861.91808 -12585088.74908  18759465.50708  18759467.31708
 93 04 15 13 02 00.0000000  0  8 15 25 01 20 21 14 29 11
  -7497189.20308  -5841965.10608  15788570.38508  15788570.69408
 -16652311.73109 -12975824.52709  15182936.29409  15182935.68109
 -28017597.70808 -21831889.66408  17355890.70908  17355890.99708
  -4369710.63908  -3404969.42108  19546482.00008  19546483.23108
 -30648741.92508 -23882133.90308  18085888.26308  18085889.47808
  -8857588.29108  -6902012.97308  18323385.71208  18323386.29408
  -1770696.10108  -1379763.10508  18721691.51308  18721691.48108
 -15866819.24608 -12363756.80808  18813517.02308  18813518.80608
 93 04 15 13 04 00.0000000  0  8 15 25 01 20 21 14 29 11
  -7631405.77808  -5946549.48408  15763029.85008  15763030.15208
 -16742127.30009 -13045810.70609  15165844.95609  15165844.35309
 -27860151.55608 -21709204.46208  17385851.81208  17385852.08408
  -4429535.86708  -3451586.54208  19535097.71208  19535098.93508
 -30425236.10208 -23707973.73808  18128420.13008  18128421.40008
  -9306469.93908  -7251790.82508  18237966.37808  18237966.93108
  -2118139.18408  -1650497.91408  18655575.29908  18655575.14708
 -15581526.05108 -12141450.43308  18867806.45008  18867808.28008
 93 04 15 13 06 00.0000000  0  8 15 25 20 21 14 01 29 11
  -7755986.34408  -6043625.29008  15739322.98408  15739323.29008
 -16823628.96809 -13109318.52309  15150335.72909  15150335.11209
  -4481647.96208  -3492193.42808  19525181.14608  19525182.45708
 -30197914.33808 -23530840.12008  18171678.20308  18171679.49708
  -9756083.76008  -7602139.21608  18152407.66008  18152408.15508
 -27702471.39108 -21586336.91808  17415857.40108  17415857.76708
  -2463924.38008  -1919940.87708  18589774.43808  18589774.31408
 -15295453.32908 -11918536.63608  18922244.21308  18922245.99908
 93 04 15 13 08 00.0000000  0  8 15 25 20 21 14 01 29 11
  -7870846.06408  -6133126.41908  15717465.93308  15717466.25108
 -16896689.08109 -13166248.51009  15136432.84909  15136432.24209
  -4525949.63308  -3526714.25208  19516750.80908  19516752.15208
 -29966571.73008 -23350573.40008  18215701.43308  18215702.76008
 -10205610.98808  -7952420.14408  18066865.49908  18066865.96008
 -27544369.98908 -21463141.14308  17445943.18608  17445943.52308
  -2807808.27408  -2187902.32808  18524335.38708  18524335.34008
 -15008765.41608 -11695143.47508  18976799.06408  18976800.93708
 93 04 15 13 10 00.0000000  0  8 15 25 20 21 14 01 29 11
  -7975961.31508  -6215034.46108  15697463.20908  15697463.53008
 -16961066.68709 -13216412.91509  15124182.21409  15124181.61509
  -4562402.87208  -3555119.41908  19509814.03208  19509815.35408
 -29731641.54908 -23167511.18108  18260407.40208  18260408.72808
 -10654689.43608  -8302351.37808  17981408.67908  17981409.14008
 -27386252.54608 -21339932.86908  17476032.05908  17476032.44308
  -3149961.72708  -2454515.40908  18459225.71008  18459225.72108
 -14721677.22208 -11471438.41508  19031430.04808  19031431.93208
 93 04 15 13 12 00.0000000  0  8 15 25 20 21 14 01 29 11
  -8071534.42608  -6289507.07308  15679276.31308  15679276.63308
 -17017141.34109 -13260107.49209  15113511.61109  15113511.04809
  -4591195.51608  -3577555.30808  19504335.04208  19504336.36608
 -29493394.89508 -22981864.72308  18305744.45308  18305745.86208
 -11104113.49408  -8652551.92908  17895886.14808  17895886.57808
 -27228482.32908 -21216995.16608  17506054.83908  17506055.26108
  -3490339.22508  -2719744.63808  18394454.10408  18394454.12208
 -14434622.43308 -11247759.37708  19086054.74908  19086056.67308
 93 04 15 13 14 00.0000000  0  8 15 25 20 21 14 01 29 11
  -8157157.72308  -6356226.58808  15662982.77508  15662983.15008
 -17064723.62509 -13297184.64609  15104457.03509  15104456.47509
  -4611903.68708  -3593691.61108  19500394.43908  19500395.80008
 -29251304.17108 -22793222.90608  18351812.94408  18351814.53108
 -11553128.11808  -9002433.45108  17810441.52508  17810441.93108
 -27070145.88108 -21093616.24508  17536185.35108  17536185.78608
  -3829072.87608  -2983692.95408  18329995.27608  18329995.28908
 -14147413.21908 -11023960.03907  19140708.88008  19140710.75907
 93 04 15 13 16 00.0000000  0  8 15 25 20 21 14 01 29 11
  -8232577.34608  -6414995.19408  15648630.96208  15648631.33708
 -17103340.91209 -13327276.10009  15097108.42409  15097107.90009
  -4624254.95008  -3603316.04108  19498044.14508  19498045.49008
 -29005246.99908 -22601490.35908  18398636.20808  18398637.89908
 -12001366.40308  -9351710.04408  17725144.63008  17725145.06108
 -26911439.21508 -20969948.84408  17566386.32008  17566386.75708
  -4165516.79808  -3245857.05908  18265972.18008  18265972.20508
 -13860007.71108 -10800007.75107  19195400.38308  19195402.19907
 93 04 15 13 18 00.0000000  0  8 15 25 20 21 14 01 29 11
  -8297947.09908  -6465932.73808  15636191.56708  15636191.96208
 -17133398.12509 -13350697.36909  15091388.82009  15091388.29709
  -4628384.43608  -3606533.87408  19497258.33608  19497259.72008
 -28755054.19908 -22406535.25308  18446246.59508  18446248.36008
 -12449062.24108  -9700563.96308  17639950.94108  17639951.38708
 -26752332.11708 -20845969.41808  17596663.48808  17596663.97108
  -4499680.43908  -3506244.33308  18202382.96608  18202382.99608
 -13572762.42707 -10576180.32607  19250061.32207  19250063.18507
 93 04 15 13 20 00.0000000  0  8 15 25 20 21 14 01 29 11
  -8353497.24308  -6509218.63908  15625620.80808  15625621.19808
 -17155109.34809 -13367615.26909  15087257.34409  15087256.83309
  -4624498.72408  -3603506.08208  19497997.83508  19497999.14508
 -28501591.87608 -22209032.48808  18494479.16208  18494480.95908
 -12895657.76808 -10048560.49808  17554966.64808  17554967.11508
 -26592620.78208 -20721519.15908  17627055.63508  17627056.12508
  -4832143.37108  -3765306.39108  18139117.35008  18139117.41608
 -13286097.56007 -10352805.18807  19304612.06907  19304613.83007
 93 04 15 13 22 00.0000000  0  8 15 25 20 21 14 01 29 11
  -8399003.54908  -6544678.17908  15616961.28408  15616961.70308
 -17167852.86709 -13377545.34908  15084832.41909  15084831.92208
  -4612353.12808  -3594042.03908  19500309.16908  19500310.44808
 -28244561.84008 -22008749.69308  18543390.67608  18543392.53208
 -13340978.34108 -10395563.57208  17470224.89608  17470225.41608
 -26432695.04108 -20596901.83608  17657488.58708  17657489.15308
  -5162124.75808  -4022434.78908  18076324.00708  18076324.07608
 -12999973.60107 -10129851.53907  19359059.71807  19359061.47307
 93 04 15 13 24 00.0000000  0  8 15 25 20 21 14 01 29 11
  -8434913.03008  -6572659.68108  15610127.99808  15610128.46508
 -17172737.62809 -13381351.72008  15083902.92209  15083902.44708
  -4592371.95508  -3578472.36308  19504111.46808  19504112.76908
 -27983939.48608 -21805667.68508  18592985.75408  18592987.64608
 -13786019.68708 -10742349.06908  17385536.43508  17385536.93508
 -26272669.70708 -20472206.90808  17687940.50508  17687941.09608
  -5490609.84508  -4278397.24308  18013815.34908  18013815.43908
 -12715009.91507  -9907802.02307  19413286.59407  19413288.35107
 93 04 15 13 26 00.0000000  0  7 15 25 20 21 14 01 29
  -8461380.74508  -6593283.96608  15605091.42508  15605091.91208
 -17169869.01509 -13379116.50608  15084448.84509  15084448.38608
  -4564681.83708  -3556895.72408  19509380.77708  19509382.16108
 -27719953.20008 -21599964.41808  18643221.01008  18643222.89708
 -14230135.76708 -11088413.58908  17301023.90108  17301024.46208
 -26112937.05808 -20347740.04208  17718336.71508  17718337.33808
  -5817695.76608  -4533269.43308  17951572.99708  17951573.09608
 93 04 15 13 28 00.0000000  0  8 15 25 20 21 14 01 29 22
  -8478086.13608  -6606301.25008  15601912.56008  15601913.08008
 -17158776.84809 -13370473.33208  15086559.65209  15086559.20908
  -4528937.01008  -3529042.67808  19516182.81808  19516184.15408
 -27452580.40808 -21391622.30508  18694100.56108  18694102.45908
 -14672641.45608 -11433223.25808  17216817.95008  17216818.49108
 -25952776.94908 -20222940.09808  17748814.30808  17748814.96508
  -6142998.47608  -4786752.10608  17889670.02108  17889670.09208
        -0.06618        -0.40518  18314953.16218  18314954.78718
 93 04 15 13 30 00.0000000  0  8 15 25 20 21 14 01 29 22
  -8484957.68408  -6611655.80708  15600605.04908  15600605.57108
 -17139074.94109 -13355121.27308  15090308.86509  15090308.43008
  -4485036.81108  -3494834.80408  19524536.76408  19524538.21008
 -27181652.76908 -21180510.19808  18745656.60208  18745658.63108
 -15113724.15208 -11776924.10808  17132882.80308  17132883.33608
 -25792297.58508 -20097891.38008  17779352.60008  17779353.33908
  -6466232.21408  -5038622.59008  17828160.79308  17828160.83708
   -450830.26008   -351296.63208  18229163.06808  18229164.64508
 93 04 15 13 32 00.0000000  0  8 15 25 20 21 14 01 29 22
  -8481980.35708  -6609335.92008  15601171.69708  15601172.24308
 -17111088.68609 -13333313.88208  15095634.54209  15095634.12608
  -4432936.39808  -3454237.16207  19534451.22508  19534452.65207
 -26907117.99008 -20966587.40608  18797899.07008  18797901.28908
 -15553275.39308 -12119431.61708  17049238.95408  17049239.52008
 -25631438.30908 -19972546.63008  17809963.22908  17809963.97408
  -6787278.49708  -5288788.56408  17767067.76808  17767067.84208
   -900546.90408   -701725.17408  18143584.92208  18143586.31608
 93 04 15 13 34 00.0000000  0  8 15 25 20 21 14 01 29 22
  -8468863.81008  -6599115.34608  15603667.78608  15603668.35608
 -17074889.59809 -13305106.88208  15102523.05909  15102522.67608
  -4372314.90108  -3406999.73007  19545987.25808  19545988.64807
 -26628473.20308 -20749462.02808  18850923.64608  18850926.05608
 -15990478.54908 -12460109.45208  16966042.00708  16966042.58308
 -25469725.92608 -19846537.13008  17840736.18608  17840736.97708
  -7105835.34908  -5537014.72008  17706448.46208  17706448.61508
  -1348575.87708  -1050838.67108  18058327.94508  18058329.21208
 93 04 15 13 36 00.0000000  0  8 15 25 20 21 14 01 29 22
  -8445727.98908  -6581087.54908  15608070.45608  15608071.08208
 -17030182.74509 -13270270.45108  15111030.53909  15111030.18308
  -4303258.56708  -3353189.69707  19559128.28408  19559129.75507
 -26346360.50708 -20529634.40708  18904608.30008  18904610.87708
 -16425072.34108 -12798754.01108  16883341.60808  16883342.21508
 -25307586.29308 -19720194.70708  17871590.43808  17871591.22708
  -7422000.83208  -5783377.45908  17646284.11008  17646284.25308
  -1794747.44108  -1398504.83808  17973424.35708  17973425.57308
 93 04 15 13 38 00.0000000  0  8 15 14 20 21 01 25 29 22
  -8412803.56608  -6555432.27108  15614335.86408  15614336.49408
 -16857572.96108 -13135767.52208  16801039.51408  16801040.08908
  -4225966.41007  -3292962.15307  19573836.54007  19573838.03707
 -26060821.67108 -20307137.09208  18958944.87208  18958947.59308
 -25144709.48708 -19593277.86308  17902585.01208  17902585.80408
 -16977025.34809 -13228849.17508  15121146.11809  15121145.78208
  -7735924.13808  -6027993.05708  17586546.47008  17586546.62408
  -2238996.67708  -1744673.09108  17888886.50508  17888887.79808
 93 04 15 13 40 00.0000000  0  8 15 20 21 14 01 25 29 22
  -8370043.80808  -6522113.10208  15622472.88108  15622473.54908
  -4140355.05707  -3226252.11907  19590127.93607  19590129.43007
 -25771296.83708 -20081533.82008  19014040.07608  19014042.83908
 -17287458.94008 -13470743.65308  16719234.96808  16719235.55008
 -24981008.64308 -19465718.91208  17933736.32908  17933737.19508
 -16916033.66109 -13181323.25808  15132752.49209  15132752.18508
  -8047659.02208  -6270903.38308  17527225.36008  17527225.48108
  -2680970.68508  -2089068.43108  17804781.59908  17804782.97908
 93 04 15 13 42 00.0000000  0  8 15 20 21 14 01 25 29 22
  -8317486.73808  -6481159.66908  15632474.26208  15632474.97808
  -4046427.10707  -3153061.61307  19608001.93107  19608003.46407
 -25478103.42708 -19853071.93108  19069833.45208  19069836.25708
 -17714366.52008 -13803398.95308  16637997.21708  16637997.84508
 -24816622.98808 -19337626.33808  17965018.03808  17965018.95208
 -16847130.68509 -13127632.69908  15145864.37009  15145864.07808
  -8356970.97008  -6511925.70708  17468365.29508  17468365.38408
  -3120397.38208  -2431478.85708  17721161.46708  17721162.93308
 93 04 15 13 44 00.0000000  0  8 15 20 21 14 01 25 29 22
  -8256044.54508  -6433282.76508  15644166.43208  15644167.15908
  -3945057.73507  -3074072.61707  19627291.99307  19627293.51207
 -25181935.25308 -19622292.07008  19126192.74608  19126195.67108
 -18139123.15708 -14134378.19108  16557168.73908  16557169.37908
 -24652162.15908 -19209475.17708  17996313.92308  17996314.85508
 -16770701.07209 -13068077.22308  15160408.48909  15160408.21608
  -8664418.74608  -6751495.42308  17409860.01308  17409860.07508
  -3557870.37008  -2772366.91708  17637913.14008  17637914.62308
 93 04 15 13 46 00.0000000  0  8 15 20 21 14 01 25 29 22
  -8186263.03108  -6378907.69408  15657445.50608  15657446.27808
  -3836752.75907  -2989679.21507  19647901.75007  19647903.49007
 -24883937.98008 -19390086.94308  19182900.13108  19182903.16608
 -18561789.14208 -14463728.35608  16476738.11408  16476738.74408
 -24488329.39708 -19081813.42608  18027490.42408  18027491.37008
 -16687486.23709 -13003234.56608  15176243.76509  15176243.51908
  -8970995.80808  -6990386.65408  17351520.33608  17351520.42208
  -3993607.59608  -3111902.44908  17554995.13908  17554996.63008
 93 04 15 13 48 00.0000000  0  8 15 20 21 14 01 25 29 22
  -8107136.52408  -6317250.81508  15672502.88808  15672503.68008
  -3720468.21807  -2899067.98407  19670030.17407  19670031.65107
 -24582570.75308 -19155255.84707  19240248.77908  19240251.89507
 -18981387.18108 -14790687.91208  16396891.27308  16396891.92108
 -24323840.78708 -18953640.62908  18058791.69608  18058792.64908
 -16596784.37309 -12932557.86108  15193503.85109  15193503.61708
  -9275514.79108  -7227674.19908  17293572.29408  17293572.41308
  -4426273.69608  -3449044.90408  17472661.56508  17472663.02608
 93 04 15 13 50 00.0000000  0  8 15 20 21 14 01 25 29 22
  -8018144.62908  -6247906.62508  15689437.60908  15689438.44408
  -3595642.01507  -2801800.91106  19693783.85307  19693785.40406
 -24276979.59908 -18917133.43007  19298401.22508  19298404.43807
 -19397025.95008 -15114562.32008  16317797.94208  16317798.61108
 -24157737.40308 -18824209.57008  18090400.18808  18090401.24408
 -16497990.10309 -12855575.38608  15212303.83609  15212303.63708
  -9577001.42608  -7462598.86408  17236201.29008  17236201.44108
  -4855009.44508  -3783124.74908  17391075.93908  17391077.42208
 93 04 15 13 52 00.0000000  0  8 15 20 21 14 01 25 29 22
  -7919024.28308  -6170670.14108  15708299.69308  15708300.56608
  -3461971.55106  -2697642.20606  19719220.48906  19719222.12706
 -23967280.51007 -18675810.10207  19357335.38007  19357338.81407
 -19808321.88808 -15435052.70508  16239530.93108  16239531.63008
 -23990071.41108 -18693560.90608  18122306.12908  18122307.14708
 -16390510.34409 -12771824.99808  15232756.60509  15232756.41308
  -9875378.78608  -7695100.72508  17179421.99508  17179422.10608
  -5279209.25908  -4113670.10108  17310353.38108  17310354.87308
 93 04 15 13 54 00.0000000  0  7 15 14 21 01 25 29 22
  -7810031.88608  -6085741.15708  15729040.37308  15729041.29108
 -20215045.26708 -15751980.05508  16162134.10708  16162134.80308
 -23653487.51707 -18431296.76507  19417048.72307  19417052.43107
 -23820507.37208 -18561433.25008  18154573.21008  18154574.29608
 -16274808.41709 -12681667.72908  15254774.03709  15254773.85408
 -10170681.85508  -7925207.02208  17123227.74808  17123227.86208
  -5698779.23008  -4440607.76208  17230511.86308  17230513.38708
 93 04 15 13 56 00.0000000  0  7 15 14 21 01 25 29 22
  -7692006.34708  -5993773.36508  15751500.00308  15751500.98008
 -20617645.76208 -16065694.77108  16085521.81208  16085522.51308
 -23336534.12307 -18184320.78707  19477363.50907  19477367.35707
 -23650452.44608 -18428923.08808  18186933.70908  18186934.88508
 -16151897.68609 -12585893.20908  15278163.20609  15278163.05308
 -10463568.61408  -8153430.47808  17067493.21408  17067493.35908
  -6114204.43508  -4764315.71908  17151459.08208  17151460.60408
 93 04 15 13 58 00.0000000  0  1 14
 -21016327.60908 -16376355.99608  16009655.09608  16009655.82008
 93 04 15 14 08 00.0000000  0  6 29 14 22 25 15 01
        -0.29718        -0.17118  22474940.00818  22474940.21118
        -0.31518        -0.12918  21375957.83518  21375958.60318
        -0.76118        -0.29218  22428480.69518  22428482.09418
        -0.54018        -0.51118  21179271.51318  21179271.45918
         0.44018        -0.34718  21653236.03218  21653237.22518
        -0.67618        -0.58818  24117632.33018  24117633.72818
 93 04 15 14 10 00.0000000  0  6 29 14 22 25 15 01
   -278244.85308   -216814.13308  22421991.93408  22421992.12008
   -371868.13408   -289767.30508  21305193.73708  21305194.51008
   -382012.40408   -297671.64208  22355786.25608  22355787.64208
    169548.80308    132115.76908  21211535.74108  21211535.72008
    175392.21408    136668.38008  21686612.12908  21686613.35508
    175712.60408    136918.63508  24151069.62108  24151071.07008
 93 04 15 14 12 00.0000000  0  6 29 14 22 25 15 01
   -553221.40308   -431081.60108  22369665.63308  22369665.79108
   -737363.71808   -574569.09708  21235642.28908  21235643.08108
   -757237.15608   -590054.47608  22284383.30408  22284384.66608
    346493.32508    269994.53508  21245207.28408  21245207.27308
    359487.10908    280118.75508  21721644.37508  21721645.64808
    353403.59008    275378.91408  24184883.29008  24184884.76708
 93 04 15 14 14 00.0000000  0  6 29 14 22 25 15 01
   -825098.64108   -642934.02508  22317929.22508  22317929.38008
  -1096580.96408   -854478.67208  21167285.59908  21167286.37708
  -1125581.87808   -877076.22808  22214289.59508  22214290.90508
    530497.61508    413374.41808  21280222.20008  21280222.18908
    551995.65208    430125.22108  21758277.69708  21758278.99408
    533050.76408    415363.47508  24219069.16808  24219070.79608
 93 04 15 14 16 00.0000000  0  6 29 14 22 25 15 01
  -1093458.74508   -852045.82108  22266861.90908  22266862.09708
  -1448752.00408  -1128897.70008  21100269.69208  21100270.47008
  -1486353.62008  -1158196.96008  22145636.95908  22145638.21708
    721353.96108    562093.56608  21316541.03808  21316541.05408
    753226.94408    586928.63408  21796570.87308  21796572.21608
    715087.69208    557210.19408  24253709.92008  24253711.49508
 93 04 15 14 18 00.0000000  0  6 29 14 22 25 15 01
  -1357882.01008  -1058089.95108  22216543.87508  22216544.06108
  -1793410.81208  -1397463.04108  21034683.33208  21034684.13008
  -1838904.87308  -1432912.13108  22078548.61908  22078549.88508
    920116.02108    716973.00808  21354364.27508  21354364.33408
    963441.99808    750732.37608  21836573.63108  21836575.02908
    899749.26008    701102.07308  24288849.99308  24288851.72708
 93 04 15 14 20 00.0000000  0  6 29 22 25 15 01 14
  -1618117.59308  -1260870.94908  22167022.70108  22167022.93208
  -2183070.66208  -1701093.18008  22013055.96708  22013057.22908
   1126412.60808    877723.50708  21393621.29508  21393621.37708
   1182420.66008    921364.89408  21878244.05908  21878245.51308
   1087280.33808    847229.91808  24324536.18308  24324537.93508
  -2130449.40308  -1660090.55708  20970547.05908  20970547.88708
 93 04 15 14 22 00.0000000  0  6 29 22 25 15 01 14
  -1874583.17508  -1460714.28808  22118218.97608  22118219.20408
  -2518971.86408  -1962834.30808  21949136.05708  21949137.29908
   1339951.21708   1044117.13408  21434256.40908  21434256.52908
   1409655.44808   1098430.75408  21921485.57808  21921487.09108
   1277483.13208    995439.61008  24360730.80408  24360732.57608
  -2460172.06208  -1917017.33908  20907802.97708  20907803.81008
 93 04 15 14 24 00.0000000  0  6 29 22 25 15 01 14
  -2127715.37508  -1657960.18308  22070049.57108  22070049.79108
  -2846609.76708  -2218136.51108  21886788.60008  21886789.80208
   1560113.04808   1215671.71208  21476151.88308  21476152.00308
   1644759.90608   1281628.81608  21966224.62008  21966226.22408
   1470371.39808   1145741.86908  24397436.38608  24397438.28708
  -2782214.17008  -2167959.27808  20846520.44508  20846521.27808
 93 04 15 14 26 00.0000000  0  7 29 22 25 15 01 18 14
  -2378012.95508  -1852997.27508  22022419.52608  22022419.78708
  -3166155.08108  -2467132.80908  21825981.14308  21825982.33308
   1786273.17708   1391900.28508  21519188.79408  21519188.96108
   1887179.40908   1470526.91408  22012355.66708  22012357.32308
   1665408.73608   1297718.73108  24434550.96008  24434552.97808
        -0.24017        -0.57417  24800414.04217  24800415.83117
  -3096870.36108  -2413145.96308  20786643.39008  20786644.23208
 93 04 15 14 28 00.0000000  0  7 29 22 25 15 01 18 14
  -2625314.88508  -2045700.09108  21975359.57908  21975359.81608
  -3477674.32008  -2709875.02408  21766700.95608  21766702.15008
   2018282.91508   1572686.98608  21563338.92208  21563339.09308
   2136462.84108   1664773.52108  22059792.89708  22059794.60508
   1862098.94508   1450983.53708  24471980.06608  24471982.19308
   -360908.44608   -281228.03307  24731735.74908  24731737.73407
  -3404644.55809  -2652970.05608  20728075.96509  20728076.82608
 93 04 15 14 30 00.0000000  0  7 29 22 25 15 01 18 14
  -2869631.91008  -2236077.00008  21928867.57708  21928867.81008
  -3780990.49008  -2946225.23608  21708981.77108  21708983.00708
   2256019.31608   1757936.01908  21608578.74108  21608578.92208
   2392405.10608   1864208.82708  22108497.31508  22108499.01308
   2060814.92908   1605826.85608  24509794.78808  24509796.92908
   -720081.82008   -561103.67407  24663387.64908  24663389.55807
  -3704819.48709  -2886872.63308  20670954.61509  20670955.47408
 93 04 15 14 32 00.0000000  0  7 29 22 25 15 01 18 14
  -3110995.30908  -2424152.37608  21882937.67708  21882937.91408
  -4075888.63608  -3176015.95308  21652864.48008  21652865.71408
   2499338.94408   1947535.61708  21654880.97908  21654881.20708
   2654841.46308   2068704.45908  22158437.44508  22158439.21208
   2261363.39708   1762098.07808  24547958.14808  24547960.33108
  -1077500.72708   -839612.17907  24595373.28308  24595375.24707
  -3997370.85309  -3114834.75908  20615283.88009  20615284.73408
 93 04 15 14 34 00.0000000  0  7 29 22 25 15 01 18 14
  -3349525.23708  -2610019.85608  21837546.96208  21837547.18208
  -4362108.42908  -3399044.30808  21598398.65108  21598399.85508
   2748190.90308   2141446.11808  21702236.04008  21702236.29408
   2923654.03808   2278168.57208  22209591.00608  22209592.79508
   2463802.54808   1919842.54708  24586481.26508  24586483.54708
  -1432981.08908  -1116610.08808  24527727.63008  24527729.71108
  -4282382.52709  -3336921.80308  20561048.07209  20561048.92708
 93 04 15 14 36 00.0000000  0  7 29 22 25 15 01 18 14
  -3585136.30108  -2793612.90408  21792711.64808  21792711.89808
  -4639419.84208  -3615131.05808  21545628.01608  21545629.18808
   3002324.61108   2339472.26608  21750596.16808  21750596.45908
   3198697.07708   2492487.57808  22261930.13708  22261932.00008
   2668677.57608   2079485.10608  24625467.91508  24625470.25508
  -1786523.87308  -1392098.20908  24460450.71708  24460452.92208
  -4559051.49409  -3552508.03908  20508399.74009  20508400.60208
 93 04 15 14 38 00.0000000  0  7 29 22 25 15 01 18 14
  -3817712.24308  -2974840.92508  21748453.95408  21748454.21708
  -4907604.95808  -3824106.39508  21494594.01808  21494595.16808
   3261676.39808   2541564.44508  21799949.26908  21799949.60908
   3479817.16308   2711541.93008  22315425.70108  22315427.61208
   2875822.59508   2240896.49608  24664886.57808  24664889.02308
  -2137844.61708  -1665854.84108  24393596.69408  24393598.94608
  -4827399.68409  -3761610.55408  20457334.84209  20457335.71208
 93 04 15 14 40 00.0000000  0  7 29 22 25 15 01 14 18
  -4047179.78508  -3153646.82508  21704787.72708  21704787.97608
  -5166573.88508  -4025900.29608  21445313.80808  21445314.98108
   3526235.78208   2747714.48908  21850293.35508  21850293.71408
   3766735.00008   2935114.00908  22370024.56308  22370026.55008
   3084805.33508   2403739.84608  24704654.94708  24704657.43008
  -5087794.60209  -3964515.70708  20407783.31609  20407784.19808
  -2487489.63308  -1938305.69508  24327061.65408  24327063.87808
 93 04 15 14 42 00.0000000  0  7 29 22 25 15 01 14 18
  -4273640.90808  -3330110.06408  21661693.66008  21661693.92808
  -5416401.67408  -4220571.23608  21397773.15408  21397774.27208
   3795522.83308   2957548.42508  21901537.11608  21901537.51608
   4059012.16008   3162862.16108  22425643.26908  22425645.35908
   3295835.44408   2568178.50908  24744812.98508  24744815.55008
  -5340096.73609  -4161114.79708  20359771.85909  20359772.74008
  -2835459.15708  -2209450.93608  24260845.49008  24260847.72008
 93 04 15 14 44 00.0000000  0  7 29 22 25 15 01 14 18
  -4497242.01508  -3504344.71808  21619143.80808  21619144.09308
  -5656734.10008  -4407843.20808  21352039.39908  21352040.50908
   4069383.84508   3170946.48508  21953651.21508  21953651.60008
   4356640.61908   3394780.14608  22482280.29408  22482282.49208
   3509089.06208   2734349.75508  24785394.05008  24785396.67808
  -5583815.28009  -4351025.39608  20313393.82809  20313394.71808
  -3181172.92608  -2478838.41308  24195058.58408  24195060.75808
 93 04 15 14 46 00.0000000  0  7 29 22 25 15 01 14 18
  -4717704.75008  -3676133.88008  21577191.18308  21577191.44808
  -5887179.08108  -4587410.68708  21308187.13708  21308188.25008
   4348119.14508   3388142.69108  22006692.86308  22006693.31608
   4659656.17608   3630895.86208  22539942.45108  22539944.74408
   3724785.86608   2902424.77308  24826440.17208  24826442.90108
  -5818348.55309  -4533778.65008  20268763.67309  20268764.57108
  -3524956.51008  -2746721.84608  24129638.90808  24129641.09808
 93 04 15 14 48 00.0000000  0  7 29 22 25 15 01 14 18
  -4934914.80008  -3845388.47008  21535857.49708  21535857.75808
  -6107847.56608  -4759360.12308  21266195.27508  21266196.41308
   4631456.06908   3608924.58508  22060610.24308  22060610.72008
   4967594.94108   3870847.84208  22598541.48708  22598543.84308
   3942664.63308   3072199.99707  24867901.44608  24867904.35507
  -6043997.22509  -4709608.83208  20225824.19009  20225825.10508
  -3866853.60808  -3013135.26408  24064578.15208  24064580.45108
 93 04 15 14 50 00.0000000  0  7 29 22 25 15 01 14 18
  -5149236.01208  -4012392.01908  21495073.52708  21495073.80208
  -6318725.60108  -4923680.64108  21226066.50208  21226067.64508
   4919295.12408   3833214.63208  22115384.28008  22115384.75008
   5280127.54808   4114379.42808  22658014.72508  22658017.17408
   4162633.28308   3243603.69407  24909760.41508  24909763.38507
  -6260732.03509  -4878493.13808  20184580.90409  20184581.84508
  -4207190.46408  -3278332.88208  23999814.10208  23999816.57808
 93 04 15 14 52 00.0000000  0  7 29 22 25 15 01 14 18
  -5360892.87408  -4177319.45708  21454796.63108  21454796.88108
  -6519843.71308  -5080396.01608  21187795.00508  21187796.12208
   5210952.76608   4060480.20308  22170884.97608  22170885.50608
   5596882.38208   4361201.04308  22718291.41208  22718293.97308
   4384675.08908   3416622.83507  24952013.87008  24952017.00107
  -6468846.06609  -5040659.95008  20144978.21009  20144979.14908
  -4545843.55308  -3542218.42108  23935370.51708  23935373.06708
 93 04 15 14 54 00.0000000  0  7 29 14 22 25 15 01 18
  -5570031.71408  -4340284.80608  21414998.82608  21414999.08108
  -6667971.40409  -5195822.58408  20107085.92709  20107086.87208
  -6711090.63908  -5229419.54608  21151401.90408  21151403.01408
   5506301.18608   4290621.70308  22227088.01508  22227088.54908
   5917633.58508   4611136.68608  22779328.65408  22779331.28808
   4608647.45807   3591146.34507  24994634.70207  24994637.91707
  -4882956.75608  -3804904.01608  23871219.97808  23871222.45808
 93 04 15 14 56 00.0000000  0  7 29 22 25 15 01 14 18
  -5776328.45108  -4501035.52308  21375741.87808  21375742.14208
  -6892279.10808  -5370605.30008  21116922.84908  21116923.94208
   5805245.17408   4523564.94008  22283975.27508  22283975.83208
   6242242.13708   4864078.04108  22841099.91808  22841102.61208
   4834488.13507   3767125.67107  25037611.13707  25037614.44107
  -6857847.83809  -5343778.28208  20070953.72309  20070954.68908
  -5218357.12908  -4066254.92008  23807395.43308  23807397.74208
 93 04 15 14 58 00.0000000  0  7 29 22 25 15 01 14 18
  -5979655.99508  -4659472.57208  21337049.93608  21337050.22808
  -7063261.03408  -5503837.91908  21084386.01508  21084387.10008
   6107890.93908   4759392.68308  22341566.94808  22341567.50308
   6570532.77408   5119888.53208  22903571.82708  22903574.62808
   5062746.74707   3944989.09407  25081047.61207  25081051.07507
  -7038419.67909  -5484483.66008  20036592.06709  20036593.05208
  -5551980.61708  -4326221.20708  23743909.00908  23743911.23808
 93 04 15 15 00 00.0000000  0  7 29 22 25 15 01 14 18
  -6179819.26108  -4815443.94308  21298960.11808  21298960.41008
  -7223896.18008  -5629008.12108  21053818.14308  21053819.21908
   6414134.88708   4998024.20508  22399843.36008  22399843.97208
   6902329.44408   5378430.98308  22966710.96208  22966713.83108
   5293167.07907   4124536.95707  25124895.49407  25124898.99707
  -7209517.18409  -5617806.43908  20004033.32909  20004034.30108
  -5883993.30108  -4584932.29408  23680729.08208  23680731.21408
 93 04 15 15 02 00.0000000  0  7 29 22 14 25 15 01 18
  -6377052.52408  -4969132.19808  21261427.92008  21261428.18908
  -7374161.46708  -5746097.92408  21025223.60408  21025224.67408
  -7371237.66109  -5743822.43608  19973259.04209  19973260.02308
   6723464.93708   5239060.47508  22458707.01608  22458707.64508
   7237347.75708   5639483.80108  23030463.20108  23030466.08708
   5525614.21307   4305664.16106  25169129.10407  25169132.68906
  -6214452.83408  -4842433.11308  23617844.61308  23617846.76208
 93 04 15 15 04 00.0000000  0  8 29 22 14 25 15 01 18 19
  -6571619.15308  -5120742.57008  21224403.11108  21224403.38308
  -7513996.74608  -5855060.44908  20998613.82408  20998614.88408
  -7523324.23909  -5862331.49808  19944317.89609  19944318.89208
   7036162.63108   5482720.88108  22518211.53508  22518212.20508
   7575347.12908   5902859.52408  23094782.66808  23094785.64808
   5760149.00707   4488418.09606  25213759.84907  25213763.50306
  -6543382.62908  -5098741.92108  23555251.24508  23555253.50008
         0.34317         0.38917  24598809.04717  24598812.61317
 93 04 15 15 06 00.0000000  0  7 29 25 15 18 19 14 22
  -6763474.03708  -5270239.89108  21187894.38008  21187894.66008
   7351936.55608   5728778.34108  22578301.39908  22578302.15708
   7915919.99708   6168240.56208  23159591.80508  23159594.91908
  -6870906.60108  -5353955.26808  23492925.37508  23492927.65508
   -405392.66907   -315890.59207  24521665.63707  24521669.47107
  -7665861.98309  -5973399.91408  19917193.91509  19917194.92108
  -7643516.15708  -5955984.63608  20973967.07308  20973968.12308
 93 04 15 15 08 00.0000000  0  7 29 25 15 18 14 19 22
  -6952821.12308  -5417783.08108  21151862.83108  21151863.07108
   7669982.70208   5976606.35808  22638823.74008  22638824.46708
   8258600.24108   6435263.69908  23224801.94808  23224805.23608
  -7197053.61308  -5608095.65908  23430861.51908  23430863.84808
  -7798822.31809  -6077005.41608  19891892.45109  19891893.48308
   -807044.80607   -628866.69007  24445234.22807  24445238.01307
  -7762897.51308  -6049009.03008  20951249.53708  20951250.58208
 93 04 15 15 10 00.0000000  0  7 29 25 15 18 14 19 22
  -7139617.88008  -5563338.99608  21116316.57408  21116316.83908
   7990423.08908   6226300.01108  22699801.61208  22699802.34208
   8603339.49208   6703891.25508  23290403.95208  23290407.35408
  -7521727.18008  -5861087.91408  23369078.06308  23369080.39608
  -7922402.51409  -6173301.73308  19868375.98309  19868377.03608
  -1204670.35208   -938705.17407  24369568.94608  24369572.94307
  -7871910.18808  -6133953.93708  20930505.09408  20930506.13108
 93 04 15 15 12 00.0000000  0  7 29 25 15 18 14 19 22
  -7323027.82808  -5706255.83208  21081414.84408  21081415.09108
   8313550.79708   6478087.68208  22761290.89408  22761291.67908
   8950390.83708   6974320.43008  23356445.93608  23356449.45508
  -7844925.56408  -6112930.67608  23307575.45808  23307577.61208
  -8035931.13109  -6261765.64708  19846772.20509  19846773.25608
  -1598097.68808  -1245272.29407  24294702.55408  24294706.53007
  -7970031.54208  -6210412.10208  20911833.21108  20911834.22008
 93 04 15 15 14 00.0000000  0  7 29 25 15 14 18 22 19
  -7503328.19308  -5846749.61208  21047104.83408  21047105.07408
   8639410.68908   6732004.32308  22823300.11308  22823300.97308
   9299566.01308   7246404.53608  23422892.06508  23422895.73008
  -8138962.56009  -6342049.91608  19827166.06609  19827167.14608
  -8166471.07408  -6363485.48508  23246387.27808  23246389.36908
  -8057190.14008  -6278327.85908  20895247.46908  20895248.47008
  -1987489.45808  -1548694.75808  24220604.05708  24220608.15708
 93 04 15 15 16 00.0000000  0  7 29 25 15 14 18 22 19
  -7681148.65608  -5985310.99708  21013266.71508  21013266.93808
   8967588.83408   6987727.39808  22885750.40308  22885751.31908
   9650180.55908   7519610.24108  23489612.14608  23489615.90208
  -8232234.17109  -6414729.12908  19809417.08609  19809418.15508
  -8486496.61208  -6612855.89408  23185488.35808  23185490.33708
  -8133814.28708  -6338034.95208  20880666.36508  20880667.32908
  -2372931.08908  -1849039.14508  24147257.20308  24147261.32708
 93 04 15 15 18 00.0000000  0  7 25 15 14 18 29 22 19
   9297786.49308   7245024.12208  22948585.01708  22948586.00608
  10002070.36208   7793809.64008  23556574.85408  23556578.76408
  -8315944.84509  -6479958.26608  19793487.52209  19793488.61308
  -8805040.86408  -6861072.05308  23124871.34708  23124873.33208
  -7855950.22808  -6121520.00508  20980003.10208  20980003.33508
  -8199824.62108  -6389471.53308  20868104.99308  20868105.94708
  -2754123.21408  -2146072.18608  24074718.90908  24074723.09608
 93 04 15 15 20 00.0000000  0  7 25 15 14 18 29 22 19
   9630136.17808   7503997.73908  23011829.16808  23011830.18408
  10354951.47508   8068781.47308  23623726.23208  23623730.30808
  -8389470.15109  -6537250.77208  19779496.18309  19779497.29008
  -9122494.51108  -7108438.41408  23064461.81308  23064463.79408
  -8028005.90308  -6255589.36308  20947261.99108  20947262.20808
  -8255269.81208  -6432675.53408  20857554.09308  20857555.05708
  -3131491.92608  -2440125.89508  24002908.07408  24002912.39808
 93 04 15 15 22 00.0000000  0  7 25 15 14 18 29 22 19
   9964020.87308   7764167.47408  23075365.43108  23075366.46508
  10708770.33408   8344484.00108  23691056.10008  23691060.29608
  -8452565.19109  -6586415.81309  19767489.66209  19767490.79709
  -9438365.88308  -7354571.84508  23004353.41808  23004355.38608
  -8197312.44208  -6387516.54308  20915044.02908  20915044.29108
  -8299974.67008  -6467510.44208  20849047.01808  20849047.96308
  -3504869.72408  -2731069.73808  23931856.70708  23931861.01408
 93 04 15 15 24 00.0000000  0  7 25 15 14 18 19 29 22
  10299290.96608   8025416.73208  23139165.39208  23139166.47808
  11063027.87008   8620528.34408  23758469.43508  23758473.75908
  -8505847.50609  -6627934.57009  19757350.42709  19757351.57709
  -9753022.05308  -7599758.37408  22944476.20308  22944478.23308
  -3874037.01708  -3018732.62108  23861606.47008  23861610.87008
  -8363745.05008  -6517204.28908  20883372.97208  20883373.20708
  -8334219.86208  -6494194.96108  20842530.35408  20842531.27208
 93 04 15 15 26 00.0000000  0  7 25 15 14 18 29 22 19
  10636160.53108   8287912.33308  23203269.67708  23203270.79908
  11417719.40108   8896910.84308  23825965.42008  23825969.83608
  -8548974.21609  -6661539.85509  19749143.71409  19749144.87409
 -10066296.36008  -7843868.11908  22884862.06508  22884864.01708
  -8527195.79608  -6644568.50608  20852269.35208  20852269.59008
  -8357802.42608  -6512570.94508  20838042.72408  20838043.62808
  -4239224.59508  -3303294.36308  23792113.50808  23792117.91908
 93 04 15 15 28 00.0000000  0  7 25 15 14 18 19 29 22
  10974829.30708   8551809.90808  23267716.37108  23267717.50308
  11772886.67208   9173664.04708  23893551.90208  23893556.41008
  -8581729.66309  -6687063.62809  19742910.65409  19742911.83209
 -10378079.73108  -8086816.09008  22825531.63808  22825533.53708
  -4600179.35308  -3584557.72908  23723426.03908  23723430.38508
  -8687569.79008  -6769535.25508  20821751.19108  20821751.43208
  -8370478.49508  -6522448.36608  20835630.53008  20835631.40808
 93 04 15 15 30 00.0000000  0  7 25 15 18 14 29 22 19
  11315011.13408   8816886.47408  23332450.90808  23332452.04808
  12128390.35708   9450679.38808  23961202.41108  23961207.07108
 -10687985.53108  -8328301.01408  22766558.41908  22766560.33708
  -8603826.12009  -6704281.70108  19738705.81709  19738707.01008
  -8844599.79308  -6891896.30508  20791869.41408  20791869.64108
  -8372199.19508  -6523789.14408  20835303.07808  20835303.97008
  -4956574.62508  -3862268.21308  23655606.13708  23655610.43208
 93 04 15 15 32 00.0000000  0  7 18 25 15 14 29 22 19
 -10996308.23708  -8568552.35308  22707886.51208  22707888.33208
  11656522.07708   9082998.72708  23397438.41008  23397439.56708
  12483777.85208   9727604.18908  24028830.84108  24028835.60608
  -8615783.22809  -6713598.99708  19736430.52209  19736431.72208
  -8998634.20208  -7011923.12008  20762557.64608  20762557.87208
  -8363234.79108  -6516803.87308  20837008.93508  20837009.80008
  -5308752.97208  -4136692.76108  23588588.80408  23588592.99108
 93 04 15 15 34 00.0000000  0  7 18 25 15 14 29 22 19
 -11303204.98908  -8807692.56608  22649485.88608  22649487.73108
  11999438.90908   9350206.46708  23462693.54508  23462694.69308
  12838961.89908  10004370.45008  24096420.55608  24096425.43408
  -8617292.13609  -6714774.84108  19736143.46209  19736144.68508
  -9149334.64908  -7129352.04708  20733880.32608  20733880.54508
  -8343498.33008  -6501424.80908  20840764.65708  20840765.52308
  -5656564.93908  -4407714.91908  23522402.34808  23522406.43608
 93 04 15 15 36 00.0000000  0  7 18 25 15 14 19 29 22
 -11608661.03008  -9045710.14208  22591359.42708  22591361.20108
  12343343.65308   9618184.00508  23528136.60508  23528137.81508
  13193819.56408  10280882.39808  24163948.11808  24163953.16908
  -8608173.87909  -6707669.77408  19737878.61909  19737879.85408
  -5999705.28808  -4675096.83408  23457104.88208  23457108.89508
  -9296947.67008  -7244375.18608  20705790.51408  20705790.73508
  -8312953.41308  -6477623.57108  20846577.16808  20846578.02608
 93 04 15 15 38 00.0000000  0  7 18 25 15 14 19 29 22
 -11912611.58608  -9282554.61808  22533519.49708  22533521.28208
  12688003.33508   9886749.80308  23593723.27408  23593724.57108
  13547830.16408  10556734.29708  24231314.49408  24231319.65008
  -8588558.45909  -6692385.10708  19741611.41409  19741612.66808
  -6338514.01908  -4939103.43608  23392631.60508  23392635.54308
  -9441634.62908  -7357118.27908  20678257.53108  20678257.74608
  -8271964.25308  -6445683.96408  20854377.15208  20854378.00408
 93 04 15 15 40 00.0000000  0  7 18 25 15 14 29 22 19
 -12215765.87308  -9518778.62508  22475831.04708  22475832.80608
  13032809.11508  10155429.43508  23659337.76308  23659339.09108
  13900232.71808  10831333.15708  24298374.88508  24298380.16008
  -8559487.92509  -6669732.82908  19747143.38809  19747144.66108
  -9583636.29408  -7467768.92708  20651235.50408  20651235.71408
  -8221148.93208  -6406087.60908  20864046.98008  20864047.82808
  -6673796.74308  -5200362.46608  23328829.29308  23328833.22408
 93 04 15 15 42 00.0000000  0  7 18 25 15 14 19 29 22
 -12517553.22208  -9753937.49408  22418402.76508  22418404.46108
  13378204.58408  10424568.57508  23725064.56208  23725065.87608
  14251116.76208  11104748.74407  24365146.31708  24365151.82207
  -8520692.08809  -6639502.39608  19754526.08809  19754527.38908
  -7005311.70808  -5458685.55608  23265743.78008  23265747.69808
  -9722968.43208  -7576339.41708  20624721.46908  20624721.69008
  -8160282.57608  -6358659.27908  20875629.47908  20875630.30708
 93 04 15 15 44 00.0000000  0  7 18 25 15 19 14 29 22
 -12817871.41308  -9987951.56008  22361254.06608  22361255.72108
  13724137.89008  10694126.80108  23790893.62908  23790895.00308
  14600750.24107  11377189.85207  24431679.78307  24431685.37107
  -7332420.84408  -5713575.55808  23203496.76608  23203500.70308
  -8471558.60609  -6601216.64808  19763875.91609  19763877.22908
  -9858845.75408  -7682217.83708  20598864.84308  20598865.07208
  -8088970.83008  -6303091.67208  20889199.66008  20889200.48808
 93 04 15 15 46 00.0000000  0  7 18 19 25 15 14 29 22
 -13116929.24508 -10220983.52808  22304345.23608  22304346.81108
  -7655402.25008  -5965249.13108  23142035.25608  23142039.26508
  14070206.13508  10963790.16908  23856748.34908  23856749.81808
  14948774.85107  11648377.25907  24497907.10507  24497912.82607
  -8412184.70409  -6554951.35708  19775174.46209  19775175.79408
  -9991407.68608  -7785512.83408  20573639.18608  20573639.40608
  -8007457.53508  -6239574.80508  20904711.11108  20904711.94508
 93 04 15 15 48 00.0000000  0  7 18 19 25 15 14 29 22
 -13414847.12508 -10453127.22108  22247653.25108  22247654.86708
  -7974612.91008  -6213984.44908  23081291.28508  23081295.18708
  14416341.10608  11233505.51108  23922615.84408  23922617.36108
  15294559.91107  11917819.52607  24563708.29407  24563714.10907
  -8343293.73409  -6501270.17908  19788284.08209  19788285.43808
 -10121301.92008  -7886729.09808  20548921.11808  20548921.31708
  -7916264.82008  -6168515.53008  20922064.49908  20922065.32508
 93 04 15 15 50 00.0000000  0  7 18 19 25 15 14 29 22
 -13711287.87008 -10684119.89608  22191242.31308  22191243.94208
  -8289354.23908  -6459237.14708  23021397.75608  23021401.56908
  14762870.67808  11503528.34108  23988558.35408  23988559.93408
  15638489.16407  12185815.67507  24629156.37107  24629162.47207
  -8264199.04509  -6439638.07108  19803335.40509  19803336.78108
 -10247802.18608  -7985300.70208  20524848.86708  20524849.05708
  -7814911.11808  -6089538.60808  20941351.46908  20941352.29408
 93 04 15 15 52 00.0000000  0  6 18 19 25 29 14 22
 -14006330.76408 -10914023.34308  22135097.42008  22135099.06708
  -8599959.20308  -6701266.71208  22962291.41108  22962295.05508
  15109379.59208  11773535.08508  24054496.97308  24054498.61708
 -10370786.54408  -8081132.65308  20501445.73408  20501445.94008
  -8174932.27909  -6370079.67708  19820322.38309  19820323.79008
  -7703698.02408  -6002879.04608  20962514.60508  20962515.45008
 93 04 15 15 54 00.0000000  0  7 22 18 19 25 29 14 28
  -7582647.97808  -5908554.33208  20985549.67908  20985550.51108
 -14299719.75108 -11142638.03408  22079267.28108  22079268.88008
  -8906384.58008  -6940039.46708  22903980.45908  22903984.00208
  15455848.97708  12043511.02308  24120428.10408  24120429.77508
 -10490555.84708  -8174459.38508  20478654.41808  20478654.63108
  -8075512.09509  -6292609.53008  19839241.51809  19839242.95408
        -0.02917        -0.41217  25015194.01117  25015199.73417
 93 04 15 15 56 00.0000000  0  7 22 18 19 29 14 25 28
  -7452064.25408  -5806800.78708  21010398.95208  21010399.76208
 -14591560.54708 -11370046.34108  22023731.77108  22023733.30008
  -9208805.24908  -7175691.68908  22846431.56908  22846434.98308
 -10607383.02208  -8265493.55908  20456422.94708  20456423.15908
  -7966581.58509  -6207728.74108  19859970.42109  19859971.88708
  15801936.61908  12313189.49308  24186286.48308  24186288.25908
   -273974.65007   -213486.81307  24963058.22907  24963063.82807
 93 04 15 15 58 00.0000000  0  7 22 18 19 25 28 29 14
  -7312228.72008  -5697838.04108  21037008.79608  21037009.59608
 -14882539.65008 -11596783.20008  21968360.24608  21968361.73608
  -9507388.75908  -7408353.91708  22789612.87408  22789616.26408
  16147589.88708  12582529.47608  24252062.26308  24252064.08108
   -548582.89407   -427466.85707  24910801.69607  24910807.20807
 -10720857.88508  -8353915.53208  20434829.40708  20434829.61108
  -7848296.04609  -6115558.30708  19882479.46809  19882480.98208
 93 04 15 16 00 00.0000000  0  7 22 18 19 25 28 29 14
  -7162839.21208  -5581430.65408  21065436.67408  21065437.51708
 -15171613.82708 -11822035.71208  21913351.18208  21913352.65108
  -9801987.62108  -7637911.20808  22733552.31608  22733555.64108
  16493010.69208  12851688.29008  24317793.94808  24317795.82608
   -823339.65308   -641562.60807  24858516.92408  24858522.38007
 -10830764.85808  -8439557.34108  20413914.82508  20413915.02908
  -7720005.71309  -6015591.92108  19906892.39109  19906893.93508
 93 04 15 16 02 00.0000000  0  7 22 18 19 25 28 29 14
  -7003847.43208  -5457540.98708  21095691.85408  21095692.69208
 -15458987.34308 -12045963.02608  21858665.76008  21858667.21708
 -10091927.51708  -7863838.13708  22678378.37408  22678381.69408
  16838518.85608  13120915.19307  24383542.08208  24383543.99907
  -1098418.62608   -855909.42007  24806170.71408  24806176.14607
 -10936911.82108  -8522269.27408  20393715.73308  20393715.95008
  -7581989.78709  -5908047.16808  19933156.04409  19933157.61908
 93 04 15 16 04 00.0000000  0  7 22 18 19 25 28 29 14
  -6835589.71808  -5326431.11908  21127710.25708  21127711.12408
 -15744772.52408 -12268652.69108  21804282.61008  21804284.04208
 -10377537.73108  -8086391.30008  22624028.34208  22624031.66508
  17183574.21508  13389789.25107  24449204.15708  24449206.20607
  -1373948.73408  -1070607.78207  24753738.69808  24753744.14907
 -11039479.88708  -8602192.45408  20374197.62608  20374197.82108
  -7434626.60309  -5793218.84108  19961198.40909  19961200.01808
 93 04 15 16 06 00.0000000  0  6 22 18 19 28 29 14
  -6658682.13808  -5188581.09308  21161374.69408  21161375.57508
 -16028997.84508 -12490126.89408  21750196.27408  21750197.69708
 -10659665.96108  -8306231.25508  22570341.00008  22570344.24308
  -1649833.73508  -1285582.70808  24701239.08908  24701244.43708
 -11139064.67408  -8679791.00308  20355247.37308  20355247.59308
  -7277847.33509  -5671053.31108  19991032.63109  19991034.26408
 93 04 15 16 08 00.0000000  0  7 22 18 19 25 28 29 14
  -6472925.66208  -5043835.81908  21196723.01608  21196723.90808
 -16311633.72708 -12710362.57908  21696412.40008  21696413.80708
 -10938032.94808  -8523140.37408  22517369.35608  22517372.58408
        -0.54417        -0.75117  24579948.70817  24579950.83317
  -1925272.23808  -1500209.78008  24648824.64508  24648829.98908
 -11235170.60708  -8754678.75108  20336959.01408  20336959.23408
  -7111758.19909  -5541633.33508  20022638.40509  20022640.07408
 93 04 15 16 10 00.0000000  0  6 22 18 25 28 29 14
  -6278178.61208  -4892084.89108  21233782.16608  21233783.07508
 -16592380.63108 -12929126.32908  21642987.98608  21642989.40008
    342750.78207    267077.97207  24645172.33607  24645174.47207
  -2200532.38408  -1714697.92108  24596444.36208  24596449.41508
 -11326986.61708  -8826223.70608  20319487.04608  20319487.27008
  -6936300.37509  -5404913.08508  20056027.01209  20056028.68908
 93 04 15 16 12 00.0000000  0  7 22 18 19 25 28 29 14
  -6074670.36808  -4733507.05508  21272508.51008  21272509.41908
 -16871355.46408 -13146509.23508  21589900.79108  21589902.18808
         0.20218        -0.36018  22413891.95018  22413894.95118
    684676.37807    533513.27906  24710238.86707  24710240.96206
  -2475556.23708  -1929001.93108  24544108.87308  24544113.81608
 -11414994.79608  -8894801.52108  20302739.66308  20302739.87708
  -6751631.80209  -5261015.64208  20091168.46809  20091170.18808
 93 04 15 16 14 00.0000000  0  7 22 18 19 25 28 29 14
  -5862763.04508  -4568384.48208  21312833.14408  21312834.06008
 -17148554.68008 -13362508.54508  21537151.50208  21537152.87408
   -265993.82608   -207268.22708  22363274.81608  22363277.83708
   1025808.65607    799330.44406  24775154.75007  24775156.94406
  -2749812.26208  -2142707.58308  24491919.39508  24491924.25408
 -11499250.31108  -8960455.18808  20286706.37408  20286706.58208
  -6558045.64108  -5110169.43408  20128006.79008  20128008.53708
 93 04 15 16 16 00.0000000  0  6 22 18 19 28 29 14
  -5642380.35308  -4396657.73308  21354770.59808  21354771.51808
 -17423465.11208 -13576724.37308  21484837.68108  21484839.04508
   -527681.60008   -411180.58008  22313477.14308  22313480.10208
  -3023179.16308  -2355720.38408  24439899.17908  24439903.96708
 -11579473.85608  -9022967.04708  20271440.36308  20271440.56708
  -6355465.35108  -4952314.81208  20166556.67208  20166558.45408
 93 04 15 16 18 00.0000000  0  6 22 18 19 28 29 14
  -5413610.92408  -4218395.87008  21398303.99108  21398304.90808
 -17696215.87508 -13789257.33608  21432934.88608  21432936.21108
   -785428.03708   -612021.74508  22264429.47408  22264432.37308
  -3295579.56408  -2567980.05308  24388062.73208  24388067.46708
 -11655602.40408  -9082287.98308  20256953.58308  20256953.77708
  -6143688.42608  -4787293.98308  20206856.57008  20206858.38608
 93 04 15 16 20 00.0000000  0  6 22 18 19 28 29 14
  -5176936.67008  -4033974.39908  21443341.63308  21443342.57608
 -17966976.77608 -14000239.76508  21381410.79208  21381412.09708
  -1039415.44808   -809933.79908  22216097.06208  22216099.90608
  -3566928.83108  -2779420.66808  24336426.42808  24336431.23308
 -11727555.46408  -9138355.29208  20243261.35508  20243261.58408
  -5923304.28408  -4615566.24408  20248794.41708  20248796.25608
 93 04 15 16 22 00.0000000  0  6 22 18 19 28 29 14
  -4932953.29908  -3843857.51608  21489770.17208  21489771.07608
 -18236424.33508 -14210198.82008  21330136.50708  21330137.79408
  -1289799.98208  -1005038.42108  22168450.33008  22168453.16408
  -3837900.58208  -2990567.07608  24284861.87608  24284866.59708
 -11796143.30808  -9191800.35608  20230209.53708  20230209.73308
  -5694865.60108  -4437562.24508  20292264.98108  20292266.87508
 93 04 15 16 24 00.0000000  0  6 22 18 19 28 29 14
  -4680975.08108  -3647510.88708  21537720.04008  21537720.99108
 -18503267.87408 -14418128.77008  21279357.82008  21279359.04308
  -1536071.01008  -1196937.72008  22121586.40908  22121589.15208
  -4107100.38208  -3200332.69808  24233634.54408  24233639.09808
 -11860321.65008  -9241809.45408  20217996.80008  20217997.01208
  -5457950.96508  -4252953.60608  20337348.48608  20337350.40508
 93 04 15 16 26 00.0000000  0  7 22 18 19 31 28 29 14
  -4421117.03708  -3445024.14508  21587169.42608  21587170.38808
 -18767525.56608 -14624043.77808  21229071.20508  21229072.43508
  -1778147.89908  -1385568.87508  22075520.59408  22075523.25908
        -0.11017        -0.66017  24696066.71317  24696073.63317
  -4374471.17408  -3408673.11508  24182755.26008  24182759.63508
 -11919685.22608  -9288066.79708  20206700.29908  20206700.51208
  -5212573.85508  -4061750.83708  20384042.32208  20384044.28408
 93 04 15 16 28 00.0000000  0  7 22 18 19 31 28 29 14
  -4153944.93808  -3236838.14308  21638010.59908  21638011.60608
 -19029673.85108 -14828315.08008  21179185.96708  21179187.19208
  -2016467.91908  -1571272.57908  22030169.59908  22030172.25208
   -310814.20607   -242193.04607  24636920.33807  24636927.08507
  -4640252.56408  -3615775.06208  24132178.49708  24132182.68108
 -11974727.92408  -9330957.21908  20196226.04508  20196226.24908
  -4959098.25508  -3864237.56608  20432277.25208  20432279.28008
 93 04 15 16 30 00.0000000  0  7 22 18 19 31 28 29 14
  -3879211.06108  -3022759.85208  21690290.78608  21690291.76008
 -19289073.15608 -15030444.32808  21129823.83508  21129825.06908
  -2250696.09808  -1753787.84508  21985597.33908  21985599.91208
   -623861.84707   -486126.00307  24577349.29707  24577355.82507
  -4903530.85308  -3820926.55708  24082078.03008  24082081.99608
 -12025274.90708  -9370344.48508  20186607.28008  20186607.49508
  -4697271.73508  -3660217.09508  20482101.29408  20482103.37908
 93 04 15 16 32 00.0000000  0  7 22 18 19 31 28 29 14
  -3597215.68308  -2803023.25308  21743952.76208  21743953.77908
 -19545715.11408 -15230425.00308  21080986.48708  21080987.67808
  -2481001.40008  -1933246.34108  21941771.55108  21941774.07308
   -938702.45807   -731456.20107  24517437.12807  24517443.58407
  -5164566.82208  -4024330.79008  24032404.20908  24032408.08508
 -12071169.06108  -9406106.18308  20177873.86708  20177874.08508
  -4427206.26408  -3449776.67208  20533493.28508  20533495.41308
 93 04 15 16 34 00.0000000  0  7 18 22 19 31 28 29 14
 -19799983.97508 -15428556.51608  21032600.66808  21032601.84808
  -3308510.27408  -2578058.06608  21798891.61508  21798892.63708
  -2707530.50408  -2109762.34308  21898664.36108  21898666.85208
  -1256138.52807   -978808.88507  24457030.90907  24457037.42407
  -5423605.19208  -4226178.44208  23983110.38208  23983114.28608
 -12112736.74908  -9438496.62108  20169963.89308  20169964.13308
  -4149644.86908  -3233495.27108  20586311.52608  20586313.71608
 93 04 15 16 36 00.0000000  0  7 22 19 31 28 29 14 18
  -3012916.78708  -2347725.55308  21855141.24708  21855142.29808
  -2930299.31508  -2283348.24008  21856272.69808  21856275.14308
  -1575652.34408  -1227780.58407  24396229.37908  24396235.99607
  -5680104.81308  -4426047.86408  23934299.80708  23934303.72708
 -12149451.09608  -9467105.22708  20162977.44308  20162977.67108
  -3864433.26808  -3011252.68408  20640585.67808  20640587.89808
 -20051256.55108 -15624353.25708  20984785.01508  20984786.13708
 93 04 15 16 38 00.0000000  0  8 22 19 31 27 29 14 28 18
  -2710829.94508  -2112333.29508  21912626.53208  21912627.57608
  -3149136.92008  -2453870.86808  21814629.19208  21814631.56108
  -1896844.72208  -1478060.26407  24335108.31308  24335115.03007
        -0.24516        -0.71416  24944334.43116  24944339.59916
 -12181139.30208  -9491797.35608  20156947.36208  20156947.57908
  -3571945.41108  -2783340.29708  20696244.47208  20696246.71308
  -5934158.98108  -4624011.78608  23885954.66108  23885958.50508
 -20299953.41208 -15818142.93708  20937459.55408  20937460.70808
 93 04 15 16 40 00.0000000  0  8 22 19 31 27 29 14 28 18
  -2402076.83708  -1871746.55408  21971380.37608  21971381.43108
  -3364076.32808  -2621355.94908  21773727.46608  21773729.83508
  -2219071.66108  -1729146.06408  24273790.39708  24273797.29008
   -319955.30207   -249316.31306  24883449.10207  24883454.29106
 -12207897.56808  -9512647.96808  20151855.51608  20151855.76408
  -3271642.01408  -2549337.89308  20753390.51108  20753392.79608
  -6184978.43308  -4819455.21508  23838225.01708  23838228.74808
 -20545339.17208 -16009352.57408  20890764.14208  20890765.25808
 93 04 15 16 42 00.0000000  0  8 22 19 31 27 28 29 14 18
  -2087178.21708  -1626371.10908  22031303.66508  22031304.75108
  -3575513.87908  -2786112.32208  21733492.08908  21733494.43208
  -2543043.41908  -1981591.34408  24212140.33808  24212147.21008
   -638149.81207   -497259.99707  24822898.71907  24822903.83307
  -6432790.64308  -5012555.38908  23791067.95008  23791071.57008
 -12229725.99508  -9529657.16008  20147701.65408  20147701.91008
  -2964574.15508  -2310064.48708  20811823.76708  20811826.11508
 -20787874.87308 -16198341.40308  20844611.13508  20844612.24008
 93 04 15 16 44 00.0000000  0  8 22 19 31 27 28 29 14 18
  -1765855.30208  -1375989.72208  22092449.47308  22092450.55508
  -3782678.86208  -2947539.42808  21694069.78708  21694072.13208
  -2867951.07208  -2234765.83508  24150312.34708  24150318.94408
   -954260.28907   -743579.74407  24762744.82807  24762749.96707
  -6676992.96608  -5202842.64508  23744597.50408  23744600.99508
 -12246175.50708  -9542475.00008  20144571.45108  20144571.72408
  -2650010.04208  -2064949.86008  20871683.52008  20871685.93208
 -21027050.31408 -16384711.83908  20799097.53408  20799098.63508
 93 04 15 16 46 00.0000000  0  8 22 19 31 27 28 29 14 18
  -1438684.00908  -1121051.15908  22154708.17008  22154709.30708
  -3986491.42708  -3106354.26908  21655285.42908  21655287.73408
  -3194108.16408  -2488913.83608  24088246.52208  24088252.80008
  -1268983.08907   -988818.21907  24702855.15207  24702860.36507
  -6917948.79208  -5390600.13208  23698745.04208  23698748.44108
 -12258014.71308  -9551700.39108  20142318.57208  20142318.84508
  -2328859.82508  -1814703.21308  20932796.59608  20932799.08508
 -21263090.16608 -16568638.93208  20754180.54808  20754181.62408
 93 04 15 16 48 00.0000000  0  8 14 22 31 27 28 19 29 18
  -2001115.53008  -1559318.33708  20995164.47208  20995167.04008
  -1105602.05308   -861506.89508  22218091.65308  22218092.84308
  -3521165.99608  -2743763.72308  24026009.31508  24026015.43408
  -1581864.30807  -1232621.74507  24643315.65407  24643321.11907
  -7155036.39708  -5575343.36708  23653628.43908  23653631.71008
  -4186465.85108  -3262178.34808  21617231.44808  21617233.72008
 -12264387.52108  -9556666.25608  20141105.88508  20141106.16208
 -21495517.55008 -16749751.11708  20709951.09108  20709952.16708
 93 04 15 16 50 00.0000000  0  8 14 22 31 27 28 29 18 19
  -1666900.30408  -1298891.18708  21058763.75508  21058766.39608
   -766950.15108   -597622.41408  22282535.08508  22282536.25708
  -3849007.25908  -2999224.08308  23963623.04208  23963629.03308
  -1893144.78607  -1475177.93507  24584080.96107  24584086.47307
  -7388445.31808  -5757220.06008  23609211.88308  23609215.09008
 -12265264.69608  -9557349.81608  20140938.98108  20140939.27108
 -21724676.97908 -16928316.86408  20666343.50308  20666344.55708
  -4382696.56908  -3415085.25708  21579889.90208  21579892.11208
 93 04 15 16 52 00.0000000  0  8 14 22 31 27 28 29 18 19
  -1326720.35908  -1033816.21608  21123498.10208  21123500.82508
   -423311.85408   -329852.43408  22347927.37008  22347928.58508
  -4177648.59208  -3255307.87008  23901084.27208  23901090.24708
  -2203091.76507  -1716694.95807  24525099.72907  24525105.50507
  -7618364.92208  -5936377.80008  23565459.28008  23565462.40508
 -12261318.65908  -9554275.03608  20141689.95308  20141690.24008
 -21950356.66408 -17104171.15108  20623398.05708  20623399.10608
  -4576016.26508  -3565723.84008  21543102.32508  21543104.46908
 93 04 15 16 54 00.0000000  0  8 14 22 31 27 28 29 18 19
   -980035.18008   -763672.24508  21189470.26508  21189473.09708
    -74282.07008    -57881.30008  22414345.63208  22414346.88408
  -4506439.51208  -3511508.22208  23838517.07108  23838523.12508
  -2511276.99907  -1956839.12107  24466453.79507  24466459.57607
  -7844202.40008  -6112354.68108  23522483.55908  23522486.59608
 -12251865.59008  -9546909.05608  20143488.90608  20143489.22708
 -22172239.49508 -17277066.85308  20581175.15108  20581176.20708
  -4765375.11308  -3713276.06208  21507068.47508  21507070.61308
 93 04 15 16 56 00.0000000  0  8 14 22 31 27 28 29 18 19
   -627297.35108   -488811.93808  21256594.34808  21256597.24308
    279979.65908    218166.66608  22481759.51108  22481760.76108
  -4835353.38408  -3767804.29608  23775926.38708  23775932.43408
  -2817392.45507  -2195370.44307  24408201.71707  24408207.48507
  -8065347.92808  -6284675.52008  23480400.70908  23480403.70908
 -12236497.10308  -9534933.65608  20146413.42208  20146413.75008
 -22390221.90108 -17446923.25308  20539694.51008  20539695.53108
  -4950841.09808  -3857794.89708  21471775.32208  21471777.42908
 93 04 15 16 58 00.0000000  0  8 14 22 31 27 28 29 18 19
   -269366.68408   -209905.28608  21324706.59108  21324709.55808
    638710.63508    497697.15008  22550023.86208  22550025.15708
  -5164883.95008  -4024580.87208  23713218.43308  23713224.45008
  -3122137.78307  -2432834.12507  24350210.50507  24350216.13407
  -8282175.08808  -6453631.41308  23439139.61708  23439142.54108
 -12215896.44808  -9518881.24608  20150333.64908  20150333.99408
 -22604834.92608 -17614154.15308  20498854.94908  20498855.98408
  -5133281.95308  -3999956.50208  21437057.90808  21437060.00008
 93 04 15 17 00 00.0000000  0  8 14 22 31 27 28 29 18 19
     94475.46908     73607.70308  21393943.69208  21393946.72208
   1002239.46208    780966.22308  22619201.18208  22619202.52208
  -5494061.09108  -4281081.96208  23650577.68108  23650583.52108
  -3425192.70108  -2668980.62707  24292541.04308  24292546.45707
  -8494450.06708  -6619040.14508  23398744.74308  23398747.64608
 -12189707.50808  -9498474.33608  20155317.28608  20155317.64908
 -22815105.01508 -17778000.95508  20458841.88008  20458842.90508
  -5312211.67508  -4139382.16308  21403008.64608  21403010.72908
 93 04 15 17 02 00.0000000  0  8 14 22 31 27 28 29 18 19
    463643.29108    361270.55308  21464194.30808  21464197.45308
   1370223.49108   1067706.87908  22689226.30208  22689227.73208
  -5822826.11608  -4537261.92108  23588015.46308  23588021.06908
  -3726628.22208  -2903865.26107  24235179.77708  24235184.87607
  -8701847.62208  -6780648.28408  23359278.11508  23359280.97808
 -12158026.82308  -9473788.15908  20161345.96008  20161346.34608
 -23021442.23508 -17938783.19708  20419577.20308  20419578.23708
  -5487440.90108  -4275924.31208  21369663.57408  21369665.61308
 93 04 15 17 04 00.0000000  0  8 14 22 31 27 28 29 18 19
    837389.98208    652501.33308  21535316.21908  21535319.46808
   1742017.99708   1357416.73408  22759976.59008  22759978.01308
  -6151590.58508  -4793441.48808  23525453.42408  23525458.76608
  -4026886.35108  -3137832.40208  24178042.39408  24178047.27008
  -8904724.41108  -6938733.74908  23320671.76808  23320674.53308
 -12121074.54308  -9444994.25308  20168377.80808  20168378.21208
 -23224310.81308 -18096862.60408  20380972.59308  20380973.62408
  -5659928.91408  -4410330.45608  21336840.13808  21336842.14108
 93 04 15 17 06 00.0000000  0  8 14 22 31 27 28 29 18 19
   1215782.43108    947352.15908  21607322.26708  21607325.63808
   2117646.77008   1650114.32908  22831456.47808  22831457.93108
  -6480055.36708  -5049387.57008  23462948.21608  23462953.40208
  -4325930.75008  -3370853.69108  24121136.02308  24121140.73008
  -9102915.53108  -7093168.06108  23282956.88508  23282959.51308
 -12078638.45108  -9411927.25108  20176453.20508  20176453.60908
 -23423102.86208 -18251765.49308  20343143.71608  20343144.75908
  -5829305.91308  -4542312.43508  21304608.68608  21304610.66508
 93 04 15 17 08 00.0000000  0  8 14 19 22 31 27 29 28 18
   1598172.44008   1245317.95408  21680088.99608  21680092.48108
  -5996564.92108  -4672644.04108  21272780.27108  21272782.21608
   2496431.25708   1945270.91108  22903536.89208  22903538.38208
  -6808442.23708  -5305272.98408  23400457.89908  23400462.91308
  -4624046.49008  -3603151.30508  24064406.14408  24064410.84308
 -12030955.58308  -9374771.86108  20185527.03108  20185527.45508
  -9296480.14208  -7243997.33008  23246122.52408  23246125.11708
 -23618024.62308 -18403652.56908  20306051.30008  20306052.33408
 93 04 15 17 10 00.0000000  0  8 14 19 22 31 27 29 28 18
   1985353.67508   1547017.15308  21753767.49308  21753771.06608
  -6160215.01608  -4800163.52408  21241638.65108  21241640.61508
   2879127.42908   2243475.55608  22976361.70808  22976363.20508
  -7135775.24808  -5560337.24008  23338168.13608  23338173.12108
  -4920475.97008  -3834134.95108  24007997.13108  24008001.96608
 -11977035.99008  -9332756.68208  20195787.66008  20195788.09008
  -9484281.18808  -7390335.49908  23210384.76408  23210387.31508
 -23808459.29209 -18552043.22608  20269812.84209  20269813.86708
 93 04 15 17 12 00.0000000  0  8 14 19 22 31 27 28 29 18
   2377047.05108   1852232.28508  21828304.54808  21828308.25408
  -6320187.96608  -4924817.70208  21211196.75908  21211198.69508
   3265500.15208   2544545.04008  23049886.11408  23049887.65108
  -7461741.44008  -5814336.37007  23276138.41608  23276143.28907
  -5215061.64808  -4063681.85508  23951938.94308  23951943.86308
  -9666528.31508  -7532345.95308  23175704.17108  23175706.55808
 -11917059.96008  -9286022.19008  20207200.77308  20207201.21808
 -23994068.76109 -18696673.97508  20234492.53609  20234493.56708
 93 04 15 17 14 00.0000000  0  8 19 14 22 31 27 29 28 18
  -6477467.48408  -5047373.09008  21181267.43308  21181269.38208
   2772282.43608   2160207.38808  21903515.81808  21903519.65408
   3654791.91208   2847889.09208  23123966.01108  23123967.64408
  -7786533.59308  -6067420.71407  23214332.23908  23214337.04107
  -5508934.28908  -4292673.13008  23896016.43308  23896021.40308
 -11851408.44508  -9234865.26608  20219693.93008  20219694.43208
  -9843594.05208  -7670318.95108  23142009.54708  23142011.79708
 -24175238.03409 -18837844.83408  20200017.15609  20200018.18108
 93 04 15 17 16 00.0000000  0  8 19 14 22 31 27 29 28 18
  -6632063.71908  -5167837.62908  21151848.71508  21151850.64008
   3171331.81008   2471154.40408  21979452.82208  21979456.78208
   4047046.23108   3153541.62408  23198609.65308  23198611.31108
  -8110181.52808  -6319613.41007  23152743.82308  23152748.46107
  -5801344.87708  -4520525.15008  23840372.31308  23840377.18608
 -11780346.56508  -9179492.48308  20233216.61208  20233217.14208
 -10014922.51608  -7803821.37208  23109406.79008  23109409.05108
 -24351721.89509 -18975364.72908  20166433.43009  20166434.45208
 93 04 15 17 18 00.0000000  0  8 19 14 22 31 27 28 29 18
  -6783262.21508  -5285654.59808  21123076.47908  21123078.34908
   3574221.09908   2785093.54308  22056120.47508  22056124.58508
   4442579.08908   3461748.85108  23273877.21308  23273878.85908
  -8431798.41308  -6570223.43907  23091541.79908  23091546.30807
  -6091924.15408  -4746950.17208  23785076.68308  23785081.47308
 -10179781.05608  -7932282.33608  23078034.93808  23078037.10908
 -11702912.03008  -9119153.98908  20247951.98808  20247952.56008
 -24523200.58909 -19108984.48608  20133802.13409  20133803.13708
 93 04 15 17 20 00.0000000  0  8 19 14 22 31 27 29 28 18
  -6931503.09408  -5401166.91608  21094867.16408  21094869.02708
   3980803.58708   3101910.46308  22133490.99808  22133495.22608
   4840837.77608   3772080.09508  23349663.45308  23349665.22808
  -8751672.70608  -6819475.57707  23030671.30008  23030675.69007
  -6381362.35608  -4972486.03108  23729998.25908  23730002.73308
 -11619364.24808  -9054051.93508  20263850.67408  20263851.27908
 -10338475.71208  -8055940.30008  23047836.16508  23047838.36108
 -24689836.60409 -19238830.74408  20102092.32909  20102093.32808
 93 04 15 17 22 00.0000000  0  8 19 14 22 31 27 29 28 18
  -7076093.36608  -5513834.60708  21067352.53808  21067354.39708
   4390982.81008   3421530.00108  22211545.97308  22211550.35408
   5242181.14008   4084814.97508  23426036.70908  23426038.54808
  -9068808.78108  -7066594.05607  22970321.88308  22970326.13907
  -6668474.94308  -5196209.72708  23675362.25308  23675366.56408
 -11529050.25608  -8983677.51208  20281036.98108  20281037.61608
 -10490641.26008  -8174510.65808  23018879.82308  23018882.00708
 -24850845.09509 -19364291.91908  20071453.45809  20071454.46508
 93 04 15 17 24 00.0000000  0  8 19 14 22 31 29 27 28 18
  -7218138.49608  -5624519.08308  21040322.21808  21040324.09808
   4804051.45708   3743401.01008  22290150.82008  22290155.39408
   5645756.95508   4399289.42208  23502834.74708  23502836.66608
  -9383845.49208  -7312076.67507  22910371.94008  22910376.09407
 -11432755.92308  -8908643.09108  20299361.21508  20299361.87208
  -6954637.81808  -5419193.40408  23620906.98108  23620911.13508
 -10636747.64908  -8288359.59008  22991076.56508  22991078.76008
 -25006640.14809 -19485690.66508  20041806.62309  20041807.63808
 93 04 15 17 26 00.0000000  0  8 19 14 22 31 29 27 28 18
  -7357639.14308  -5733220.84308  21013776.11208  21013777.97208
   5219871.52108   4067415.96008  22369279.24808  22369283.93008
   6051289.15708   4715288.32408  23580005.15208  23580007.10308
  -9696602.77408  -7555783.14007  22850855.72408  22850859.80207
 -11330685.88408  -8829108.13208  20318784.60408  20318785.27408
  -7239930.48108  -5641499.02508  23566617.27608  23566621.37308
 -10776346.08108  -8397137.39708  22964511.72808  22964513.79508
 -25157480.84509 -19603228.87108  20013102.61909  20013103.62608
 93 04 15 17 28 00.0000000  0  8 14 22 29 31 27 28 18 19
   5638343.16608   4393497.05008  22448912.27308  22448917.17408
   6458834.17108   5032855.65308  23657558.61608  23657560.55708
 -11222483.54008  -8744794.73908  20339374.97308  20339375.66008
 -10006883.80408  -7797560.08907  22791810.95108  22791814.94507
  -7523662.46108  -5862588.54008  23512624.58008  23512628.64908
 -10909170.50808  -8500636.77508  22939235.98608  22939237.95408
 -25303012.39509 -19716630.09108  19985408.91009  19985409.91608
  -7494361.02108  -5839757.32708  20987758.78008  20987760.58008
 93 04 15 17 30 00.0000000  0  8 14 22 29 31 27 28 18 19
   6059281.19008   4721499.95708  22529014.71608  22529019.77508
   6868526.71808   5352096.38508  23735520.62908  23735522.67608
 -11107791.06208  -8655424.09008  20361200.31308  20361201.03708
 -10313928.70508  -8036815.38707  22733381.91808  22733385.69807
  -7806028.25708  -6082613.50908  23458891.81508  23458895.93408
 -11035419.14508  -8599012.18008  22915211.46608  22915213.38708
 -25442811.83409 -19825564.73708  19958805.93609  19958806.95308
  -7628277.53908  -5944107.80208  20962275.29208  20962277.16108
 93 04 15 17 32 00.0000000  0  8 14 22 29 31 27 28 18 19
   6483048.00208   5051707.09808  22609655.45308  22609660.59308
   7280290.62908   5672951.17108  23813876.86008  23813878.95208
 -10986323.48208  -8560774.15608  20384314.93508  20384315.69408
 -10617516.72508  -8273377.03708  22675610.78208  22675614.48908
  -8086509.60608  -6301170.10508  23405517.77608  23405521.83108
 -11154062.62408  -8691461.50608  22892634.34908  22892636.21008
 -25576535.63509 -19929765.12008  19933359.17609  19933360.19608
  -7758803.55608  -6045816.34108  20937436.94808  20937438.78908
 93 04 15 17 34 00.0000000  0  8 14 22 29 31 27 28 18 19
   6908984.58908   5383604.95308  22690709.13008  22690714.52008
   7693648.69008   5995048.14808  23892536.44608  23892538.59108
 -10858740.13208  -8461358.69608  20408593.31508  20408594.11708
 -10918007.20908  -8507525.01008  22618428.91008  22618432.56608
  -8365569.29408  -6518618.92408  23352414.30908  23352418.25508
 -11265689.30608  -8778443.21108  22871392.45608  22871394.29208
 -25704638.59009 -20029585.63708  19908982.07309  19908983.07708
  -7886583.19508  -6145384.86208  20913121.26508  20913123.08608
 93 04 15 17 36 00.0000000  0  8 14 22 29 31 27 28 18 19
   7336716.61708   5716901.82708  22772104.40008  22772109.98408
   8108817.63308   6318556.22208  23971540.64508  23971542.77508
 -10724490.79508  -8356748.96308  20434140.22908  20434141.05208
 -11214618.22908  -8738650.04708  22561985.46908  22561989.03908
  -8643179.72108  -6734938.44808  23299586.66308  23299590.49208
 -11369785.73808  -8859557.19908  22851583.48008  22851585.31408
 -25826407.21009 -20124470.29808  19885810.25009  19885811.25808
  -8011514.16108  -6242733.62908  20889347.66108  20889349.44408
 93 04 15 17 38 00.0000000  0  8 14 22 29 31 27 28 18 19
   7766514.12308   6051808.12408  22853892.79008  22853898.55108
   8525482.48408   6643229.93808  24050829.45408  24050831.65508
 -10583500.03908  -8246886.19408  20460970.01908  20460970.89408
 -11507035.47008  -8966507.21408  22506339.90908  22506343.38408
  -8919500.42408  -6950252.99008  23247004.37908  23247008.14808
 -11466368.97308  -8934816.75808  22833204.00308  22833205.80908
 -25942083.99709 -20214608.08108  19863797.72609  19863798.73708
  -8133592.51408  -6337859.57108  20866116.88508  20866118.69808
 93 04 15 17 40 00.0000000  0  8 14 22 29 31 27 28 18 19
   8198088.12508   6388098.67408  22936019.28508  22936025.27108
   8943292.69308   6968796.14708  24130336.23208  24130338.50208
 -10436263.63208  -8132156.68208  20488988.27308  20488989.18508
 -11795573.96208  -9191341.99508  22451432.56208  22451435.95908
  -9194405.04008  -7164464.09008  23194691.56208  23194695.25908
 -11555686.20608  -9004414.49908  22816207.59108  22816209.34508
 -26051436.97709 -20299818.22608  19842988.57309  19842989.58508
  -8252997.47708  -6430902.36708  20843394.89608  20843396.70708
 93 04 15 17 42 00.0000000  0  8 14 22 29 31 27 28 18 19
   8630443.75908   6724998.25608  23018294.53908  23018300.79208
   9361573.75408   7294729.25208  24209932.65408  24209934.96908
 -10283249.61008  -8012925.13608  20518105.98608  20518106.95608
 -12080965.91908  -9413724.94608  22397124.09208  22397127.29708
  -9468632.47408  -7378147.52008  23142507.50108  23142511.17508
 -11638038.73708  -9068585.20408  22800536.42008  22800538.15708
 -26155056.03509 -20380560.38208  19823270.52809  19823271.54108
  -8370004.65008  -6522076.76508  20821129.12708  20821130.90808
 93 04 15 17 44 00.0000000  0  8 14 22 31 29 27 28 18 19
   9063662.02308   7062569.96408  23100733.88408  23100740.42408
   9780777.57708   7621381.39808  24289704.61708  24289706.93408
 -12361802.48408  -9632558.25708  22343682.38308  22343685.44808
 -10123440.49808  -7888398.72108  20548516.78608  20548517.76408
  -9741298.79608  -7590614.51008  23090620.56908  23090624.21408
 -11712427.09208  -9126550.07008  22786380.63608  22786382.39208
 -26252227.97209 -20456278.80508  19804779.34709  19804780.36908
  -8484432.74508  -6611241.47608  20799354.14308  20799355.88008
 93 04 15 17 46 00.0000000  0  8 14 22 31 29 27 28 18 19
   9498446.43108   7401362.02108  23183471.40808  23183478.20308
  10201182.70508   7948969.64308  24369705.17108  24369707.54808
 -12637561.69208  -9847435.20208  22291206.94008  22291209.89408
  -9956720.82208  -7758487.45408  20580242.58208  20580243.63608
 -10012392.69408  -7801856.25308  23039032.94808  23039036.48308
 -11778719.69308  -9178206.57808  22773765.61108  22773767.31808
 -26342692.62509 -20526770.77008  19787564.52209  19787565.53308
  -8595964.85308  -6698149.56608  20778130.24408  20778132.05508
 93 04 15 17 48 00.0000000  0  8 14 22 31 29 27 28 18 19
   9933976.85008   7740735.35308  23266350.76008  23266357.83608
  10622019.24208   8276894.05708  24449787.83808  24449790.23308
 -12908820.98208 -10058805.75008  22239587.72908  22239590.64208
  -9783820.61008  -7623760.19708  20613144.54808  20613145.60408
 -10282357.32708  -8012218.06208  22987660.29108  22987663.69708
 -11837351.97108  -9223894.01908  22762608.30608  22762609.98308
 -26426803.94109 -20592312.09408  19771558.65509  19771559.69208
  -8705013.72709  -6783122.68508  20757378.91409  20757380.70508
 93 04 15 17 50 00.0000000  0  8 14 22 31 29 27 28 18 19
  10369284.48208   8079935.05308  23349187.85108  23349195.18308
  11042704.72008   8604700.76108  24529841.75408  24529844.18908
 -13176100.53708 -10267075.23308  22188725.89008  22188728.71608
  -9605302.69508  -7484655.50508  20647115.51208  20647116.62708
 -10551631.26808  -8222041.66308  22936418.99608  22936422.36908
 -11888712.28208  -9263915.00308  22752834.60408  22752836.31108
 -26504679.41209 -20652994.31608  19756739.48109  19756740.53608
  -8811822.25909  -6866350.09308  20737053.93309  20737055.64908
 93 04 15 17 52 00.0000000  0  8 14 22 31 29 27 28 18 19
  10805100.47108   8419530.84308  23432121.68608  23432129.33908
  11463523.21608   8932611.10907  24609920.95908  24609923.42307
 -13437775.57108 -10470977.57508  22138930.54108  22138933.35608
  -9420356.59508  -7340541.83208  20682309.73908  20682310.87408
 -10819907.87908  -8431088.13008  22885367.48508  22885370.80408
 -11932391.56508  -9297950.76108  22744522.69208  22744524.38908
 -26575882.78109 -20708477.49908  19743189.99209  19743191.03608
  -8916500.69309  -6947917.66208  20717134.26909  20717135.99708
 93 04 15 17 54 00.0000000  0  8 14 22 31 27 29 28 18 19
  11240983.08908   8759178.50908  23515068.20208  23515076.17908
  11884335.98608   9260517.00907  24689999.06008  24690001.55207
 -13694237.22608 -10670817.54108  22090127.29008  22090130.02308
 -11087295.13008  -8639441.57308  22834485.17408  22834488.49208
  -9228868.93908  -7191330.88708  20718748.82008  20718749.99008
 -11967874.87508  -9325600.03908  22737770.42008  22737772.09908
 -26640655.47009 -20758949.75908  19730864.22909  19730865.26908
  -9019045.69609  -7027822.83208  20697620.57909  20697622.32508
 93 04 15 17 56 00.0000000  0  8 14 22 31 27 29 28 18 19
  11677128.46008   9099030.88208  23598064.72508  23598073.02508
  12305445.38008   9588654.05207  24770133.67108  24770136.23307
 -13945526.78508 -10866627.29008  22042308.28408  22042310.91908
 -11353038.79508  -8846514.31808  22783915.62908  22783918.89708
  -9031131.08208  -7037249.65608  20756377.20508  20756378.44908
 -11994647.82408  -9346462.00708  22732675.62508  22732677.30208
 -26697909.80709 -20803563.56708  19719969.09109  19719970.14208
  -9118749.39709  -7105513.99208  20678647.56909  20678649.28708
 93 04 15 17 58 00.0000000  0  8 31 14 22 27 29 28 18 19
 -14190524.96608 -11057534.65808  21995686.41308  21995689.00208
  12113840.17508   9439324.53108  23681169.13208  23681177.73208
  12726923.03707   9917078.08107  24850338.30207  24850340.87707
 -11617036.18408  -9052226.32708  22733678.42808  22733681.63308
  -8826442.40608  -6877752.21408  20795328.34408  20795329.65608
 -12013087.16908  -9360830.26308  22729166.69208  22729168.33608
 -26748004.45309 -20842598.40608  19710436.43509  19710437.48208
  -9215600.98509  -7180982.74308  20660217.28709  20660218.99508
 93 04 15 18 00 00.0000000  0  8 31 14 22 27 29 28 18 19
 -14430058.56208 -11244183.90908  21950104.48208  21950106.99108
  12549490.09608   9778790.75908  23764071.46508  23764080.36508
  13147674.98107  10244936.62907  24930404.79507  24930407.30507
 -11880407.26608  -9257450.31408  22683560.39608  22683563.48608
  -8615883.24708  -6713680.37008  20835396.58708  20835397.97708
 -12023833.24808  -9369203.77208  22727121.67508  22727123.31108
 -26791747.70109 -20876684.10308  19702112.41009  19702113.47908
  -9310189.45909  -7254687.99908  20642217.68609  20642219.42608
 93 04 15 18 02 00.0000000  0  8 31 14 27 22 29 28 18 19
 -14662866.40408 -11425592.32408  21905802.44308  21905804.87208
  12984861.92708  10118040.32508  23846920.83308  23846930.15408
 -12142124.78508  -9461385.81908  22633757.03408  22633760.02408
  13568526.03107  10572872.42006  25010490.16007  25010492.72806
  -8398192.49108  -6544051.43808  20876821.93708  20876823.36908
 -12025638.32808  -9370610.28108  22726778.12308  22726779.76808
 -26827297.04809 -20904384.94408  19695347.63109  19695348.69608
  -9402155.56009  -7326349.86308  20624717.08409  20624718.83208
 93 04 15 18 04 00.0000000  0  8 31 14 27 28 29 22 18 19
 -14889026.19008 -11601820.43408  21862765.54808  21862767.90608
  13420383.47408  10457406.42008  23929798.86008  23929808.49708
 -12402014.52408  -9663897.08108  22584301.52708  22584304.42408
 -12018509.51308  -9365055.32408  22728134.74708  22728136.38408
  -8173509.04308  -6368973.67508  20919577.97608  20919579.46608
  13989554.92507  10900946.78906  25090609.35607  25090611.87806
 -26854916.28609 -20925906.48008  19690091.94109  19690093.04508
  -9491254.78309  -7395777.81708  20607762.06709  20607763.75008
 93 04 15 18 06 00.0000000  0  7 29 31 14 27 28 18 19
  -7943265.14808  -6189563.10908  20963392.09708  20963393.61708
 -15109323.55108 -11773480.44008  21820844.09008  21820846.35408
  13854532.23708  10795702.72708  24012415.66608  24012425.64808
 -12661277.71208  -9865920.11708  22534965.12608  22534967.98408
 -12003814.64708  -9353604.75508  22730931.03908  22730932.69408
 -26875986.47409 -20942324.86708  19686082.43209  19686083.55808
  -9578181.61409  -7463512.98308  20591220.42609  20591222.14508
 93 04 15 18 08 00.0000000  0  7 29 14 31 27 28 18 19
  -7707736.25108  -6006034.38208  21008212.03808  21008213.62508
  14286611.13308  11132386.11708  24094638.65508  24094649.03808
 -15324256.38008 -11940960.29708  21779943.50808  21779945.75708
 -12920394.19308 -10067828.85208  22485656.80308  22485659.62608
 -11981589.78408  -9336286.64608  22735160.28008  22735161.95908
 -26890616.21409 -20953724.72708  19683298.52509  19683299.64008
  -9663842.02709  -7530261.33908  20574919.78409  20574921.52108
 93 04 15 18 10 00.0000000  0  8 29 14 11 31 27 28 18 19
  -7466164.60308  -5817797.04108  21054181.77808  21054183.43508
  14717390.91608  11468057.19508  24176614.41608  24176625.21508
        -0.25218        -0.33418  23781282.16618  23781288.00118
 -15532422.89308 -12103167.73208  21740330.55608  21740332.77608
 -13178563.13608 -10268999.24708  22436528.75308  22436531.55708
 -11950894.37408  -9312368.10708  22741001.33208  22741002.91108
 -26897707.39309 -20959250.39208  19681949.15609  19681950.28208
  -9747539.37509  -7595480.04008  20558992.69609  20558994.38008
 93 04 15 18 12 00.0000000  0  8 29 14 11 31 27 28 18 19
  -7219047.82208  -5625238.81408  21101206.71508  21101208.46108
  15146206.06307  11802197.23007  24258216.51007  24258227.66207
   -312614.51208   -243595.13308  23721793.07908  23721798.76708
 -15734295.42808 -12260470.79508  21701915.29508  21701917.46008
 -13436512.25108 -10469998.36808  22387442.49008  22387445.26408
 -11912414.01508  -9282383.37908  22748323.90908  22748325.51208
 -26898250.13309 -20959673.37108  19681845.94309  19681847.08308
  -9829337.52809  -7659218.83508  20543427.01409  20543428.66708
 93 04 15 18 14 00.0000000  0  8 29 14 11 31 27 28 18 19
  -6966575.63308  -5428507.53708  21149250.85108  21149252.69208
  15572662.78107  12134499.67107  24339369.63007  24339381.04607
   -622948.62708   -485413.24308  23662737.93308  23662743.51008
 -15929929.30108 -12412912.58308  21664687.28908  21664689.40608
 -13693800.04008 -10670482.16708  22338482.12208  22338484.81708
 -11866098.36708  -9246293.23608  22757137.44508  22757139.04208
 -26891972.47109 -20954781.75808  19683040.61509  19683041.78608
  -9909523.74109  -7721701.56808  20528168.03909  20528169.71808
 93 04 15 18 16 00.0000000  0  8 29 14 11 31 27 28 18 19
  -6708119.02508  -5227113.07208  21198433.72308  21198435.64008
  15997438.03307  12465492.03407  24420202.69007  24420214.50207
   -930061.25408   -724721.16208  23604295.83908  23604301.24908
 -16118502.89408 -12559852.87608  21628802.80108  21628804.81608
 -13949883.21908 -10870027.30508  22289750.97508  22289753.59508
 -11811759.90408  -9203951.54608  22767477.69308  22767479.30808
 -26877789.98109 -20943730.54008  19685739.48409  19685740.67408
  -9987684.46809  -7782606.01908  20513294.55109  20513296.23408
 93 04 15 18 18 00.0000000  0  8 29 14 11 31 27 28 18 19
  -6443486.72108  -5020906.39408  21248791.77608  21248793.74908
  16420772.29507  12795361.72507  24500761.43507  24500773.42407
  -1233595.39808   -961240.69808  23546534.71908  23546540.14908
 -16299449.59108 -12700850.14508  21594369.66508  21594371.64408
 -14204760.82808 -11068633.02308  22241249.22508  22241251.79908
 -11748534.94508  -9154685.31508  22779508.97008  22779510.49708
 -26856031.38409 -20926775.87308  19689880.09209  19689881.27808
 -10063133.28309  -7841397.29308  20498937.11209  20498938.76608
 93 04 15 18 20 00.0000000  0  8 29 14 11 31 27 28 18 19
  -6172253.20308  -4809555.94208  21300406.06508  21300408.15208
  16842117.19507  13123681.62407  24580941.27507  24580953.42107
  -1533072.64608  -1194599.03608  23489545.73108  23489550.95508
 -16472048.40908 -12835342.56508  21561525.06308  21561526.98508
 -14458294.41908 -11266191.47008  22193003.23608  22193005.78208
 -11676237.77608  -9098349.82808  22793266.64608  22793268.22908
 -26825985.17509 -20903363.33608  19695597.67609  19695598.88808
 -10136027.00109  -7898197.56308  20485065.90509  20485067.57408
 93 04 15 18 22 00.0000000  0  8 29 14 11 31 27 28 18 19
  -5894792.25908  -4593352.94508  21353205.38008  21353207.56108
  17261447.53906  13450431.61506  24660737.91106  24660750.30406
  -1828475.11608  -1424782.27208  23433332.17308  23433337.21608
 -16637149.35908 -12963992.47208  21530107.24908  21530109.14808
 -14710470.45108 -11462692.10308  22145015.50808  22145018.09308
 -11595350.58308  -9035320.82608  22808658.87908  22808660.48308
 -26787992.06409 -20873758.39908  19702827.64409  19702828.90208
 -10206242.03209  -7952910.55508  20471704.36409  20471706.06708
 93 04 15 18 24 00.0000000  0  7 29 11 31 27 28 18 19
  -5611518.06908  -4372620.16508  21407110.91508  21407113.19508
  -2119554.33308  -1651596.76208  23377941.32008  23377946.27708
 -16794220.58008 -13086385.42408  21500217.43808  21500219.29608
 -14961218.34508 -11658079.91608  22097299.64908  22097302.20708
 -11505703.47908  -8965465.93008  22825718.31408  22825719.88108
 -26741870.57409 -20837819.67108  19711604.32909  19711605.60208
 -10274009.69309  -8005716.50308  20458808.61409  20458810.32108
 93 04 15 18 26 00.0000000  0  8 29 02 11 31 27 28 18 19
  -5323071.56408  -4147857.02408  21462000.73908  21462003.07008
         0.07718        -0.34518  23529645.90818  23529652.56918
  -2406816.18108  -1875436.69808  23323276.83308  23323281.59108
 -16943836.29308 -13202968.89108  21471746.35808  21471748.17108
 -15211277.44408 -11852930.99108  22049714.89808  22049717.37208
 -11408126.98608  -8889432.31108  22844286.44408  22844287.99508
 -26688412.68709 -20796164.27308  19721777.12209  19721778.39908
 -10340289.49009  -8057363.08408  20446195.96909  20446197.66608
 93 04 15 18 28 00.0000000  0  8 29 02 11 31 27 28 18 19
  -5028571.75108  -3918377.02108  21518042.48708  21518044.92308
   -349010.01308   -271955.65408  23463230.97308  23463237.51708
  -2689337.98308  -2095583.12308  23269514.38808  23269519.04208
 -17085212.56708 -13313132.02908  21444843.20308  21444844.99908
 -15460062.13308 -12046789.00808  22002372.62108  22002375.04808
 -11301808.52808  -8806586.77208  22864518.05208  22864519.58008
 -26626959.82409 -20748279.02408  19733471.27209  19733472.58908
 -10404003.17109  -8107010.10108  20434071.68509  20434073.34508
 93 04 15 18 30 00.0000000  0  8 29 02 11 31 27 28 18 19
  -4728093.38508  -3684238.39908  21575221.87908  21575224.37808
   -694627.80408   -541267.61708  23397461.73708  23397468.02708
  -2966740.43108  -2311740.45408  23216726.10408  23216730.69308
 -17218223.77808 -13416776.94908  21419531.87208  21419533.64208
 -15707455.81608 -12239563.12008  21955295.04908  21955297.37408
 -11187048.48808  -8717163.39408  22886356.32308  22886357.88408
 -26557145.62709 -20693878.44908  19746756.54409  19746757.86508
 -10464859.66609  -8154430.72408  20422490.99209  20422492.64308
 93 04 15 18 32 00.0000000  0  8 29 02 11 31 27 28 18 19
  -4421614.60608  -3445424.15208  21633543.16808  21633545.75208
  -1036570.44508   -807715.85908  23332391.78008  23332397.94208
  -3238873.96008  -2523792.14608  23164940.49608  23164944.98408
 -17342390.11408 -13513529.78008  21395903.72008  21395905.41608
 -15953511.42108 -12431294.58608  21908472.09908  21908474.37108
 -11063582.03308  -8620955.79508  22909851.24208  22909852.83408
 -26479041.09709 -20633017.87108  19761619.42009  19761620.77108
 -10523298.08309  -8199967.12608  20411370.54009  20411372.22608
 93 04 15 18 34 00.0000000  0  8 29 02 11 31 27 28 18 19
  -4109944.55008  -3202564.74808  21692852.25708  21692854.96408
  -1374997.95308  -1071425.08308  23267990.81908  23267996.80508
  -3505792.49608  -2731780.19608  23114147.27008  23114151.68308
 -17457987.12508 -13603605.22908  21373906.23408  21373907.87008
 -16198118.35708 -12621897.22108  21861924.82008  21861927.03008
 -10931464.50908  -8518007.10408  22934992.29908  22934993.92908
 -26392906.77809 -20565900.30908  19778010.29709  19778011.67808
 -10579284.87209  -8243593.17208  20400716.58909  20400718.27908
 93 04 15 18 36 00.0000000  0  8 29 02 11 31 27 28 18 19
  -3792925.96708  -2955537.65508  21753179.14008  21753181.94508
  -1710395.38208  -1332773.27408  23204166.47108  23204172.30608
  -3767495.13308  -2935703.88008  23064346.57408  23064350.85308
 -17565184.13208 -13687135.22108  21353507.16808  21353508.80808
 -16441699.19508 -12811700.30508  21815572.72708  21815574.90908
 -10791307.25708  -8408793.68308  22961663.30208  22961664.91708
 -26298923.58509 -20492666.74908  19795894.78609  19795896.20608
 -10632872.23909  -8285349.53508  20390519.24209  20390520.91208
 93 04 15 18 38 00.0000000  0  8 29 02 11 31 27 28 18 19
  -3470575.01408  -2704355.48308  21814520.81708  21814523.68508
  -2042663.13408  -1591682.80308  23140937.75008  23140943.49908
  -4023753.08208  -3135384.96408  23015582.01408  23015586.12508
 -17663582.42908 -13763809.07908  21334782.49808  21334784.10408
 -16684122.73308 -13000601.60008  21769440.96208  21769443.12608
 -10643263.95408  -8293435.28108  22989834.97908  22989836.56308
 -26197361.84709 -20413527.83308  19815221.39709  19815222.84708
 -10684611.22409  -8325665.60008  20380673.61709  20380675.27508
 93 04 15 18 40 00.0000000  0  8 29 02 11 31 27 28 18 19
  -3142481.57108  -2448698.64008  21876955.20508  21876958.17908
  -2370951.57708  -1847491.57908  23078466.26008  23078471.91108
  -4273919.30708  -3330319.26408  22967976.63908  22967980.71308
 -17753054.31308 -13833527.28408  21317756.43308  21317758.01108
 -16925012.18708 -13188307.50408  21723601.08308  21723603.21808
 -10486731.43208  -8171461.91408  23019622.23908  23019623.88508
 -26087396.36209 -20327840.54808  19836147.21509  19836148.66808
 -10733511.32609  -8363769.54708  20371368.22509  20371369.85208
 93 04 15 18 42 00.0000000  0  8 29 02 11 31 27 28 18 19
  -2809608.26308  -2189317.24108  21940299.16208  21940302.24208
  -2695728.47308  -2100564.06908  23016662.89708  23016668.51508
  -4518340.55408  -3520776.98808  22921464.53308  22921468.44508
 -17833828.77408 -13896468.26708  21302385.45708  21302387.01308
 -17165248.68208 -13375504.60608  21677885.45908  21677887.57508
 -10322330.37908  -8043357.22308  23050906.63708  23050908.29008
 -25969543.56809 -20236007.30708  19858573.95309  19858575.42108
 -10780156.34209  -8400116.28908  20362491.94809  20362493.58008
 93 04 15 18 44 00.0000000  0  8 29 02 11 31 27 28 18 19
  -2472277.59308  -1926462.59708  22004491.40008  22004494.59208
  -3017511.24008  -2351303.46208  22955429.35008  22955434.86308
  -4756829.03208  -3706611.81008  22876081.39708  22876085.25908
 -17906119.28808 -13952798.38308  21288628.97108  21288630.46508
 -17404464.75908 -13561906.58108  21632364.07108  21632366.14208
 -10150023.30708  -7909092.00608  23083695.66008  23083697.28908
 -25844086.01609 -20138248.28308  19882447.78709  19882449.25708
 -10824911.32109  -8434990.27908  20353975.32309  20353976.93808
 93 04 15 18 46 00.0000000  0  8 29 02 11 31 27 28 18 19
  -2130080.57508  -1659816.01808  22069609.64108  22069613.00708
  -3335606.68308  -2599169.61108  22894897.44808  22894902.89208
  -4989047.66708  -3887561.06508  22831891.39108  22831895.16208
 -17969290.79308 -14002022.79108  21276607.71408  21276609.17108
 -17642316.52708 -13747245.47208  21587102.24608  21587104.27008
  -9969715.35208  -7768592.33708  23118007.32608  23118008.94408
 -25710737.41709 -20034340.38908  19907823.25009  19907824.76408
 -10867525.45309  -8468196.08108  20345866.09509  20345867.73008
 93 04 15 18 48 00.0000000  0  8 29 02 11 31 27 28 18 19
  -1782715.09008  -1389142.08308  22135711.45208  22135714.90708
  -3649660.45308  -2843886.41808  22835134.64408  22835140.01108
  -5214611.12308  -4063324.47408  22788967.86108  22788971.54508
 -18023297.06008 -14044105.48108  21266330.60008  21266332.02708
 -17878784.43508 -13931506.03708  21542103.81508  21542105.82308
  -9781761.95308  -7622135.19208  23153773.59408  23153775.23608
 -25569250.30409 -19924090.80408  19934747.45109  19934749.00308
 -10907520.61409  -8499361.12208  20338255.25409  20338256.86908
 93 04 15 18 50 00.0000000  0  8 29 02 11 31 27 28 18 19
  -1430211.82408  -1114464.69208  22202790.90508  22202794.49608
  -3960028.57508  -3085731.31508  22776073.27108  22776078.51208
  -5433145.59208  -4233610.74208  22747381.88308  22747385.45008
 -18068036.93408 -14078967.61808  21257816.76008  21257818.16808
 -18113595.28708 -14114475.39508  21497420.64608  21497422.61008
  -9585635.89408  -7469309.75708  23191095.26908  23191096.92808
 -25419616.32709 -19807493.03108  19963221.88809  19963223.49508
 -10944667.34309  -8528306.60108  20331186.45909  20331188.08408
 93 04 15 18 52 00.0000000  0  8 29 02 11 31 27 28 18 19
  -1073332.01808   -836377.01008  22270703.24808  22270706.89808
  -4266618.98308  -3324632.57108  22717730.78808  22717735.92208
  -5644912.91208  -4398623.89708  22707083.66308  22707087.17408
 -18103768.12308 -14106810.01008  21251017.28408  21251018.67908
 -18347348.96808 -14296621.00308  21452938.68808  21452940.59908
  -9381945.82308  -7310590.29308  23229856.08708  23229857.81408
 -25262309.19209 -19684916.17908  19993156.54209  19993158.18108
 -10979533.58809  -8555475.08108  20324551.62409  20324553.22808
 93 04 15 18 54 00.0000000  0  8 29 02 11 31 27 28 18 19
   -712014.21008   -554831.18008  22339460.12208  22339463.93808
  -4569170.65308  -3560386.75308  22660156.81808  22660161.79308
  -5849583.29908  -4558106.99008  22668135.92008  22668139.35008
 -18130069.88408 -14127304.78908  21246012.12808  21246013.50208
 -18579706.10508 -14477678.39408  21408722.55408  21408724.45608
  -9170650.41408  -7145944.60508  23270064.29308  23270066.00308
 -25097228.62009 -19556282.11508  20024570.48409  20024572.13908
 -11012093.29409  -8580846.26308  20318355.68009  20318357.27708
 93 04 15 18 56 00.0000000  0  8 29 02 11 31 27 28 18 19
   -346361.10308   -269907.24108  22409042.03108  22409045.95008
  -4868280.08608  -3793458.64408  22603237.93508  22603242.80908
  -6047231.77908  -4712118.51108  22630524.47008  22630527.83508
 -18147202.91508 -14140655.09308  21242751.82108  21242753.15408
 -18810988.18208 -14657898.07108  21364710.92608  21364712.80008
  -8952100.31108  -6975645.92208  23311653.21708  23311654.94208
 -24924567.97009 -19421741.51108  20057426.83309  20057428.54308
 -11042667.30509  -8604670.14508  20312537.63009  20312539.23008
 93 04 15 18 58 00.0000000  0  8 29 02 11 31 27 28 18 19
     23471.01608     18273.04008  22479419.22108  22479423.26408
  -5163467.16608  -4023474.11408  22547065.40608  22547070.11108
  -6237428.01608  -4860323.12608  22594331.13108  22594334.42908
 -18154931.56808 -14146677.32408  21241280.93808  21241282.25108
 -19040963.75508 -14837099.67408  21320947.93608  21320949.76508
  -8726243.30808  -6799653.55808  23354632.30408  23354634.05208
 -24743894.15809 -19280956.87608  20091808.01909  20091809.76408
 -11070524.97609  -8626377.39708  20307236.49409  20307238.09208
 93 04 15 19 00 00.0000000  0  8 29 02 11 31 27 28 18 19
    397861.80408    310005.48008  22550663.90708  22550668.14708
  -5454164.18108  -4249990.82908  22491747.26808  22491751.91008
  -6419645.55708  -5002310.60708  22559656.12208  22559659.38608
 -18152891.21408 -14145087.35408  21241669.27308  21241670.57108
 -19269233.02308 -15014971.69608  21277509.63408  21277511.45208
  -8492683.05408  -6617658.66608  23399077.48908  23399079.25008
 -24555404.30209 -19134081.81708  20127676.55209  20127678.31808
 -11095342.57809  -8645715.77208  20302513.83209  20302515.42608
 93 04 15 19 02 00.0000000  0  8 29 02 11 31 27 28 18 19
    776776.59408    605263.08608  22622769.48308  22622773.89008
  -5740501.92208  -4473110.71208  22437258.66508  22437263.19208
  -6593559.05008  -5137827.40508  22526561.29908  22526564.52708
 -18140998.53208 -14135820.25608  21243932.19808  21243933.50008
 -19495316.75708 -15191140.71508  21234487.23308  21234489.02208
  -8251272.05008  -6429546.30108  23445016.44208  23445018.27508
 -24358717.74709 -18980819.74208  20165104.94409  20165106.76708
 -11116926.05709  -8662534.05208  20298406.60409  20298408.18308
 93 04 15 19 04 00.0000000  0  8 29 02 11 31 27 28 18 19
   1159293.45708    903327.47808  22695560.54108  22695565.07108
  -6023215.33408  -4693406.47408  22383459.72608  22383464.22908
  -6759889.28708  -5267435.16308  22494909.56208  22494912.72608
 -18120076.99608 -14119517.69508  21247913.39208  21247914.65208
 -19719914.11808 -15366151.52308  21191747.68308  21191749.43908
  -8003240.33908  -6236274.95408  23492215.51108  23492217.36608
 -24154618.25709 -18821781.37508  20203943.90509  20203945.76808
 -11136242.77709  -8677586.03708  20294730.75209  20294732.30108
